<?xml version='1.0' encoding='UTF-8'?>
<gpx version="1.1" creator="https://www.komoot.de" xmlns="http://www.topografix.com/GPX/1/1" xmlns:xsi="http://www.w3.org/2001/XMLSchema-instance" xsi:schemaLocation="http://www.topografix.com/GPX/1/1 http://www.topografix.com/GPX/1/1/gpx.xsd">
  <metadata>
    <name>65_800Oberboelchen</name>
    <author>
      <link href="https://www.komoot.de">
        <text>komoot</text>
        <type>text/html</type>
      </link>
    </author>
  </metadata>
  <trk>
    <name>65_800Oberboelchen</name>
    <trkseg>
      <trkpt lat="47.542556" lon="7.869492">
        <ele>337.557699</ele>
        <time>2021-11-18T19:42:34.140Z</time>
      </trkpt>
      <trkpt lat="47.542657" lon="7.869354">
        <ele>337.557699</ele>
        <time>2021-11-18T19:42:35.720Z</time>
      </trkpt>
      <trkpt lat="47.542660" lon="7.869346">
        <ele>337.557699</ele>
        <time>2021-11-18T19:42:35.837Z</time>
      </trkpt>
      <trkpt lat="47.542696" lon="7.869257">
        <ele>337.557699</ele>
        <time>2021-11-18T19:42:36.684Z</time>
      </trkpt>
      <trkpt lat="47.542722" lon="7.869201">
        <ele>337.557699</ele>
        <time>2021-11-18T19:42:37.327Z</time>
      </trkpt>
      <trkpt lat="47.543049" lon="7.868759">
        <ele>337.557699</ele>
        <time>2021-11-18T19:42:42.299Z</time>
      </trkpt>
      <trkpt lat="47.543105" lon="7.868711">
        <ele>337.557699</ele>
        <time>2021-11-18T19:42:43.037Z</time>
      </trkpt>
      <trkpt lat="47.543201" lon="7.868657">
        <ele>337.557699</ele>
        <time>2021-11-18T19:42:44.115Z</time>
      </trkpt>
      <trkpt lat="47.543657" lon="7.868359">
        <ele>336.924575</ele>
        <time>2021-11-18T19:42:49.821Z</time>
      </trkpt>
      <trkpt lat="47.543801" lon="7.868269">
        <ele>336.713422</ele>
        <time>2021-11-18T19:42:52.300Z</time>
      </trkpt>
      <trkpt lat="47.544214" lon="7.867988">
        <ele>336.099414</ele>
        <time>2021-11-18T19:42:59.917Z</time>
      </trkpt>
      <trkpt lat="47.544246" lon="7.867967">
        <ele>336.052129</ele>
        <time>2021-11-18T19:43:00.514Z</time>
      </trkpt>
      <trkpt lat="47.544410" lon="7.867825">
        <ele>335.795493</ele>
        <time>2021-11-18T19:43:03.767Z</time>
      </trkpt>
      <trkpt lat="47.544469" lon="7.867776">
        <ele>335.704111</ele>
        <time>2021-11-18T19:43:04.789Z</time>
      </trkpt>
      <trkpt lat="47.544568" lon="7.867693">
        <ele>335.550426</ele>
        <time>2021-11-18T19:43:06.716Z</time>
      </trkpt>
      <trkpt lat="47.545003" lon="7.867278">
        <ele>335.294134</ele>
        <time>2021-11-18T19:43:15.564Z</time>
      </trkpt>
      <trkpt lat="47.545160" lon="7.866985">
        <ele>335.499669</ele>
        <time>2021-11-18T19:43:20.214Z</time>
      </trkpt>
      <trkpt lat="47.545240" lon="7.866887">
        <ele>335.584162</ele>
        <time>2021-11-18T19:43:22.488Z</time>
      </trkpt>
      <trkpt lat="47.546096" lon="7.866147">
        <ele>336.390845</ele>
        <time>2021-11-18T19:43:47.558Z</time>
      </trkpt>
      <trkpt lat="47.546327" lon="7.865959">
        <ele>336.625060</ele>
        <time>2021-11-18T19:43:55.295Z</time>
      </trkpt>
      <trkpt lat="47.546510" lon="7.865766">
        <ele>337.070949</ele>
        <time>2021-11-18T19:44:02.396Z</time>
      </trkpt>
      <trkpt lat="47.546819" lon="7.865489">
        <ele>337.787847</ele>
        <time>2021-11-18T19:44:12.627Z</time>
      </trkpt>
      <trkpt lat="47.546889" lon="7.865225">
        <ele>338.167873</ele>
        <time>2021-11-18T19:44:17.819Z</time>
      </trkpt>
      <trkpt lat="47.546894" lon="7.864837">
        <ele>338.687820</ele>
        <time>2021-11-18T19:44:25.239Z</time>
      </trkpt>
      <trkpt lat="47.546885" lon="7.864500">
        <ele>339.139694</ele>
        <time>2021-11-18T19:44:32.027Z</time>
      </trkpt>
      <trkpt lat="47.546877" lon="7.864345">
        <ele>339.347973</ele>
        <time>2021-11-18T19:44:34.921Z</time>
      </trkpt>
      <trkpt lat="47.546592" lon="7.863006">
        <ele>340.589665</ele>
        <time>2021-11-18T19:45:00.930Z</time>
      </trkpt>
      <trkpt lat="47.546526" lon="7.861665">
        <ele>341.311739</ele>
        <time>2021-11-18T19:45:21.662Z</time>
      </trkpt>
      <trkpt lat="47.546487" lon="7.859119">
        <ele>341.176581</ele>
        <time>2021-11-18T19:45:54.282Z</time>
      </trkpt>
      <trkpt lat="47.546537" lon="7.857497">
        <ele>340.871982</ele>
        <time>2021-11-18T19:46:15.294Z</time>
      </trkpt>
      <trkpt lat="47.546582" lon="7.856413">
        <ele>340.681175</ele>
        <time>2021-11-18T19:46:29.648Z</time>
      </trkpt>
      <trkpt lat="47.546945" lon="7.851719">
        <ele>339.210785</ele>
        <time>2021-11-18T19:47:30.682Z</time>
      </trkpt>
      <trkpt lat="47.547141" lon="7.850355">
        <ele>338.242788</ele>
        <time>2021-11-18T19:47:46.248Z</time>
      </trkpt>
      <trkpt lat="47.547143" lon="7.849985">
        <ele>337.753621</ele>
        <time>2021-11-18T19:47:50.156Z</time>
      </trkpt>
      <trkpt lat="47.547124" lon="7.848795">
        <ele>336.179967</ele>
        <time>2021-11-18T19:48:02.754Z</time>
      </trkpt>
      <trkpt lat="47.547274" lon="7.845536">
        <ele>332.118014</ele>
        <time>2021-11-18T19:48:37.509Z</time>
      </trkpt>
      <trkpt lat="47.547295" lon="7.844722">
        <ele>331.586508</ele>
        <time>2021-11-18T19:48:46.992Z</time>
      </trkpt>
      <trkpt lat="47.547305" lon="7.844155">
        <ele>331.411084</ele>
        <time>2021-11-18T19:48:53.977Z</time>
      </trkpt>
      <trkpt lat="47.547313" lon="7.843735">
        <ele>331.281133</ele>
        <time>2021-11-18T19:48:59.413Z</time>
      </trkpt>
      <trkpt lat="47.547354" lon="7.842839">
        <ele>331.003378</ele>
        <time>2021-11-18T19:49:11.599Z</time>
      </trkpt>
      <trkpt lat="47.547448" lon="7.842262">
        <ele>330.795437</ele>
        <time>2021-11-18T19:49:19.930Z</time>
      </trkpt>
      <trkpt lat="47.547362" lon="7.841665">
        <ele>330.560100</ele>
        <time>2021-11-18T19:49:28.187Z</time>
      </trkpt>
      <trkpt lat="47.547339" lon="7.841072">
        <ele>330.331110</ele>
        <time>2021-11-18T19:49:35.724Z</time>
      </trkpt>
      <trkpt lat="47.547332" lon="7.840572">
        <ele>330.138310</ele>
        <time>2021-11-18T19:49:41.815Z</time>
      </trkpt>
      <trkpt lat="47.547300" lon="7.838688">
        <ele>328.490463</ele>
        <time>2021-11-18T19:50:03.042Z</time>
      </trkpt>
      <trkpt lat="47.547276" lon="7.837287">
        <ele>326.912211</ele>
        <time>2021-11-18T19:50:17.918Z</time>
      </trkpt>
      <trkpt lat="47.547240" lon="7.836221">
        <ele>325.579301</ele>
        <time>2021-11-18T19:50:29.337Z</time>
      </trkpt>
      <trkpt lat="47.547190" lon="7.835066">
        <ele>324.131325</ele>
        <time>2021-11-18T19:50:41.843Z</time>
      </trkpt>
      <trkpt lat="47.547020" lon="7.831965">
        <ele>320.377689</ele>
        <time>2021-11-18T19:51:15.643Z</time>
      </trkpt>
      <trkpt lat="47.546946" lon="7.830852">
        <ele>318.901996</ele>
        <time>2021-11-18T19:51:27.675Z</time>
      </trkpt>
      <trkpt lat="47.546823" lon="7.829336">
        <ele>316.885108</ele>
        <time>2021-11-18T19:51:43.867Z</time>
      </trkpt>
      <trkpt lat="47.546721" lon="7.828140">
        <ele>315.103601</ele>
        <time>2021-11-18T19:51:56.578Z</time>
      </trkpt>
      <trkpt lat="47.546592" lon="7.826850">
        <ele>313.170788</ele>
        <time>2021-11-18T19:52:10.044Z</time>
      </trkpt>
      <trkpt lat="47.546574" lon="7.826239">
        <ele>312.427585</ele>
        <time>2021-11-18T19:52:16.490Z</time>
      </trkpt>
      <trkpt lat="47.546589" lon="7.825597">
        <ele>311.722701</ele>
        <time>2021-11-18T19:52:23.312Z</time>
      </trkpt>
      <trkpt lat="47.546589" lon="7.825597">
        <ele>311.722701</ele>
        <time>2021-11-18T19:52:23.375Z</time>
      </trkpt>
      <trkpt lat="47.546589" lon="7.825597">
        <ele>311.722701</ele>
        <time>2021-11-18T19:52:23.381Z</time>
      </trkpt>
      <trkpt lat="47.546693" lon="7.825618">
        <ele>311.552071</ele>
        <time>2021-11-18T19:52:25.048Z</time>
      </trkpt>
      <trkpt lat="47.547233" lon="7.825872">
        <ele>310.631042</ele>
        <time>2021-11-18T19:52:34.171Z</time>
      </trkpt>
      <trkpt lat="47.547666" lon="7.826091">
        <ele>309.997951</ele>
        <time>2021-11-18T19:52:41.871Z</time>
      </trkpt>
      <trkpt lat="47.548237" lon="7.826410">
        <ele>310.347874</ele>
        <time>2021-11-18T19:52:54.034Z</time>
      </trkpt>
      <trkpt lat="47.548679" lon="7.826710">
        <ele>310.626653</ele>
        <time>2021-11-18T19:53:05.247Z</time>
      </trkpt>
      <trkpt lat="47.549105" lon="7.827067">
        <ele>310.907296</ele>
        <time>2021-11-18T19:53:17.735Z</time>
      </trkpt>
      <trkpt lat="47.550183" lon="7.828277">
        <ele>312.735871</ele>
        <time>2021-11-18T19:53:55.785Z</time>
      </trkpt>
      <trkpt lat="47.550522" lon="7.828744">
        <ele>313.410941</ele>
        <time>2021-11-18T19:54:07.845Z</time>
      </trkpt>
      <trkpt lat="47.550675" lon="7.828955">
        <ele>313.592752</ele>
        <time>2021-11-18T19:54:12.464Z</time>
      </trkpt>
      <trkpt lat="47.551640" lon="7.830558">
        <ele>312.887239</ele>
        <time>2021-11-18T19:54:39.720Z</time>
      </trkpt>
      <trkpt lat="47.552065" lon="7.831350">
        <ele>311.960970</ele>
        <time>2021-11-18T19:54:50.750Z</time>
      </trkpt>
      <trkpt lat="47.552251" lon="7.831814">
        <ele>311.239151</ele>
        <time>2021-11-18T19:54:56.490Z</time>
      </trkpt>
      <trkpt lat="47.552296" lon="7.832003">
        <ele>310.971092</ele>
        <time>2021-11-18T19:54:58.742Z</time>
      </trkpt>
      <trkpt lat="47.552368" lon="7.832305">
        <ele>310.542703</ele>
        <time>2021-11-18T19:55:01.993Z</time>
      </trkpt>
      <trkpt lat="47.552458" lon="7.832824">
        <ele>309.825988</ele>
        <time>2021-11-18T19:55:07.594Z</time>
      </trkpt>
      <trkpt lat="47.552508" lon="7.832936">
        <ele>309.646381</ele>
        <time>2021-11-18T19:55:09.036Z</time>
      </trkpt>
      <trkpt lat="47.552556" lon="7.832977">
        <ele>309.536583</ele>
        <time>2021-11-18T19:55:09.987Z</time>
      </trkpt>
      <trkpt lat="47.552616" lon="7.832891">
        <ele>309.371147</ele>
        <time>2021-11-18T19:55:10.796Z</time>
      </trkpt>
      <trkpt lat="47.552690" lon="7.832598">
        <ele>308.905057</ele>
        <time>2021-11-18T19:55:13.120Z</time>
      </trkpt>
      <trkpt lat="47.552645" lon="7.830686">
        <ele>305.818382</ele>
        <time>2021-11-18T19:55:26.821Z</time>
      </trkpt>
      <trkpt lat="47.552554" lon="7.829266">
        <ele>303.893095</ele>
        <time>2021-11-18T19:55:37.108Z</time>
      </trkpt>
      <trkpt lat="47.552416" lon="7.828822">
        <ele>303.321376</ele>
        <time>2021-11-18T19:55:40.772Z</time>
      </trkpt>
      <trkpt lat="47.552404" lon="7.828582">
        <ele>303.039905</ele>
        <time>2021-11-18T19:55:42.686Z</time>
      </trkpt>
      <trkpt lat="47.552421" lon="7.828481">
        <ele>302.918157</ele>
        <time>2021-11-18T19:55:43.442Z</time>
      </trkpt>
      <trkpt lat="47.552477" lon="7.828294">
        <ele>302.678880</ele>
        <time>2021-11-18T19:55:45.017Z</time>
      </trkpt>
      <trkpt lat="47.552515" lon="7.828094">
        <ele>302.435869</ele>
        <time>2021-11-18T19:55:46.735Z</time>
      </trkpt>
      <trkpt lat="47.552491" lon="7.827227">
        <ele>301.617682</ele>
        <time>2021-11-18T19:55:53.643Z</time>
      </trkpt>
      <trkpt lat="47.552567" lon="7.824508">
        <ele>300.246107</ele>
        <time>2021-11-18T19:56:17.491Z</time>
      </trkpt>
      <trkpt lat="47.552896" lon="7.820699">
        <ele>298.314628</ele>
        <time>2021-11-18T19:56:50.157Z</time>
      </trkpt>
      <trkpt lat="47.552948" lon="7.819358">
        <ele>297.692834</ele>
        <time>2021-11-18T19:57:01.626Z</time>
      </trkpt>
      <trkpt lat="47.552927" lon="7.818769">
        <ele>297.577561</ele>
        <time>2021-11-18T19:57:06.774Z</time>
      </trkpt>
      <trkpt lat="47.552844" lon="7.816432">
        <ele>297.359256</ele>
        <time>2021-11-18T19:57:29.396Z</time>
      </trkpt>
      <trkpt lat="47.552711" lon="7.812955">
        <ele>298.597474</ele>
        <time>2021-11-18T19:58:10.301Z</time>
      </trkpt>
      <trkpt lat="47.552566" lon="7.810386">
        <ele>299.736892</ele>
        <time>2021-11-18T19:58:40.332Z</time>
      </trkpt>
      <trkpt lat="47.552398" lon="7.808880">
        <ele>300.420768</ele>
        <time>2021-11-18T19:58:58.813Z</time>
      </trkpt>
      <trkpt lat="47.552068" lon="7.806445">
        <ele>301.003315</ele>
        <time>2021-11-18T19:59:27.153Z</time>
      </trkpt>
      <trkpt lat="47.552015" lon="7.806307">
        <ele>301.012212</ele>
        <time>2021-11-18T19:59:28.876Z</time>
      </trkpt>
      <trkpt lat="47.551895" lon="7.806278">
        <ele>300.926707</ele>
        <time>2021-11-18T19:59:30.185Z</time>
      </trkpt>
      <trkpt lat="47.551651" lon="7.806246">
        <ele>300.754443</ele>
        <time>2021-11-18T19:59:33.948Z</time>
      </trkpt>
      <trkpt lat="47.551671" lon="7.806117">
        <ele>300.691619</ele>
        <time>2021-11-18T19:59:35.262Z</time>
      </trkpt>
      <trkpt lat="47.551681" lon="7.805477">
        <ele>300.387767</ele>
        <time>2021-11-18T19:59:42.959Z</time>
      </trkpt>
      <trkpt lat="47.551709" lon="7.805000">
        <ele>300.160509</ele>
        <time>2021-11-18T19:59:48.604Z</time>
      </trkpt>
      <trkpt lat="47.551731" lon="7.804667">
        <ele>300.001698</ele>
        <time>2021-11-18T19:59:53.241Z</time>
      </trkpt>
      <trkpt lat="47.551744" lon="7.804473">
        <ele>299.909165</ele>
        <time>2021-11-18T19:59:55.246Z</time>
      </trkpt>
      <trkpt lat="47.551741" lon="7.804294">
        <ele>299.824178</ele>
        <time>2021-11-18T19:59:57.626Z</time>
      </trkpt>
      <trkpt lat="47.551692" lon="7.803510">
        <ele>299.665544</ele>
        <time>2021-11-18T20:00:06.774Z</time>
      </trkpt>
      <trkpt lat="47.551751" lon="7.803369">
        <ele>299.640426</ele>
        <time>2021-11-18T20:00:08.779Z</time>
      </trkpt>
      <trkpt lat="47.551744" lon="7.803277">
        <ele>299.626409</ele>
        <time>2021-11-18T20:00:09.597Z</time>
      </trkpt>
      <trkpt lat="47.551732" lon="7.803125">
        <ele>299.603239</ele>
        <time>2021-11-18T20:00:10.985Z</time>
      </trkpt>
      <trkpt lat="47.551666" lon="7.803144">
        <ele>299.588156</ele>
        <time>2021-11-18T20:00:15.652Z</time>
      </trkpt>
      <trkpt lat="47.551598" lon="7.803160">
        <ele>299.572711</ele>
        <time>2021-11-18T20:00:20.397Z</time>
      </trkpt>
      <trkpt lat="47.551163" lon="7.803129">
        <ele>299.475016</ele>
        <time>2021-11-18T20:00:29.422Z</time>
      </trkpt>
      <trkpt lat="47.550981" lon="7.803132">
        <ele>299.434186</ele>
        <time>2021-11-18T20:00:33.435Z</time>
      </trkpt>
      <trkpt lat="47.550196" lon="7.803120">
        <ele>299.522491</ele>
        <time>2021-11-18T20:00:50.761Z</time>
      </trkpt>
      <trkpt lat="47.550134" lon="7.803051">
        <ele>299.549016</ele>
        <time>2021-11-18T20:00:52.443Z</time>
      </trkpt>
      <trkpt lat="47.550146" lon="7.802262">
        <ele>299.731228</ele>
        <time>2021-11-18T20:01:03.819Z</time>
      </trkpt>
      <trkpt lat="47.549879" lon="7.802247">
        <ele>299.822627</ele>
        <time>2021-11-18T20:01:09.601Z</time>
      </trkpt>
      <trkpt lat="47.549481" lon="7.802234">
        <ele>299.958806</ele>
        <time>2021-11-18T20:01:18.322Z</time>
      </trkpt>
      <trkpt lat="47.549410" lon="7.802226">
        <ele>299.980069</ele>
        <time>2021-11-18T20:01:19.924Z</time>
      </trkpt>
      <trkpt lat="47.548877" lon="7.802168">
        <ele>300.051804</ele>
        <time>2021-11-18T20:01:31.143Z</time>
      </trkpt>
      <trkpt lat="47.548723" lon="7.802144">
        <ele>300.072589</ele>
        <time>2021-11-18T20:01:34.369Z</time>
      </trkpt>
      <trkpt lat="47.548626" lon="7.802129">
        <ele>300.085679</ele>
        <time>2021-11-18T20:01:36.350Z</time>
      </trkpt>
      <trkpt lat="47.548626" lon="7.802129">
        <ele>300.085679</ele>
        <time>2021-11-18T20:01:36.354Z</time>
      </trkpt>
      <trkpt lat="47.548626" lon="7.802129">
        <ele>300.085679</ele>
        <time>2021-11-18T20:01:36.362Z</time>
      </trkpt>
      <trkpt lat="47.548607" lon="7.801690">
        <ele>300.125533</ele>
        <time>2021-11-18T20:01:42.431Z</time>
      </trkpt>
      <trkpt lat="47.548596" lon="7.801213">
        <ele>300.168774</ele>
        <time>2021-11-18T20:01:48.960Z</time>
      </trkpt>
      <trkpt lat="47.548576" lon="7.800968">
        <ele>300.191132</ele>
        <time>2021-11-18T20:01:52.330Z</time>
      </trkpt>
      <trkpt lat="47.548569" lon="7.800838">
        <ele>300.202947</ele>
        <time>2021-11-18T20:01:54.093Z</time>
      </trkpt>
      <trkpt lat="47.548560" lon="7.800672">
        <ele>300.218035</ele>
        <time>2021-11-18T20:01:56.404Z</time>
      </trkpt>
      <trkpt lat="47.548545" lon="7.800404">
        <ele>300.260972</ele>
        <time>2021-11-18T20:02:00.058Z</time>
      </trkpt>
      <trkpt lat="47.548519" lon="7.799896">
        <ele>300.344559</ele>
        <time>2021-11-18T20:02:07.173Z</time>
      </trkpt>
      <trkpt lat="47.548514" lon="7.799795">
        <ele>300.361175</ele>
        <time>2021-11-18T20:02:08.577Z</time>
      </trkpt>
      <trkpt lat="47.548535" lon="7.799720">
        <ele>300.374497</ele>
        <time>2021-11-18T20:02:09.727Z</time>
      </trkpt>
      <trkpt lat="47.548459" lon="7.799691">
        <ele>300.393573</ele>
        <time>2021-11-18T20:02:11.374Z</time>
      </trkpt>
      <trkpt lat="47.547912" lon="7.799646">
        <ele>300.526743</ele>
        <time>2021-11-18T20:02:22.617Z</time>
      </trkpt>
      <trkpt lat="47.547540" lon="7.799538">
        <ele>300.618888</ele>
        <time>2021-11-18T20:02:30.578Z</time>
      </trkpt>
      <trkpt lat="47.546418" lon="7.798980">
        <ele>301.152029</ele>
        <time>2021-11-18T20:02:59.034Z</time>
      </trkpt>
      <trkpt lat="47.545807" lon="7.798846">
        <ele>301.449651</ele>
        <time>2021-11-18T20:03:11.976Z</time>
      </trkpt>
      <trkpt lat="47.545731" lon="7.798810">
        <ele>301.488099</ele>
        <time>2021-11-18T20:03:14.022Z</time>
      </trkpt>
      <trkpt lat="47.545581" lon="7.798713">
        <ele>301.518674</ele>
        <time>2021-11-18T20:03:16.826Z</time>
      </trkpt>
      <trkpt lat="47.545511" lon="7.798680">
        <ele>301.514838</ele>
        <time>2021-11-18T20:03:18.318Z</time>
      </trkpt>
      <trkpt lat="47.545558" lon="7.798144">
        <ele>301.495787</ele>
        <time>2021-11-18T20:03:25.106Z</time>
      </trkpt>
      <trkpt lat="47.545637" lon="7.797310">
        <ele>301.466103</ele>
        <time>2021-11-18T20:03:36.852Z</time>
      </trkpt>
      <trkpt lat="47.545645" lon="7.797258">
        <ele>301.464224</ele>
        <time>2021-11-18T20:03:37.345Z</time>
      </trkpt>
      <trkpt lat="47.545670" lon="7.797142">
        <ele>301.459932</ele>
        <time>2021-11-18T20:03:38.908Z</time>
      </trkpt>
      <trkpt lat="47.545689" lon="7.797076">
        <ele>301.457403</ele>
        <time>2021-11-18T20:03:39.812Z</time>
      </trkpt>
      <trkpt lat="47.545728" lon="7.796950">
        <ele>301.452517</ele>
        <time>2021-11-18T20:03:42.520Z</time>
      </trkpt>
      <trkpt lat="47.545771" lon="7.796807">
        <ele>301.446999</ele>
        <time>2021-11-18T20:03:44.840Z</time>
      </trkpt>
      <trkpt lat="47.545788" lon="7.796748">
        <ele>301.444738</ele>
        <time>2021-11-18T20:03:45.494Z</time>
      </trkpt>
      <trkpt lat="47.545889" lon="7.796500">
        <ele>301.434529</ele>
        <time>2021-11-18T20:03:49.778Z</time>
      </trkpt>
      <trkpt lat="47.546038" lon="7.796107">
        <ele>301.509873</ele>
        <time>2021-11-18T20:03:55.341Z</time>
      </trkpt>
      <trkpt lat="47.546105" lon="7.795928">
        <ele>301.563411</ele>
        <time>2021-11-18T20:03:58.877Z</time>
      </trkpt>
      <trkpt lat="47.546154" lon="7.795747">
        <ele>301.614420</ele>
        <time>2021-11-18T20:04:01.187Z</time>
      </trkpt>
      <trkpt lat="47.546170" lon="7.795612">
        <ele>301.650272</ele>
        <time>2021-11-18T20:04:03.095Z</time>
      </trkpt>
      <trkpt lat="47.546165" lon="7.795511">
        <ele>301.676762</ele>
        <time>2021-11-18T20:04:05.116Z</time>
      </trkpt>
      <trkpt lat="47.546019" lon="7.795020">
        <ele>301.817101</ele>
        <time>2021-11-18T20:04:12.875Z</time>
      </trkpt>
      <trkpt lat="47.545947" lon="7.794710">
        <ele>301.902853</ele>
        <time>2021-11-18T20:04:17.916Z</time>
      </trkpt>
      <trkpt lat="47.545921" lon="7.794468">
        <ele>301.966950</ele>
        <time>2021-11-18T20:04:22.031Z</time>
      </trkpt>
      <trkpt lat="47.545931" lon="7.794295">
        <ele>302.012367</ele>
        <time>2021-11-18T20:04:24.723Z</time>
      </trkpt>
      <trkpt lat="47.545969" lon="7.793663">
        <ele>302.064993</ele>
        <time>2021-11-18T20:04:34.548Z</time>
      </trkpt>
      <trkpt lat="47.546027" lon="7.793254">
        <ele>301.935418</ele>
        <time>2021-11-18T20:04:40.974Z</time>
      </trkpt>
      <trkpt lat="47.546253" lon="7.791998">
        <ele>301.532410</ele>
        <time>2021-11-18T20:04:57.177Z</time>
      </trkpt>
      <trkpt lat="47.546475" lon="7.790377">
        <ele>300.745890</ele>
        <time>2021-11-18T20:05:15.744Z</time>
      </trkpt>
      <trkpt lat="47.546673" lon="7.788921">
        <ele>299.836421</ele>
        <time>2021-11-18T20:05:33.555Z</time>
      </trkpt>
      <trkpt lat="47.546695" lon="7.788763">
        <ele>299.737636</ele>
        <time>2021-11-18T20:05:35.468Z</time>
      </trkpt>
      <trkpt lat="47.546793" lon="7.787972">
        <ele>299.890008</ele>
        <time>2021-11-18T20:05:45.741Z</time>
      </trkpt>
      <trkpt lat="47.546897" lon="7.787133">
        <ele>300.163074</ele>
        <time>2021-11-18T20:05:56.926Z</time>
      </trkpt>
      <trkpt lat="47.546959" lon="7.786598">
        <ele>300.336840</ele>
        <time>2021-11-18T20:06:04.567Z</time>
      </trkpt>
      <trkpt lat="47.546952" lon="7.786540">
        <ele>300.355701</ele>
        <time>2021-11-18T20:06:05.526Z</time>
      </trkpt>
      <trkpt lat="47.546913" lon="7.786470">
        <ele>300.384756</ele>
        <time>2021-11-18T20:06:07.310Z</time>
      </trkpt>
      <trkpt lat="47.546526" lon="7.786353">
        <ele>301.086981</ele>
        <time>2021-11-18T20:06:18.706Z</time>
      </trkpt>
      <trkpt lat="47.546464" lon="7.786335">
        <ele>301.422889</ele>
        <time>2021-11-18T20:06:20.509Z</time>
      </trkpt>
      <trkpt lat="47.546417" lon="7.786331">
        <ele>301.673188</ele>
        <time>2021-11-18T20:06:21.746Z</time>
      </trkpt>
      <trkpt lat="47.546102" lon="7.786217">
        <ele>303.397208</ele>
        <time>2021-11-18T20:06:33.293Z</time>
      </trkpt>
      <trkpt lat="47.545856" lon="7.785973">
        <ele>304.971197</ele>
        <time>2021-11-18T20:06:45.446Z</time>
      </trkpt>
      <trkpt lat="47.545672" lon="7.785654">
        <ele>306.477074</ele>
        <time>2021-11-18T20:06:56.773Z</time>
      </trkpt>
      <trkpt lat="47.545624" lon="7.785548">
        <ele>306.935161</ele>
        <time>2021-11-18T20:07:03.438Z</time>
      </trkpt>
      <trkpt lat="47.545250" lon="7.784778">
        <ele>310.217612</ele>
        <time>2021-11-18T20:07:34.964Z</time>
      </trkpt>
      <trkpt lat="47.545240" lon="7.784746">
        <ele>310.283627</ele>
        <time>2021-11-18T20:07:37.643Z</time>
      </trkpt>
      <trkpt lat="47.545054" lon="7.784227">
        <ele>311.383680</ele>
        <time>2021-11-18T20:07:55.793Z</time>
      </trkpt>
      <trkpt lat="47.544950" lon="7.784008">
        <ele>311.884960</ele>
        <time>2021-11-18T20:08:02.123Z</time>
      </trkpt>
      <trkpt lat="47.544627" lon="7.783499">
        <ele>313.192809</ele>
        <time>2021-11-18T20:08:17.987Z</time>
      </trkpt>
      <trkpt lat="47.544555" lon="7.783372">
        <ele>313.503295</ele>
        <time>2021-11-18T20:08:20.063Z</time>
      </trkpt>
      <trkpt lat="47.544490" lon="7.783060">
        <ele>314.114574</ele>
        <time>2021-11-18T20:08:24.809Z</time>
      </trkpt>
      <trkpt lat="47.544474" lon="7.782623">
        <ele>314.933881</ele>
        <time>2021-11-18T20:08:29.817Z</time>
      </trkpt>
      <trkpt lat="47.544469" lon="7.782455">
        <ele>314.723347</ele>
        <time>2021-11-18T20:08:31.116Z</time>
      </trkpt>
      <trkpt lat="47.544461" lon="7.782254">
        <ele>313.973702</ele>
        <time>2021-11-18T20:08:32.381Z</time>
      </trkpt>
      <trkpt lat="47.544100" lon="7.779438">
        <ele>303.766832</ele>
        <time>2021-11-18T20:08:49.870Z</time>
      </trkpt>
      <trkpt lat="47.543933" lon="7.778374">
        <ele>300.721444</ele>
        <time>2021-11-18T20:08:56.941Z</time>
      </trkpt>
      <trkpt lat="47.543707" lon="7.777394">
        <ele>297.834315</ele>
        <time>2021-11-18T20:09:04.161Z</time>
      </trkpt>
      <trkpt lat="47.543527" lon="7.776532">
        <ele>297.266370</ele>
        <time>2021-11-18T20:09:11.305Z</time>
      </trkpt>
      <trkpt lat="47.543482" lon="7.776095">
        <ele>297.031882</ele>
        <time>2021-11-18T20:09:15.181Z</time>
      </trkpt>
      <trkpt lat="47.543449" lon="7.775478">
        <ele>296.703570</ele>
        <time>2021-11-18T20:09:20.924Z</time>
      </trkpt>
      <trkpt lat="47.543402" lon="7.775016">
        <ele>296.455735</ele>
        <time>2021-11-18T20:09:25.593Z</time>
      </trkpt>
      <trkpt lat="47.543350" lon="7.774507">
        <ele>296.283699</ele>
        <time>2021-11-18T20:09:30.831Z</time>
      </trkpt>
      <trkpt lat="47.543145" lon="7.773277">
        <ele>296.142366</ele>
        <time>2021-11-18T20:09:43.730Z</time>
      </trkpt>
      <trkpt lat="47.543108" lon="7.773069">
        <ele>296.118371</ele>
        <time>2021-11-18T20:09:45.910Z</time>
      </trkpt>
      <trkpt lat="47.542720" lon="7.770771">
        <ele>295.674885</ele>
        <time>2021-11-18T20:10:07.132Z</time>
      </trkpt>
      <trkpt lat="47.542450" lon="7.769311">
        <ele>295.765534</ele>
        <time>2021-11-18T20:10:21.104Z</time>
      </trkpt>
      <trkpt lat="47.542317" lon="7.768533">
        <ele>296.878761</ele>
        <time>2021-11-18T20:10:29.478Z</time>
      </trkpt>
      <trkpt lat="47.541697" lon="7.765479">
        <ele>305.050501</ele>
        <time>2021-11-18T20:11:31.743Z</time>
      </trkpt>
      <trkpt lat="47.541552" lon="7.764869">
        <ele>307.458752</ele>
        <time>2021-11-18T20:11:51.483Z</time>
      </trkpt>
      <trkpt lat="47.541443" lon="7.764512">
        <ele>308.917818</ele>
        <time>2021-11-18T20:12:05.334Z</time>
      </trkpt>
      <trkpt lat="47.541364" lon="7.764150">
        <ele>311.297881</ele>
        <time>2021-11-18T20:12:16.301Z</time>
      </trkpt>
      <trkpt lat="47.541377" lon="7.764045">
        <ele>311.982233</ele>
        <time>2021-11-18T20:12:20.864Z</time>
      </trkpt>
      <trkpt lat="47.541334" lon="7.764020">
        <ele>312.420908</ele>
        <time>2021-11-18T20:12:25.707Z</time>
      </trkpt>
      <trkpt lat="47.541219" lon="7.763853">
        <ele>313.950237</ele>
        <time>2021-11-18T20:12:32.295Z</time>
      </trkpt>
      <trkpt lat="47.541023" lon="7.762922">
        <ele>320.202135</ele>
        <time>2021-11-18T20:13:10.627Z</time>
      </trkpt>
      <trkpt lat="47.541004" lon="7.762306">
        <ele>324.155275</ele>
        <time>2021-11-18T20:13:33.446Z</time>
      </trkpt>
      <trkpt lat="47.540921" lon="7.761599">
        <ele>327.705996</ele>
        <time>2021-11-18T20:13:58.115Z</time>
      </trkpt>
      <trkpt lat="47.540567" lon="7.759901">
        <ele>334.628826</ele>
        <time>2021-11-18T20:14:42.788Z</time>
      </trkpt>
      <trkpt lat="47.540447" lon="7.759585">
        <ele>336.041214</ele>
        <time>2021-11-18T20:14:50.371Z</time>
      </trkpt>
      <trkpt lat="47.539949" lon="7.758688">
        <ele>336.267670</ele>
        <time>2021-11-18T20:15:08.616Z</time>
      </trkpt>
      <trkpt lat="47.539722" lon="7.758107">
        <ele>336.145525</ele>
        <time>2021-11-18T20:15:14.906Z</time>
      </trkpt>
      <trkpt lat="47.539595" lon="7.757548">
        <ele>336.038207</ele>
        <time>2021-11-18T20:15:19.299Z</time>
      </trkpt>
      <trkpt lat="47.539346" lon="7.755736">
        <ele>330.616803</ele>
        <time>2021-11-18T20:15:31.043Z</time>
      </trkpt>
      <trkpt lat="47.539230" lon="7.755294">
        <ele>328.922821</ele>
        <time>2021-11-18T20:15:33.935Z</time>
      </trkpt>
      <trkpt lat="47.539079" lon="7.754976">
        <ele>327.534033</ele>
        <time>2021-11-18T20:15:36.326Z</time>
      </trkpt>
      <trkpt lat="47.538792" lon="7.754549">
        <ele>325.771306</ele>
        <time>2021-11-18T20:15:40.060Z</time>
      </trkpt>
      <trkpt lat="47.538723" lon="7.754445">
        <ele>325.439094</ele>
        <time>2021-11-18T20:15:40.958Z</time>
      </trkpt>
      <trkpt lat="47.538494" lon="7.754103">
        <ele>324.341656</ele>
        <time>2021-11-18T20:15:44.118Z</time>
      </trkpt>
      <trkpt lat="47.538359" lon="7.753900">
        <ele>323.692451</ele>
        <time>2021-11-18T20:15:46.020Z</time>
      </trkpt>
      <trkpt lat="47.538052" lon="7.753460">
        <ele>322.250810</ele>
        <time>2021-11-18T20:15:50.427Z</time>
      </trkpt>
      <trkpt lat="47.537715" lon="7.753194">
        <ele>320.962119</ele>
        <time>2021-11-18T20:15:54.545Z</time>
      </trkpt>
      <trkpt lat="47.537564" lon="7.753073">
        <ele>320.386752</ele>
        <time>2021-11-18T20:15:56.447Z</time>
      </trkpt>
      <trkpt lat="47.537371" lon="7.752851">
        <ele>320.271840</ele>
        <time>2021-11-18T20:15:59.884Z</time>
      </trkpt>
      <trkpt lat="47.537134" lon="7.752309">
        <ele>320.066825</ele>
        <time>2021-11-18T20:16:06.172Z</time>
      </trkpt>
      <trkpt lat="47.535912" lon="7.749669">
        <ele>319.232872</ele>
        <time>2021-11-18T20:16:36.352Z</time>
      </trkpt>
      <trkpt lat="47.534874" lon="7.746551">
        <ele>318.564229</ele>
        <time>2021-11-18T20:17:08.202Z</time>
      </trkpt>
      <trkpt lat="47.534429" lon="7.744856">
        <ele>318.697363</ele>
        <time>2021-11-18T20:17:27.077Z</time>
      </trkpt>
      <trkpt lat="47.534370" lon="7.744709">
        <ele>318.718926</ele>
        <time>2021-11-18T20:17:28.705Z</time>
      </trkpt>
      <trkpt lat="47.534179" lon="7.744495">
        <ele>318.763653</ele>
        <time>2021-11-18T20:17:32.533Z</time>
      </trkpt>
      <trkpt lat="47.534097" lon="7.744343">
        <ele>318.788186</ele>
        <time>2021-11-18T20:17:34.504Z</time>
      </trkpt>
      <trkpt lat="47.534043" lon="7.744207">
        <ele>318.808080</ele>
        <time>2021-11-18T20:17:36.255Z</time>
      </trkpt>
      <trkpt lat="47.533870" lon="7.743466">
        <ele>318.684044</ele>
        <time>2021-11-18T20:17:45.057Z</time>
      </trkpt>
      <trkpt lat="47.533727" lon="7.742204">
        <ele>318.287595</ele>
        <time>2021-11-18T20:18:01.279Z</time>
      </trkpt>
      <trkpt lat="47.533707" lon="7.742025">
        <ele>318.231384</ele>
        <time>2021-11-18T20:18:03.628Z</time>
      </trkpt>
      <trkpt lat="47.533352" lon="7.740430">
        <ele>313.954486</ele>
        <time>2021-11-18T20:18:15.003Z</time>
      </trkpt>
      <trkpt lat="47.533191" lon="7.739816">
        <ele>311.245520</ele>
        <time>2021-11-18T20:18:19.012Z</time>
      </trkpt>
      <trkpt lat="47.533226" lon="7.739781">
        <ele>310.988275</ele>
        <time>2021-11-18T20:18:19.364Z</time>
      </trkpt>
      <trkpt lat="47.533446" lon="7.739598">
        <ele>309.451276</ele>
        <time>2021-11-18T20:18:21.609Z</time>
      </trkpt>
      <trkpt lat="47.534011" lon="7.739126">
        <ele>305.338913</ele>
        <time>2021-11-18T20:18:27.286Z</time>
      </trkpt>
      <trkpt lat="47.534755" lon="7.738529">
        <ele>299.652886</ele>
        <time>2021-11-18T20:18:34.693Z</time>
      </trkpt>
      <trkpt lat="47.535216" lon="7.738157">
        <ele>296.125183</ele>
        <time>2021-11-18T20:18:39.525Z</time>
      </trkpt>
      <trkpt lat="47.534765" lon="7.736911">
        <ele>294.573429</ele>
        <time>2021-11-18T20:18:50.674Z</time>
      </trkpt>
      <trkpt lat="47.534670" lon="7.736644">
        <ele>294.469134</ele>
        <time>2021-11-18T20:18:54.160Z</time>
      </trkpt>
      <trkpt lat="47.534450" lon="7.736026">
        <ele>294.227706</ele>
        <time>2021-11-18T20:19:02.490Z</time>
      </trkpt>
      <trkpt lat="47.534301" lon="7.735625">
        <ele>294.069533</ele>
        <time>2021-11-18T20:19:08.340Z</time>
      </trkpt>
      <trkpt lat="47.534111" lon="7.735130">
        <ele>294.308302</ele>
        <time>2021-11-18T20:19:15.776Z</time>
      </trkpt>
      <trkpt lat="47.533860" lon="7.734479">
        <ele>294.672848</ele>
        <time>2021-11-18T20:19:25.253Z</time>
      </trkpt>
      <trkpt lat="47.533685" lon="7.734026">
        <ele>294.926641</ele>
        <time>2021-11-18T20:19:31.483Z</time>
      </trkpt>
      <trkpt lat="47.533577" lon="7.733712">
        <ele>295.098004</ele>
        <time>2021-11-18T20:19:35.554Z</time>
      </trkpt>
      <trkpt lat="47.533436" lon="7.733399">
        <ele>295.280977</ele>
        <time>2021-11-18T20:19:39.622Z</time>
      </trkpt>
      <trkpt lat="47.533324" lon="7.733190">
        <ele>295.343167</ele>
        <time>2021-11-18T20:19:42.717Z</time>
      </trkpt>
      <trkpt lat="47.533220" lon="7.733022">
        <ele>295.332388</ele>
        <time>2021-11-18T20:19:44.960Z</time>
      </trkpt>
      <trkpt lat="47.532961" lon="7.732599">
        <ele>295.305386</ele>
        <time>2021-11-18T20:19:50.840Z</time>
      </trkpt>
      <trkpt lat="47.532853" lon="7.732416">
        <ele>295.293892</ele>
        <time>2021-11-18T20:19:53.435Z</time>
      </trkpt>
      <trkpt lat="47.532776" lon="7.732283">
        <ele>295.285608</ele>
        <time>2021-11-18T20:19:55.055Z</time>
      </trkpt>
      <trkpt lat="47.532665" lon="7.732105">
        <ele>295.274150</ele>
        <time>2021-11-18T20:19:57.351Z</time>
      </trkpt>
      <trkpt lat="47.532473" lon="7.731703">
        <ele>295.250865</ele>
        <time>2021-11-18T20:20:01.820Z</time>
      </trkpt>
      <trkpt lat="47.532405" lon="7.731493">
        <ele>295.239851</ele>
        <time>2021-11-18T20:20:04.029Z</time>
      </trkpt>
      <trkpt lat="47.532193" lon="7.730459">
        <ele>295.280905</ele>
        <time>2021-11-18T20:20:13.904Z</time>
      </trkpt>
      <trkpt lat="47.531944" lon="7.728603">
        <ele>295.430921</ele>
        <time>2021-11-18T20:20:34.466Z</time>
      </trkpt>
      <trkpt lat="47.531815" lon="7.728165">
        <ele>295.593627</ele>
        <time>2021-11-18T20:20:39.744Z</time>
      </trkpt>
      <trkpt lat="47.531623" lon="7.727725">
        <ele>295.785736</ele>
        <time>2021-11-18T20:20:45.582Z</time>
      </trkpt>
      <trkpt lat="47.531296" lon="7.727089">
        <ele>296.078876</ele>
        <time>2021-11-18T20:20:54.827Z</time>
      </trkpt>
      <trkpt lat="47.531193" lon="7.726888">
        <ele>296.171406</ele>
        <time>2021-11-18T20:20:57.326Z</time>
      </trkpt>
      <trkpt lat="47.531031" lon="7.726569">
        <ele>296.317778</ele>
        <time>2021-11-18T20:21:02.164Z</time>
      </trkpt>
      <trkpt lat="47.530756" lon="7.726844">
        <ele>296.554775</ele>
        <time>2021-11-18T20:21:08.248Z</time>
      </trkpt>
      <trkpt lat="47.530372" lon="7.727161">
        <ele>296.949808</ele>
        <time>2021-11-18T20:21:16.496Z</time>
      </trkpt>
      <trkpt lat="47.529976" lon="7.727410">
        <ele>297.336386</ele>
        <time>2021-11-18T20:21:24.385Z</time>
      </trkpt>
      <trkpt lat="47.529269" lon="7.727844">
        <ele>298.024087</ele>
        <time>2021-11-18T20:21:38.967Z</time>
      </trkpt>
      <trkpt lat="47.528941" lon="7.728048">
        <ele>298.082368</ele>
        <time>2021-11-18T20:21:45.430Z</time>
      </trkpt>
      <trkpt lat="47.528848" lon="7.728118">
        <ele>298.098646</ele>
        <time>2021-11-18T20:21:47.255Z</time>
      </trkpt>
      <trkpt lat="47.528803" lon="7.728159">
        <ele>298.106890</ele>
        <time>2021-11-18T20:21:48.103Z</time>
      </trkpt>
      <trkpt lat="47.528746" lon="7.728265">
        <ele>298.121167</ele>
        <time>2021-11-18T20:21:49.630Z</time>
      </trkpt>
      <trkpt lat="47.528715" lon="7.728334">
        <ele>298.129899</ele>
        <time>2021-11-18T20:21:50.534Z</time>
      </trkpt>
      <trkpt lat="47.528688" lon="7.728441">
        <ele>298.141934</ele>
        <time>2021-11-18T20:21:51.859Z</time>
      </trkpt>
      <trkpt lat="47.528614" lon="7.728431">
        <ele>298.153529</ele>
        <time>2021-11-18T20:21:53.083Z</time>
      </trkpt>
      <trkpt lat="47.528552" lon="7.728411">
        <ele>298.163430</ele>
        <time>2021-11-18T20:21:54.068Z</time>
      </trkpt>
      <trkpt lat="47.528408" lon="7.728307">
        <ele>298.188428</ele>
        <time>2021-11-18T20:21:56.568Z</time>
      </trkpt>
      <trkpt lat="47.528320" lon="7.728136">
        <ele>298.211081</ele>
        <time>2021-11-18T20:21:58.735Z</time>
      </trkpt>
      <trkpt lat="47.528164" lon="7.727824">
        <ele>298.251985</ele>
        <time>2021-11-18T20:22:02.380Z</time>
      </trkpt>
      <trkpt lat="47.528065" lon="7.727556">
        <ele>298.284170</ele>
        <time>2021-11-18T20:22:05.048Z</time>
      </trkpt>
      <trkpt lat="47.528009" lon="7.727429">
        <ele>298.300152</ele>
        <time>2021-11-18T20:22:06.371Z</time>
      </trkpt>
      <trkpt lat="47.527862" lon="7.727114">
        <ele>298.238964</ele>
        <time>2021-11-18T20:22:09.542Z</time>
      </trkpt>
      <trkpt lat="47.526894" lon="7.725042">
        <ele>297.833911</ele>
        <time>2021-11-18T20:22:32.333Z</time>
      </trkpt>
      <trkpt lat="47.526744" lon="7.724750">
        <ele>298.113766</ele>
        <time>2021-11-18T20:22:36.985Z</time>
      </trkpt>
      <trkpt lat="47.526099" lon="7.723563">
        <ele>299.275934</ele>
        <time>2021-11-18T20:22:58.122Z</time>
      </trkpt>
      <trkpt lat="47.525373" lon="7.722545">
        <ele>299.642226</ele>
        <time>2021-11-18T20:23:19.352Z</time>
      </trkpt>
      <trkpt lat="47.525258" lon="7.722384">
        <ele>299.615626</ele>
        <time>2021-11-18T20:23:22.140Z</time>
      </trkpt>
      <trkpt lat="47.524884" lon="7.722022">
        <ele>299.540526</ele>
        <time>2021-11-18T20:23:29.344Z</time>
      </trkpt>
      <trkpt lat="47.524632" lon="7.721805">
        <ele>299.491529</ele>
        <time>2021-11-18T20:23:33.022Z</time>
      </trkpt>
      <trkpt lat="47.524263" lon="7.721598">
        <ele>299.004633</ele>
        <time>2021-11-18T20:23:37.279Z</time>
      </trkpt>
      <trkpt lat="47.523902" lon="7.721670">
        <ele>297.041562</ele>
        <time>2021-11-18T20:23:40.827Z</time>
      </trkpt>
      <trkpt lat="47.523671" lon="7.721634">
        <ele>295.789779</ele>
        <time>2021-11-18T20:23:42.971Z</time>
      </trkpt>
      <trkpt lat="47.523300" lon="7.721328">
        <ele>293.501170</ele>
        <time>2021-11-18T20:23:46.901Z</time>
      </trkpt>
      <trkpt lat="47.523111" lon="7.721224">
        <ele>292.414561</ele>
        <time>2021-11-18T20:23:48.680Z</time>
      </trkpt>
      <trkpt lat="47.522888" lon="7.721170">
        <ele>291.196805</ele>
        <time>2021-11-18T20:23:50.778Z</time>
      </trkpt>
      <trkpt lat="47.522682" lon="7.721170">
        <ele>290.086627</ele>
        <time>2021-11-18T20:23:52.599Z</time>
      </trkpt>
      <trkpt lat="47.522498" lon="7.721207">
        <ele>289.117246</ele>
        <time>2021-11-18T20:23:54.293Z</time>
      </trkpt>
      <trkpt lat="47.522249" lon="7.721165">
        <ele>287.830820</ele>
        <time>2021-11-18T20:23:56.546Z</time>
      </trkpt>
      <trkpt lat="47.521984" lon="7.721168">
        <ele>286.470488</ele>
        <time>2021-11-18T20:23:58.902Z</time>
      </trkpt>
      <trkpt lat="47.521846" lon="7.721211">
        <ele>285.746596</ele>
        <time>2021-11-18T20:24:00.240Z</time>
      </trkpt>
      <trkpt lat="47.521722" lon="7.721283">
        <ele>285.062898</ele>
        <time>2021-11-18T20:24:01.411Z</time>
      </trkpt>
      <trkpt lat="47.521455" lon="7.721426">
        <ele>283.605448</ele>
        <time>2021-11-18T20:24:04.116Z</time>
      </trkpt>
      <trkpt lat="47.521121" lon="7.721544">
        <ele>281.842846</ele>
        <time>2021-11-18T20:24:07.418Z</time>
      </trkpt>
      <trkpt lat="47.520760" lon="7.721667">
        <ele>280.448650</ele>
        <time>2021-11-18T20:24:11.284Z</time>
      </trkpt>
      <trkpt lat="47.519305" lon="7.722165">
        <ele>279.589079</ele>
        <time>2021-11-18T20:24:31.832Z</time>
      </trkpt>
      <trkpt lat="47.518237" lon="7.722578">
        <ele>280.525556</ele>
        <time>2021-11-18T20:24:52.414Z</time>
      </trkpt>
      <trkpt lat="47.518038" lon="7.722700">
        <ele>280.773671</ele>
        <time>2021-11-18T20:24:56.506Z</time>
      </trkpt>
      <trkpt lat="47.517885" lon="7.722793">
        <ele>280.964196</ele>
        <time>2021-11-18T20:24:59.986Z</time>
      </trkpt>
      <trkpt lat="47.517269" lon="7.723372">
        <ele>282.014993</ele>
        <time>2021-11-18T20:25:15.405Z</time>
      </trkpt>
      <trkpt lat="47.516416" lon="7.724623">
        <ele>284.537249</ele>
        <time>2021-11-18T20:25:43.366Z</time>
      </trkpt>
      <trkpt lat="47.515959" lon="7.725102">
        <ele>285.667405</ele>
        <time>2021-11-18T20:25:57.061Z</time>
      </trkpt>
      <trkpt lat="47.515697" lon="7.725255">
        <ele>286.188280</ele>
        <time>2021-11-18T20:26:04.051Z</time>
      </trkpt>
      <trkpt lat="47.515140" lon="7.725368">
        <ele>287.228034</ele>
        <time>2021-11-18T20:26:18.801Z</time>
      </trkpt>
      <trkpt lat="47.514143" lon="7.725538">
        <ele>288.489735</ele>
        <time>2021-11-18T20:26:38.613Z</time>
      </trkpt>
      <trkpt lat="47.513681" lon="7.725617">
        <ele>288.159833</ele>
        <time>2021-11-18T20:26:43.988Z</time>
      </trkpt>
      <trkpt lat="47.513538" lon="7.725582">
        <ele>288.057018</ele>
        <time>2021-11-18T20:26:45.993Z</time>
      </trkpt>
      <trkpt lat="47.513232" lon="7.725318">
        <ele>287.805790</ele>
        <time>2021-11-18T20:26:50.155Z</time>
      </trkpt>
      <trkpt lat="47.513193" lon="7.725244">
        <ele>287.760819</ele>
        <time>2021-11-18T20:26:50.952Z</time>
      </trkpt>
      <trkpt lat="47.513150" lon="7.725105">
        <ele>287.687569</ele>
        <time>2021-11-18T20:26:51.979Z</time>
      </trkpt>
      <trkpt lat="47.513078" lon="7.724821">
        <ele>287.542231</ele>
        <time>2021-11-18T20:26:56.221Z</time>
      </trkpt>
      <trkpt lat="47.512976" lon="7.724418">
        <ele>287.312776</ele>
        <time>2021-11-18T20:26:59.599Z</time>
      </trkpt>
      <trkpt lat="47.512910" lon="7.724174">
        <ele>287.118069</ele>
        <time>2021-11-18T20:27:01.748Z</time>
      </trkpt>
      <trkpt lat="47.512888" lon="7.724074">
        <ele>287.040161</ele>
        <time>2021-11-18T20:27:02.486Z</time>
      </trkpt>
      <trkpt lat="47.512857" lon="7.723931">
        <ele>286.928906</ele>
        <time>2021-11-18T20:27:03.667Z</time>
      </trkpt>
      <trkpt lat="47.512277" lon="7.724501">
        <ele>286.165397</ele>
        <time>2021-11-18T20:27:14.321Z</time>
      </trkpt>
      <trkpt lat="47.512214" lon="7.724543">
        <ele>286.089618</ele>
        <time>2021-11-18T20:27:16.228Z</time>
      </trkpt>
      <trkpt lat="47.511979" lon="7.724618">
        <ele>285.825958</ele>
        <time>2021-11-18T20:27:20.267Z</time>
      </trkpt>
      <trkpt lat="47.511791" lon="7.724622">
        <ele>285.619745</ele>
        <time>2021-11-18T20:27:24.033Z</time>
      </trkpt>
      <trkpt lat="47.511606" lon="7.724590">
        <ele>285.415464</ele>
        <time>2021-11-18T20:27:28.008Z</time>
      </trkpt>
      <trkpt lat="47.510952" lon="7.724263">
        <ele>285.368754</ele>
        <time>2021-11-18T20:27:43.866Z</time>
      </trkpt>
      <trkpt lat="47.510349" lon="7.724011">
        <ele>285.334576</ele>
        <time>2021-11-18T20:27:55.398Z</time>
      </trkpt>
      <trkpt lat="47.509849" lon="7.723882">
        <ele>285.321748</ele>
        <time>2021-11-18T20:28:05.036Z</time>
      </trkpt>
      <trkpt lat="47.509672" lon="7.723906">
        <ele>285.466870</ele>
        <time>2021-11-18T20:28:08.617Z</time>
      </trkpt>
      <trkpt lat="47.509150" lon="7.724070">
        <ele>285.902563</ele>
        <time>2021-11-18T20:28:17.857Z</time>
      </trkpt>
      <trkpt lat="47.508823" lon="7.724215">
        <ele>286.181270</ele>
        <time>2021-11-18T20:28:24.280Z</time>
      </trkpt>
      <trkpt lat="47.508629" lon="7.724301">
        <ele>286.346616</ele>
        <time>2021-11-18T20:28:28.067Z</time>
      </trkpt>
      <trkpt lat="47.508425" lon="7.724317">
        <ele>286.513411</ele>
        <time>2021-11-18T20:28:33.411Z</time>
      </trkpt>
      <trkpt lat="47.508175" lon="7.724311">
        <ele>286.717557</ele>
        <time>2021-11-18T20:28:39.701Z</time>
      </trkpt>
      <trkpt lat="47.507810" lon="7.724326">
        <ele>287.319653</ele>
        <time>2021-11-18T20:28:49.225Z</time>
      </trkpt>
      <trkpt lat="47.507444" lon="7.724343">
        <ele>287.998382</ele>
        <time>2021-11-18T20:28:58.885Z</time>
      </trkpt>
      <trkpt lat="47.507064" lon="7.724278">
        <ele>288.707413</ele>
        <time>2021-11-18T20:29:09.393Z</time>
      </trkpt>
      <trkpt lat="47.506945" lon="7.724261">
        <ele>288.929009</ele>
        <time>2021-11-18T20:29:12.781Z</time>
      </trkpt>
      <trkpt lat="47.506921" lon="7.724257">
        <ele>288.973775</ele>
        <time>2021-11-18T20:29:13.451Z</time>
      </trkpt>
      <trkpt lat="47.506607" lon="7.724268">
        <ele>289.555949</ele>
        <time>2021-11-18T20:29:22.236Z</time>
      </trkpt>
      <trkpt lat="47.506453" lon="7.724284">
        <ele>289.842096</ele>
        <time>2021-11-18T20:29:26.936Z</time>
      </trkpt>
      <trkpt lat="47.505930" lon="7.724337">
        <ele>290.899060</ele>
        <time>2021-11-18T20:29:42.771Z</time>
      </trkpt>
      <trkpt lat="47.505891" lon="7.724339">
        <ele>290.980160</ele>
        <time>2021-11-18T20:29:43.955Z</time>
      </trkpt>
      <trkpt lat="47.505851" lon="7.724341">
        <ele>291.063338</ele>
        <time>2021-11-18T20:29:45.168Z</time>
      </trkpt>
      <trkpt lat="47.505783" lon="7.724344">
        <ele>291.204722</ele>
        <time>2021-11-18T20:29:47.114Z</time>
      </trkpt>
      <trkpt lat="47.505646" lon="7.724350">
        <ele>291.489568</ele>
        <time>2021-11-18T20:29:51.435Z</time>
      </trkpt>
      <trkpt lat="47.505365" lon="7.724317">
        <ele>292.075392</ele>
        <time>2021-11-18T20:29:59.917Z</time>
      </trkpt>
      <trkpt lat="47.505161" lon="7.724267">
        <ele>292.505128</ele>
        <time>2021-11-18T20:30:05.463Z</time>
      </trkpt>
      <trkpt lat="47.505073" lon="7.724246">
        <ele>292.690375</ele>
        <time>2021-11-18T20:30:07.886Z</time>
      </trkpt>
      <trkpt lat="47.505012" lon="7.724231">
        <ele>292.818886</ele>
        <time>2021-11-18T20:30:10.075Z</time>
      </trkpt>
      <trkpt lat="47.504856" lon="7.724220">
        <ele>293.143461</ele>
        <time>2021-11-18T20:30:14.200Z</time>
      </trkpt>
      <trkpt lat="47.504610" lon="7.724250">
        <ele>293.656444</ele>
        <time>2021-11-18T20:30:21.104Z</time>
      </trkpt>
      <trkpt lat="47.504514" lon="7.724269">
        <ele>293.850471</ele>
        <time>2021-11-18T20:30:23.474Z</time>
      </trkpt>
      <trkpt lat="47.504396" lon="7.724291">
        <ele>293.908004</ele>
        <time>2021-11-18T20:30:26.408Z</time>
      </trkpt>
      <trkpt lat="47.504048" lon="7.724357">
        <ele>294.077724</ele>
        <time>2021-11-18T20:30:35.279Z</time>
      </trkpt>
      <trkpt lat="47.503945" lon="7.724377">
        <ele>294.127977</ele>
        <time>2021-11-18T20:30:38.012Z</time>
      </trkpt>
      <trkpt lat="47.503494" lon="7.724462">
        <ele>294.347908</ele>
        <time>2021-11-18T20:30:48.373Z</time>
      </trkpt>
      <trkpt lat="47.503457" lon="7.724469">
        <ele>294.365952</ele>
        <time>2021-11-18T20:30:49.076Z</time>
      </trkpt>
      <trkpt lat="47.503333" lon="7.724502">
        <ele>294.426898</ele>
        <time>2021-11-18T20:30:51.566Z</time>
      </trkpt>
      <trkpt lat="47.503201" lon="7.724541">
        <ele>294.492013</ele>
        <time>2021-11-18T20:30:54.128Z</time>
      </trkpt>
      <trkpt lat="47.502794" lon="7.724635">
        <ele>294.691280</ele>
        <time>2021-11-18T20:31:01.554Z</time>
      </trkpt>
      <trkpt lat="47.502584" lon="7.724671">
        <ele>294.822611</ele>
        <time>2021-11-18T20:31:05.424Z</time>
      </trkpt>
      <trkpt lat="47.502283" lon="7.724703">
        <ele>295.025027</ele>
        <time>2021-11-18T20:31:11.083Z</time>
      </trkpt>
      <trkpt lat="47.502205" lon="7.724690">
        <ele>295.077677</ele>
        <time>2021-11-18T20:31:12.821Z</time>
      </trkpt>
      <trkpt lat="47.502179" lon="7.724686">
        <ele>295.095210</ele>
        <time>2021-11-18T20:31:13.403Z</time>
      </trkpt>
      <trkpt lat="47.502172" lon="7.724685">
        <ele>295.099927</ele>
        <time>2021-11-18T20:31:13.550Z</time>
      </trkpt>
      <trkpt lat="47.502055" lon="7.724669">
        <ele>295.178739</ele>
        <time>2021-11-18T20:31:16.293Z</time>
      </trkpt>
      <trkpt lat="47.502040" lon="7.724902">
        <ele>295.284798</ele>
        <time>2021-11-18T20:31:19.267Z</time>
      </trkpt>
      <trkpt lat="47.502029" lon="7.725074">
        <ele>295.363086</ele>
        <time>2021-11-18T20:31:21.204Z</time>
      </trkpt>
      <trkpt lat="47.502031" lon="7.725298">
        <ele>295.464597</ele>
        <time>2021-11-18T20:31:23.896Z</time>
      </trkpt>
      <trkpt lat="47.502031" lon="7.725427">
        <ele>295.523051</ele>
        <time>2021-11-18T20:31:25.854Z</time>
      </trkpt>
      <trkpt lat="47.502048" lon="7.725782">
        <ele>295.684318</ele>
        <time>2021-11-18T20:31:30.168Z</time>
      </trkpt>
      <trkpt lat="47.502115" lon="7.726246">
        <ele>295.899322</ele>
        <time>2021-11-18T20:31:37.179Z</time>
      </trkpt>
      <trkpt lat="47.502122" lon="7.726303">
        <ele>295.926867</ele>
        <time>2021-11-18T20:31:37.681Z</time>
      </trkpt>
      <trkpt lat="47.502177" lon="7.726706">
        <ele>296.424017</ele>
        <time>2021-11-18T20:31:44.076Z</time>
      </trkpt>
      <trkpt lat="47.502189" lon="7.726824">
        <ele>296.568309</ele>
        <time>2021-11-18T20:31:45.575Z</time>
      </trkpt>
      <trkpt lat="47.502204" lon="7.726964">
        <ele>296.739712</ele>
        <time>2021-11-18T20:31:48.189Z</time>
      </trkpt>
      <trkpt lat="47.502204" lon="7.726964">
        <ele>296.739712</ele>
        <time>2021-11-18T20:31:48.400Z</time>
      </trkpt>
      <trkpt lat="47.502204" lon="7.726964">
        <ele>296.739712</ele>
        <time>2021-11-18T20:31:48.481Z</time>
      </trkpt>
      <trkpt lat="47.502089" lon="7.726997">
        <ele>296.949383</ele>
        <time>2021-11-18T20:31:51.012Z</time>
      </trkpt>
      <trkpt lat="47.502070" lon="7.727002">
        <ele>296.983925</ele>
        <time>2021-11-18T20:31:51.422Z</time>
      </trkpt>
      <trkpt lat="47.501683" lon="7.727114">
        <ele>297.689734</ele>
        <time>2021-11-18T20:32:00.555Z</time>
      </trkpt>
      <trkpt lat="47.500808" lon="7.727366">
        <ele>299.196400</ele>
        <time>2021-11-18T20:32:21.177Z</time>
      </trkpt>
      <trkpt lat="47.499222" lon="7.727694">
        <ele>300.257016</ele>
        <time>2021-11-18T20:32:47.675Z</time>
      </trkpt>
      <trkpt lat="47.498171" lon="7.727736">
        <ele>300.827624</ele>
        <time>2021-11-18T20:33:04.727Z</time>
      </trkpt>
      <trkpt lat="47.496689" lon="7.727441">
        <ele>301.694120</ele>
        <time>2021-11-18T20:33:31.077Z</time>
      </trkpt>
      <trkpt lat="47.496367" lon="7.727420">
        <ele>301.903897</ele>
        <time>2021-11-18T20:33:36.942Z</time>
      </trkpt>
      <trkpt lat="47.496162" lon="7.727414">
        <ele>302.037347</ele>
        <time>2021-11-18T20:33:40.642Z</time>
      </trkpt>
      <trkpt lat="47.496039" lon="7.727411">
        <ele>302.117413</ele>
        <time>2021-11-18T20:33:42.770Z</time>
      </trkpt>
      <trkpt lat="47.495921" lon="7.727411">
        <ele>302.194213</ele>
        <time>2021-11-18T20:33:44.739Z</time>
      </trkpt>
      <trkpt lat="47.495777" lon="7.727410">
        <ele>302.287936</ele>
        <time>2021-11-18T20:33:47.321Z</time>
      </trkpt>
      <trkpt lat="47.495736" lon="7.727409">
        <ele>302.314625</ele>
        <time>2021-11-18T20:33:48.012Z</time>
      </trkpt>
      <trkpt lat="47.495388" lon="7.727405">
        <ele>302.502685</ele>
        <time>2021-11-18T20:33:53.881Z</time>
      </trkpt>
      <trkpt lat="47.493928" lon="7.727382">
        <ele>303.029055</ele>
        <time>2021-11-18T20:34:16.742Z</time>
      </trkpt>
      <trkpt lat="47.493736" lon="7.727441">
        <ele>303.099749</ele>
        <time>2021-11-18T20:34:20.074Z</time>
      </trkpt>
      <trkpt lat="47.493304" lon="7.727627">
        <ele>303.516967</ele>
        <time>2021-11-18T20:34:27.914Z</time>
      </trkpt>
      <trkpt lat="47.493051" lon="7.727844">
        <ele>303.791928</ele>
        <time>2021-11-18T20:34:33.437Z</time>
      </trkpt>
      <trkpt lat="47.492640" lon="7.728394">
        <ele>304.312953</ele>
        <time>2021-11-18T20:34:43.929Z</time>
      </trkpt>
      <trkpt lat="47.492253" lon="7.728955">
        <ele>304.830528</ele>
        <time>2021-11-18T20:34:54.456Z</time>
      </trkpt>
      <trkpt lat="47.492160" lon="7.729079">
        <ele>304.983083</ele>
        <time>2021-11-18T20:34:56.779Z</time>
      </trkpt>
      <trkpt lat="47.492018" lon="7.729265">
        <ele>305.214189</ele>
        <time>2021-11-18T20:35:00.762Z</time>
      </trkpt>
      <trkpt lat="47.491764" lon="7.729620">
        <ele>305.639966</ele>
        <time>2021-11-18T20:35:07.520Z</time>
      </trkpt>
      <trkpt lat="47.491749" lon="7.729641">
        <ele>305.665130</ele>
        <time>2021-11-18T20:35:08.282Z</time>
      </trkpt>
      <trkpt lat="47.491352" lon="7.730195">
        <ele>306.330132</ele>
        <time>2021-11-18T20:35:18.852Z</time>
      </trkpt>
      <trkpt lat="47.491274" lon="7.730304">
        <ele>306.460874</ele>
        <time>2021-11-18T20:35:21.123Z</time>
      </trkpt>
      <trkpt lat="47.491229" lon="7.730369">
        <ele>306.537509</ele>
        <time>2021-11-18T20:35:22.249Z</time>
      </trkpt>
      <trkpt lat="47.491189" lon="7.730425">
        <ele>306.604614</ele>
        <time>2021-11-18T20:35:23.280Z</time>
      </trkpt>
      <trkpt lat="47.491123" lon="7.730521">
        <ele>306.717396</ele>
        <time>2021-11-18T20:35:24.946Z</time>
      </trkpt>
      <trkpt lat="47.489972" lon="7.732312">
        <ele>309.069934</ele>
        <time>2021-11-18T20:35:58.312Z</time>
      </trkpt>
      <trkpt lat="47.489918" lon="7.732395">
        <ele>309.181854</ele>
        <time>2021-11-18T20:36:00.313Z</time>
      </trkpt>
      <trkpt lat="47.489032" lon="7.734791">
        <ele>312.448666</ele>
        <time>2021-11-18T20:36:41.863Z</time>
      </trkpt>
      <trkpt lat="47.488949" lon="7.734979">
        <ele>312.725975</ele>
        <time>2021-11-18T20:36:45.292Z</time>
      </trkpt>
      <trkpt lat="47.488804" lon="7.735382">
        <ele>312.976927</ele>
        <time>2021-11-18T20:36:51.649Z</time>
      </trkpt>
      <trkpt lat="47.488606" lon="7.735964">
        <ele>313.196925</ele>
        <time>2021-11-18T20:37:00.548Z</time>
      </trkpt>
      <trkpt lat="47.488046" lon="7.737266">
        <ele>313.718015</ele>
        <time>2021-11-18T20:37:16.504Z</time>
      </trkpt>
      <trkpt lat="47.487864" lon="7.737500">
        <ele>313.650937</ele>
        <time>2021-11-18T20:37:19.453Z</time>
      </trkpt>
      <trkpt lat="47.487621" lon="7.737779">
        <ele>313.446990</ele>
        <time>2021-11-18T20:37:23.446Z</time>
      </trkpt>
      <trkpt lat="47.487552" lon="7.737858">
        <ele>313.389140</ele>
        <time>2021-11-18T20:37:24.401Z</time>
      </trkpt>
      <trkpt lat="47.487288" lon="7.738117">
        <ele>313.179104</ele>
        <time>2021-11-18T20:37:28.360Z</time>
      </trkpt>
      <trkpt lat="47.486827" lon="7.738319">
        <ele>312.860291</ele>
        <time>2021-11-18T20:37:34.358Z</time>
      </trkpt>
      <trkpt lat="47.486689" lon="7.738358">
        <ele>312.767129</ele>
        <time>2021-11-18T20:37:36.105Z</time>
      </trkpt>
      <trkpt lat="47.486676" lon="7.738293">
        <ele>312.736753</ele>
        <time>2021-11-18T20:37:36.837Z</time>
      </trkpt>
      <trkpt lat="47.486621" lon="7.738169">
        <ele>312.670288</ele>
        <time>2021-11-18T20:37:37.975Z</time>
      </trkpt>
      <trkpt lat="47.486495" lon="7.737981">
        <ele>312.575759</ele>
        <time>2021-11-18T20:37:40.347Z</time>
      </trkpt>
      <trkpt lat="47.486384" lon="7.737805">
        <ele>312.659826</ele>
        <time>2021-11-18T20:37:42.433Z</time>
      </trkpt>
      <trkpt lat="47.486354" lon="7.737753">
        <ele>312.683701</ele>
        <time>2021-11-18T20:37:43.146Z</time>
      </trkpt>
      <trkpt lat="47.486306" lon="7.737832">
        <ele>312.720799</ele>
        <time>2021-11-18T20:37:44.208Z</time>
      </trkpt>
      <trkpt lat="47.486227" lon="7.738128">
        <ele>312.831932</ele>
        <time>2021-11-18T20:37:47.670Z</time>
      </trkpt>
      <trkpt lat="47.485883" lon="7.739181">
        <ele>313.240354</ele>
        <time>2021-11-18T20:38:01.846Z</time>
      </trkpt>
      <trkpt lat="47.485811" lon="7.739267">
        <ele>313.288167</ele>
        <time>2021-11-18T20:38:03.620Z</time>
      </trkpt>
      <trkpt lat="47.485713" lon="7.739262">
        <ele>313.338838</ele>
        <time>2021-11-18T20:38:05.572Z</time>
      </trkpt>
      <trkpt lat="47.485014" lon="7.738715">
        <ele>314.009559</ele>
        <time>2021-11-18T20:38:20.586Z</time>
      </trkpt>
      <trkpt lat="47.484997" lon="7.738871">
        <ele>314.121952</ele>
        <time>2021-11-18T20:38:22.310Z</time>
      </trkpt>
      <trkpt lat="47.484807" lon="7.739866">
        <ele>314.857388</ele>
        <time>2021-11-18T20:38:36.085Z</time>
      </trkpt>
      <trkpt lat="47.484365" lon="7.740878">
        <ele>315.646183</ele>
        <time>2021-11-18T20:38:51.458Z</time>
      </trkpt>
      <trkpt lat="47.484268" lon="7.741010">
        <ele>315.755901</ele>
        <time>2021-11-18T20:38:54.009Z</time>
      </trkpt>
      <trkpt lat="47.484154" lon="7.741142">
        <ele>315.876419</ele>
        <time>2021-11-18T20:38:56.758Z</time>
      </trkpt>
      <trkpt lat="47.483946" lon="7.741362">
        <ele>316.089284</ele>
        <time>2021-11-18T20:39:01.303Z</time>
      </trkpt>
      <trkpt lat="47.483828" lon="7.741475">
        <ele>316.206306</ele>
        <time>2021-11-18T20:39:03.904Z</time>
      </trkpt>
      <trkpt lat="47.483275" lon="7.742050">
        <ele>316.769021</ele>
        <time>2021-11-18T20:39:15.451Z</time>
      </trkpt>
      <trkpt lat="47.482927" lon="7.742421">
        <ele>317.205676</ele>
        <time>2021-11-18T20:39:23.465Z</time>
      </trkpt>
      <trkpt lat="47.482889" lon="7.742461">
        <ele>317.257325</ele>
        <time>2021-11-18T20:39:24.153Z</time>
      </trkpt>
      <trkpt lat="47.482818" lon="7.742537">
        <ele>317.354380</ele>
        <time>2021-11-18T20:39:25.601Z</time>
      </trkpt>
      <trkpt lat="47.482599" lon="7.742771">
        <ele>317.653562</ele>
        <time>2021-11-18T20:39:30.765Z</time>
      </trkpt>
      <trkpt lat="47.482182" lon="7.743222">
        <ele>318.225629</ele>
        <time>2021-11-18T20:39:40.413Z</time>
      </trkpt>
      <trkpt lat="47.481963" lon="7.742814">
        <ele>318.615624</ele>
        <time>2021-11-18T20:39:47.398Z</time>
      </trkpt>
      <trkpt lat="47.481898" lon="7.742719">
        <ele>318.716813</ele>
        <time>2021-11-18T20:39:49.499Z</time>
      </trkpt>
      <trkpt lat="47.481840" lon="7.742639">
        <ele>318.804632</ele>
        <time>2021-11-18T20:39:51.232Z</time>
      </trkpt>
      <trkpt lat="47.481698" lon="7.742446">
        <ele>319.091857</ele>
        <time>2021-11-18T20:39:54.982Z</time>
      </trkpt>
      <trkpt lat="47.481605" lon="7.742324">
        <ele>319.301519</ele>
        <time>2021-11-18T20:39:58.128Z</time>
      </trkpt>
      <trkpt lat="47.481177" lon="7.741735">
        <ele>320.287526</ele>
        <time>2021-11-18T20:40:10.684Z</time>
      </trkpt>
      <trkpt lat="47.480648" lon="7.741012">
        <ele>321.502346</ele>
        <time>2021-11-18T20:40:26.983Z</time>
      </trkpt>
      <trkpt lat="47.480591" lon="7.740959">
        <ele>321.615911</ele>
        <time>2021-11-18T20:40:28.933Z</time>
      </trkpt>
      <trkpt lat="47.480539" lon="7.740961">
        <ele>321.703661</ele>
        <time>2021-11-18T20:40:29.703Z</time>
      </trkpt>
      <trkpt lat="47.480294" lon="7.741119">
        <ele>322.058176</ele>
        <time>2021-11-18T20:40:35.227Z</time>
      </trkpt>
      <trkpt lat="47.480104" lon="7.741241">
        <ele>322.269052</ele>
        <time>2021-11-18T20:40:39.209Z</time>
      </trkpt>
      <trkpt lat="47.479963" lon="7.741350">
        <ele>322.431022</ele>
        <time>2021-11-18T20:40:42.468Z</time>
      </trkpt>
      <trkpt lat="47.479843" lon="7.741440">
        <ele>322.567998</ele>
        <time>2021-11-18T20:40:44.910Z</time>
      </trkpt>
      <trkpt lat="47.479629" lon="7.741696">
        <ele>322.848182</ele>
        <time>2021-11-18T20:40:50.177Z</time>
      </trkpt>
      <trkpt lat="47.479130" lon="7.742380">
        <ele>323.540747</ele>
        <time>2021-11-18T20:41:01.419Z</time>
      </trkpt>
      <trkpt lat="47.479105" lon="7.742414">
        <ele>323.575319</ele>
        <time>2021-11-18T20:41:02.097Z</time>
      </trkpt>
      <trkpt lat="47.478949" lon="7.742644">
        <ele>323.856668</ele>
        <time>2021-11-18T20:41:06.092Z</time>
      </trkpt>
      <trkpt lat="47.478895" lon="7.742714">
        <ele>324.003344</ele>
        <time>2021-11-18T20:41:07.426Z</time>
      </trkpt>
      <trkpt lat="47.478848" lon="7.742778">
        <ele>324.133843</ele>
        <time>2021-11-18T20:41:08.641Z</time>
      </trkpt>
      <trkpt lat="47.478747" lon="7.742916">
        <ele>324.414715</ele>
        <time>2021-11-18T20:41:11.339Z</time>
      </trkpt>
      <trkpt lat="47.478673" lon="7.743018">
        <ele>324.621339</ele>
        <time>2021-11-18T20:41:13.452Z</time>
      </trkpt>
      <trkpt lat="47.478481" lon="7.743277">
        <ele>325.152159</ele>
        <time>2021-11-18T20:41:18.852Z</time>
      </trkpt>
      <trkpt lat="47.478402" lon="7.743393">
        <ele>325.379548</ele>
        <time>2021-11-18T20:41:21.929Z</time>
      </trkpt>
      <trkpt lat="47.478402" lon="7.743393">
        <ele>325.379548</ele>
        <time>2021-11-18T20:41:21.981Z</time>
      </trkpt>
      <trkpt lat="47.478238" lon="7.743706">
        <ele>325.926411</ele>
        <time>2021-11-18T20:41:27.715Z</time>
      </trkpt>
      <trkpt lat="47.478130" lon="7.743970">
        <ele>326.352526</ele>
        <time>2021-11-18T20:41:32.842Z</time>
      </trkpt>
      <trkpt lat="47.478089" lon="7.744093">
        <ele>326.541900</ele>
        <time>2021-11-18T20:41:34.878Z</time>
      </trkpt>
      <trkpt lat="47.478062" lon="7.744180">
        <ele>326.674092</ele>
        <time>2021-11-18T20:41:36.504Z</time>
      </trkpt>
      <trkpt lat="47.478021" lon="7.744260">
        <ele>326.812726</ele>
        <time>2021-11-18T20:41:38.622Z</time>
      </trkpt>
      <trkpt lat="47.477976" lon="7.744460">
        <ele>327.103793</ele>
        <time>2021-11-18T20:41:42.287Z</time>
      </trkpt>
      <trkpt lat="47.477881" lon="7.744927">
        <ele>328.011020</ele>
        <time>2021-11-18T20:41:51.511Z</time>
      </trkpt>
      <trkpt lat="47.477870" lon="7.744978">
        <ele>328.132985</ele>
        <time>2021-11-18T20:41:52.376Z</time>
      </trkpt>
      <trkpt lat="47.477849" lon="7.745070">
        <ele>328.354217</ele>
        <time>2021-11-18T20:41:54.000Z</time>
      </trkpt>
      <trkpt lat="47.477786" lon="7.745056">
        <ele>328.568963</ele>
        <time>2021-11-18T20:41:55.671Z</time>
      </trkpt>
      <trkpt lat="47.477736" lon="7.745053">
        <ele>328.737644</ele>
        <time>2021-11-18T20:41:57.701Z</time>
      </trkpt>
      <trkpt lat="47.476942" lon="7.745085">
        <ele>331.415092</ele>
        <time>2021-11-18T20:42:20.500Z</time>
      </trkpt>
      <trkpt lat="47.476878" lon="7.745112">
        <ele>331.639425</ele>
        <time>2021-11-18T20:42:22.658Z</time>
      </trkpt>
      <trkpt lat="47.476266" lon="7.745001">
        <ele>333.669564</ele>
        <time>2021-11-18T20:42:40.084Z</time>
      </trkpt>
      <trkpt lat="47.476020" lon="7.744951">
        <ele>334.336401</ele>
        <time>2021-11-18T20:42:46.949Z</time>
      </trkpt>
      <trkpt lat="47.475441" lon="7.744847">
        <ele>335.902721</ele>
        <time>2021-11-18T20:43:02.767Z</time>
      </trkpt>
      <trkpt lat="47.475301" lon="7.744824">
        <ele>336.281002</ele>
        <time>2021-11-18T20:43:06.658Z</time>
      </trkpt>
      <trkpt lat="47.475240" lon="7.744800">
        <ele>336.450511</ele>
        <time>2021-11-18T20:43:08.311Z</time>
      </trkpt>
      <trkpt lat="47.475040" lon="7.744695">
        <ele>337.020424</ele>
        <time>2021-11-18T20:43:13.332Z</time>
      </trkpt>
      <trkpt lat="47.474911" lon="7.744614">
        <ele>337.396762</ele>
        <time>2021-11-18T20:43:16.992Z</time>
      </trkpt>
      <trkpt lat="47.474825" lon="7.744552">
        <ele>337.653675</ele>
        <time>2021-11-18T20:43:19.049Z</time>
      </trkpt>
      <trkpt lat="47.474802" lon="7.744534">
        <ele>337.723551</ele>
        <time>2021-11-18T20:43:19.614Z</time>
      </trkpt>
      <trkpt lat="47.474415" lon="7.744233">
        <ele>338.560889</ele>
        <time>2021-11-18T20:43:29.734Z</time>
      </trkpt>
      <trkpt lat="47.473167" lon="7.743264">
        <ele>340.174147</ele>
        <time>2021-11-18T20:43:56.760Z</time>
      </trkpt>
      <trkpt lat="47.473017" lon="7.743146">
        <ele>340.368603</ele>
        <time>2021-11-18T20:43:59.370Z</time>
      </trkpt>
      <trkpt lat="47.472975" lon="7.743113">
        <ele>340.385745</ele>
        <time>2021-11-18T20:44:00.091Z</time>
      </trkpt>
      <trkpt lat="47.472647" lon="7.742849">
        <ele>340.515720</ele>
        <time>2021-11-18T20:44:05.855Z</time>
      </trkpt>
      <trkpt lat="47.472097" lon="7.742408">
        <ele>340.733479</ele>
        <time>2021-11-18T20:44:15.278Z</time>
      </trkpt>
      <trkpt lat="47.470851" lon="7.741453">
        <ele>341.860759</ele>
        <time>2021-11-18T20:44:38.947Z</time>
      </trkpt>
      <trkpt lat="47.470256" lon="7.740990">
        <ele>342.755033</ele>
        <time>2021-11-18T20:44:52.923Z</time>
      </trkpt>
      <trkpt lat="47.467978" lon="7.739203">
        <ele>347.986660</ele>
        <time>2021-11-18T20:45:53.761Z</time>
      </trkpt>
      <trkpt lat="47.467405" lon="7.738857">
        <ele>349.317317</ele>
        <time>2021-11-18T20:46:08.583Z</time>
      </trkpt>
      <trkpt lat="47.467174" lon="7.738757">
        <ele>349.834805</ele>
        <time>2021-11-18T20:46:14.344Z</time>
      </trkpt>
      <trkpt lat="47.467080" lon="7.738726">
        <ele>350.041870</ele>
        <time>2021-11-18T20:46:16.622Z</time>
      </trkpt>
      <trkpt lat="47.466320" lon="7.738600">
        <ele>351.578360</ele>
        <time>2021-11-18T20:46:34.163Z</time>
      </trkpt>
      <trkpt lat="47.466070" lon="7.738615">
        <ele>351.996974</ele>
        <time>2021-11-18T20:46:39.876Z</time>
      </trkpt>
      <trkpt lat="47.466017" lon="7.738617">
        <ele>352.085676</ele>
        <time>2021-11-18T20:46:41.048Z</time>
      </trkpt>
      <trkpt lat="47.465278" lon="7.738667">
        <ele>353.323372</ele>
        <time>2021-11-18T20:46:56.757Z</time>
      </trkpt>
      <trkpt lat="47.465111" lon="7.738724">
        <ele>353.610118</ele>
        <time>2021-11-18T20:47:00.310Z</time>
      </trkpt>
      <trkpt lat="47.464818" lon="7.738771">
        <ele>354.103204</ele>
        <time>2021-11-18T20:47:06.288Z</time>
      </trkpt>
      <trkpt lat="47.464525" lon="7.738789">
        <ele>354.520273</ele>
        <time>2021-11-18T20:47:12.330Z</time>
      </trkpt>
      <trkpt lat="47.464246" lon="7.738800">
        <ele>354.897826</ele>
        <time>2021-11-18T20:47:17.960Z</time>
      </trkpt>
      <trkpt lat="47.462754" lon="7.738927">
        <ele>356.899698</ele>
        <time>2021-11-18T20:47:48.412Z</time>
      </trkpt>
      <trkpt lat="47.462428" lon="7.738996">
        <ele>357.313355</ele>
        <time>2021-11-18T20:47:54.439Z</time>
      </trkpt>
      <trkpt lat="47.462257" lon="7.739044">
        <ele>357.531980</ele>
        <time>2021-11-18T20:47:57.462Z</time>
      </trkpt>
      <trkpt lat="47.462058" lon="7.739121">
        <ele>357.790354</ele>
        <time>2021-11-18T20:48:01.765Z</time>
      </trkpt>
      <trkpt lat="47.461764" lon="7.739271">
        <ele>358.180997</ele>
        <time>2021-11-18T20:48:07.947Z</time>
      </trkpt>
      <trkpt lat="47.461511" lon="7.739436">
        <ele>358.528309</ele>
        <time>2021-11-18T20:48:13.181Z</time>
      </trkpt>
      <trkpt lat="47.461070" lon="7.739839">
        <ele>359.196238</ele>
        <time>2021-11-18T20:48:24.147Z</time>
      </trkpt>
      <trkpt lat="47.460986" lon="7.739937">
        <ele>359.338757</ele>
        <time>2021-11-18T20:48:26.006Z</time>
      </trkpt>
      <trkpt lat="47.460849" lon="7.740105">
        <ele>359.575825</ele>
        <time>2021-11-18T20:48:30.151Z</time>
      </trkpt>
      <trkpt lat="47.460198" lon="7.741001">
        <ele>360.760432</ele>
        <time>2021-11-18T20:48:48.261Z</time>
      </trkpt>
      <trkpt lat="47.459971" lon="7.741305">
        <ele>361.168365</ele>
        <time>2021-11-18T20:48:54.431Z</time>
      </trkpt>
      <trkpt lat="47.459913" lon="7.741325">
        <ele>361.247701</ele>
        <time>2021-11-18T20:48:55.434Z</time>
      </trkpt>
      <trkpt lat="47.459783" lon="7.741480">
        <ele>361.307069</ele>
        <time>2021-11-18T20:48:58.994Z</time>
      </trkpt>
      <trkpt lat="47.459608" lon="7.741712">
        <ele>361.323531</ele>
        <time>2021-11-18T20:49:03.167Z</time>
      </trkpt>
      <trkpt lat="47.459358" lon="7.742054">
        <ele>361.347385</ele>
        <time>2021-11-18T20:49:08.674Z</time>
      </trkpt>
      <trkpt lat="47.459335" lon="7.742086">
        <ele>361.349597</ele>
        <time>2021-11-18T20:49:09.219Z</time>
      </trkpt>
      <trkpt lat="47.459262" lon="7.742192">
        <ele>361.356763</ele>
        <time>2021-11-18T20:49:10.722Z</time>
      </trkpt>
      <trkpt lat="47.459161" lon="7.742348">
        <ele>361.366992</ele>
        <time>2021-11-18T20:49:12.663Z</time>
      </trkpt>
      <trkpt lat="47.459104" lon="7.742436">
        <ele>361.372764</ele>
        <time>2021-11-18T20:49:13.756Z</time>
      </trkpt>
      <trkpt lat="47.458942" lon="7.742676">
        <ele>361.388825</ele>
        <time>2021-11-18T20:49:16.866Z</time>
      </trkpt>
      <trkpt lat="47.458180" lon="7.743736">
        <ele>361.610588</ele>
        <time>2021-11-18T20:49:30.645Z</time>
      </trkpt>
      <trkpt lat="47.458097" lon="7.743895">
        <ele>361.657187</ele>
        <time>2021-11-18T20:49:32.454Z</time>
      </trkpt>
      <trkpt lat="47.457850" lon="7.744234">
        <ele>361.772802</ele>
        <time>2021-11-18T20:49:37.363Z</time>
      </trkpt>
      <trkpt lat="47.457302" lon="7.744993">
        <ele>362.030397</ele>
        <time>2021-11-18T20:49:51.269Z</time>
      </trkpt>
      <trkpt lat="47.457103" lon="7.745266">
        <ele>362.461050</ele>
        <time>2021-11-18T20:49:57.406Z</time>
      </trkpt>
      <trkpt lat="47.456072" lon="7.746683">
        <ele>364.922195</ele>
        <time>2021-11-18T20:50:29.629Z</time>
      </trkpt>
      <trkpt lat="47.456065" lon="7.746691">
        <ele>364.937665</ele>
        <time>2021-11-18T20:50:29.981Z</time>
      </trkpt>
      <trkpt lat="47.455618" lon="7.747172">
        <ele>365.720556</ele>
        <time>2021-11-18T20:50:40.906Z</time>
      </trkpt>
      <trkpt lat="47.453184" lon="7.748733">
        <ele>370.012718</ele>
        <time>2021-11-18T20:51:33.099Z</time>
      </trkpt>
      <trkpt lat="47.452785" lon="7.748985">
        <ele>370.865438</ele>
        <time>2021-11-18T20:51:44.391Z</time>
      </trkpt>
      <trkpt lat="47.452651" lon="7.749069">
        <ele>371.292961</ele>
        <time>2021-11-18T20:51:49.029Z</time>
      </trkpt>
      <trkpt lat="47.452067" lon="7.749491">
        <ele>374.581813</ele>
        <time>2021-11-18T20:52:09.985Z</time>
      </trkpt>
      <trkpt lat="47.451732" lon="7.749739">
        <ele>376.477393</ele>
        <time>2021-11-18T20:52:23.648Z</time>
      </trkpt>
      <trkpt lat="47.451310" lon="7.750030">
        <ele>378.833386</ele>
        <time>2021-11-18T20:52:42.496Z</time>
      </trkpt>
      <trkpt lat="47.451102" lon="7.750197">
        <ele>380.030947</ele>
        <time>2021-11-18T20:52:51.601Z</time>
      </trkpt>
      <trkpt lat="47.450829" lon="7.750425">
        <ele>381.390136</ele>
        <time>2021-11-18T20:53:03.320Z</time>
      </trkpt>
      <trkpt lat="47.450534" lon="7.750678">
        <ele>382.846156</ele>
        <time>2021-11-18T20:53:16.142Z</time>
      </trkpt>
      <trkpt lat="47.450300" lon="7.750889">
        <ele>384.016328</ele>
        <time>2021-11-18T20:53:25.990Z</time>
      </trkpt>
      <trkpt lat="47.450098" lon="7.751078">
        <ele>385.036920</ele>
        <time>2021-11-18T20:53:34.204Z</time>
      </trkpt>
      <trkpt lat="47.448903" lon="7.752305">
        <ele>388.026838</ele>
        <time>2021-11-18T20:54:08.624Z</time>
      </trkpt>
      <trkpt lat="47.448053" lon="7.753318">
        <ele>388.073745</ele>
        <time>2021-11-18T20:54:21.508Z</time>
      </trkpt>
      <trkpt lat="47.447682" lon="7.753856">
        <ele>387.016175</ele>
        <time>2021-11-18T20:54:27.142Z</time>
      </trkpt>
      <trkpt lat="47.446908" lon="7.755161">
        <ele>384.627090</ele>
        <time>2021-11-18T20:54:39.734Z</time>
      </trkpt>
      <trkpt lat="47.446380" lon="7.755845">
        <ele>384.311425</ele>
        <time>2021-11-18T20:54:47.835Z</time>
      </trkpt>
      <trkpt lat="47.446148" lon="7.756104">
        <ele>384.190276</ele>
        <time>2021-11-18T20:54:51.487Z</time>
      </trkpt>
      <trkpt lat="47.445858" lon="7.756435">
        <ele>384.037601</ele>
        <time>2021-11-18T20:54:56.697Z</time>
      </trkpt>
      <trkpt lat="47.445278" lon="7.757084">
        <ele>384.498322</ele>
        <time>2021-11-18T20:55:10.887Z</time>
      </trkpt>
      <trkpt lat="47.444843" lon="7.757585">
        <ele>385.808842</ele>
        <time>2021-11-18T20:55:23.983Z</time>
      </trkpt>
      <trkpt lat="47.444749" lon="7.757695">
        <ele>386.093760</ele>
        <time>2021-11-18T20:55:27.005Z</time>
      </trkpt>
      <trkpt lat="47.444198" lon="7.758252">
        <ele>387.680164</ele>
        <time>2021-11-18T20:55:44.228Z</time>
      </trkpt>
      <trkpt lat="47.443856" lon="7.758691">
        <ele>389.172993</ele>
        <time>2021-11-18T20:55:57.326Z</time>
      </trkpt>
      <trkpt lat="47.443560" lon="7.758889">
        <ele>390.452952</ele>
        <time>2021-11-18T20:56:07.095Z</time>
      </trkpt>
      <trkpt lat="47.443134" lon="7.759475">
        <ele>392.745303</ele>
        <time>2021-11-18T20:56:24.653Z</time>
      </trkpt>
      <trkpt lat="47.442943" lon="7.759844">
        <ele>393.983437</ele>
        <time>2021-11-18T20:56:34.659Z</time>
      </trkpt>
      <trkpt lat="47.443002" lon="7.759874">
        <ele>394.229245</ele>
        <time>2021-11-18T20:56:36.319Z</time>
      </trkpt>
      <trkpt lat="47.443041" lon="7.759900">
        <ele>394.397792</ele>
        <time>2021-11-18T20:56:37.511Z</time>
      </trkpt>
      <trkpt lat="47.443200" lon="7.760059">
        <ele>395.154031</ele>
        <time>2021-11-18T20:56:43.965Z</time>
      </trkpt>
      <trkpt lat="47.443255" lon="7.760116">
        <ele>395.453809</ele>
        <time>2021-11-18T20:56:46.081Z</time>
      </trkpt>
      <trkpt lat="47.443178" lon="7.760281">
        <ele>396.077829</ele>
        <time>2021-11-18T20:56:50.527Z</time>
      </trkpt>
      <trkpt lat="47.443112" lon="7.760477">
        <ele>396.759384</ele>
        <time>2021-11-18T20:56:56.372Z</time>
      </trkpt>
      <trkpt lat="47.443049" lon="7.760704">
        <ele>397.523178</ele>
        <time>2021-11-18T20:57:01.702Z</time>
      </trkpt>
      <trkpt lat="47.442878" lon="7.761382">
        <ele>399.775660</ele>
        <time>2021-11-18T20:57:19.452Z</time>
      </trkpt>
      <trkpt lat="47.442562" lon="7.762024">
        <ele>402.247330</ele>
        <time>2021-11-18T20:57:37.360Z</time>
      </trkpt>
      <trkpt lat="47.442389" lon="7.762334">
        <ele>403.494936</ele>
        <time>2021-11-18T20:57:45.712Z</time>
      </trkpt>
      <trkpt lat="47.442382" lon="7.762437">
        <ele>403.708937</ele>
        <time>2021-11-18T20:57:47.555Z</time>
      </trkpt>
      <trkpt lat="47.441500" lon="7.763896">
        <ele>407.754325</ele>
        <time>2021-11-18T20:58:26.262Z</time>
      </trkpt>
      <trkpt lat="47.441114" lon="7.764541">
        <ele>409.182602</ele>
        <time>2021-11-18T20:58:38.495Z</time>
      </trkpt>
      <trkpt lat="47.440724" lon="7.765190">
        <ele>409.826079</ele>
        <time>2021-11-18T20:58:49.192Z</time>
      </trkpt>
      <trkpt lat="47.440245" lon="7.765985">
        <ele>410.615239</ele>
        <time>2021-11-18T20:59:02.641Z</time>
      </trkpt>
      <trkpt lat="47.439603" lon="7.767042">
        <ele>411.964704</ele>
        <time>2021-11-18T20:59:19.876Z</time>
      </trkpt>
      <trkpt lat="47.439506" lon="7.767200">
        <ele>412.188780</ele>
        <time>2021-11-18T20:59:23.092Z</time>
      </trkpt>
      <trkpt lat="47.438768" lon="7.768399">
        <ele>414.044993</ele>
        <time>2021-11-18T20:59:46.720Z</time>
      </trkpt>
      <trkpt lat="47.438549" lon="7.768688">
        <ele>414.995127</ele>
        <time>2021-11-18T20:59:54.926Z</time>
      </trkpt>
      <trkpt lat="47.438453" lon="7.768814">
        <ele>415.410628</ele>
        <time>2021-11-18T20:59:58.725Z</time>
      </trkpt>
      <trkpt lat="47.437853" lon="7.769608">
        <ele>418.016984</ele>
        <time>2021-11-18T21:00:22.381Z</time>
      </trkpt>
      <trkpt lat="47.437408" lon="7.770018">
        <ele>419.679611</ele>
        <time>2021-11-18T21:00:37.966Z</time>
      </trkpt>
      <trkpt lat="47.437200" lon="7.770210">
        <ele>420.281764</ele>
        <time>2021-11-18T21:00:44.965Z</time>
      </trkpt>
      <trkpt lat="47.435758" lon="7.771905">
        <ele>423.728952</ele>
        <time>2021-11-18T21:01:29.643Z</time>
      </trkpt>
      <trkpt lat="47.434841" lon="7.772600">
        <ele>422.927577</ele>
        <time>2021-11-18T21:01:42.040Z</time>
      </trkpt>
      <trkpt lat="47.434141" lon="7.773072">
        <ele>421.545130</ele>
        <time>2021-11-18T21:01:50.111Z</time>
      </trkpt>
      <trkpt lat="47.434119" lon="7.772984">
        <ele>421.346882</ele>
        <time>2021-11-18T21:01:50.947Z</time>
      </trkpt>
      <trkpt lat="47.433941" lon="7.773088">
        <ele>420.748974</ele>
        <time>2021-11-18T21:01:52.952Z</time>
      </trkpt>
      <trkpt lat="47.433246" lon="7.773363">
        <ele>418.501439</ele>
        <time>2021-11-18T21:02:00.119Z</time>
      </trkpt>
      <trkpt lat="47.432741" lon="7.773429">
        <ele>416.950499</ele>
        <time>2021-11-18T21:02:05.146Z</time>
      </trkpt>
      <trkpt lat="47.432060" lon="7.773355">
        <ele>416.145194</ele>
        <time>2021-11-18T21:02:12.413Z</time>
      </trkpt>
      <trkpt lat="47.431423" lon="7.773118">
        <ele>415.370519</ele>
        <time>2021-11-18T21:02:20.581Z</time>
      </trkpt>
      <trkpt lat="47.431011" lon="7.772908">
        <ele>414.856553</ele>
        <time>2021-11-18T21:02:27.396Z</time>
      </trkpt>
      <trkpt lat="47.430283" lon="7.772555">
        <ele>416.301584</ele>
        <time>2021-11-18T21:02:43.367Z</time>
      </trkpt>
      <trkpt lat="47.429020" lon="7.771862">
        <ele>418.918048</ele>
        <time>2021-11-18T21:03:17.347Z</time>
      </trkpt>
      <trkpt lat="47.428770" lon="7.771707">
        <ele>419.472650</ele>
        <time>2021-11-18T21:03:23.850Z</time>
      </trkpt>
      <trkpt lat="47.428601" lon="7.771642">
        <ele>419.829892</ele>
        <time>2021-11-18T21:03:28.300Z</time>
      </trkpt>
      <trkpt lat="47.427870" lon="7.771359">
        <ele>421.375771</ele>
        <time>2021-11-18T21:03:45.295Z</time>
      </trkpt>
      <trkpt lat="47.427740" lon="7.771340">
        <ele>421.643015</ele>
        <time>2021-11-18T21:03:47.855Z</time>
      </trkpt>
      <trkpt lat="47.427702" lon="7.771335">
        <ele>421.721061</ele>
        <time>2021-11-18T21:03:48.596Z</time>
      </trkpt>
      <trkpt lat="47.427593" lon="7.771328">
        <ele>421.944258</ele>
        <time>2021-11-18T21:03:51.070Z</time>
      </trkpt>
      <trkpt lat="47.427296" lon="7.771252">
        <ele>422.412724</ele>
        <time>2021-11-18T21:03:56.754Z</time>
      </trkpt>
      <trkpt lat="47.427175" lon="7.771179">
        <ele>422.613429</ele>
        <time>2021-11-18T21:03:59.462Z</time>
      </trkpt>
      <trkpt lat="47.427112" lon="7.771125">
        <ele>422.725269</ele>
        <time>2021-11-18T21:04:00.785Z</time>
      </trkpt>
      <trkpt lat="47.426997" lon="7.771000">
        <ele>422.944487</ele>
        <time>2021-11-18T21:04:03.443Z</time>
      </trkpt>
      <trkpt lat="47.426977" lon="7.770973">
        <ele>422.986084</ele>
        <time>2021-11-18T21:04:04.108Z</time>
      </trkpt>
      <trkpt lat="47.426821" lon="7.770734">
        <ele>423.331125</ele>
        <time>2021-11-18T21:04:08.452Z</time>
      </trkpt>
      <trkpt lat="47.426586" lon="7.770441">
        <ele>423.803263</ele>
        <time>2021-11-18T21:04:14.936Z</time>
      </trkpt>
      <trkpt lat="47.426561" lon="7.770421">
        <ele>423.846919</ele>
        <time>2021-11-18T21:04:15.495Z</time>
      </trkpt>
      <trkpt lat="47.426442" lon="7.770325">
        <ele>424.055116</ele>
        <time>2021-11-18T21:04:18.406Z</time>
      </trkpt>
      <trkpt lat="47.426137" lon="7.770135">
        <ele>424.563410</ele>
        <time>2021-11-18T21:04:26.012Z</time>
      </trkpt>
      <trkpt lat="47.425937" lon="7.770017">
        <ele>425.083636</ele>
        <time>2021-11-18T21:04:30.692Z</time>
      </trkpt>
      <trkpt lat="47.425665" lon="7.769858">
        <ele>426.047864</ele>
        <time>2021-11-18T21:04:37.492Z</time>
      </trkpt>
      <trkpt lat="47.425372" lon="7.769666">
        <ele>427.104411</ele>
        <time>2021-11-18T21:04:44.802Z</time>
      </trkpt>
      <trkpt lat="47.425140" lon="7.769501">
        <ele>427.953133</ele>
        <time>2021-11-18T21:04:51.696Z</time>
      </trkpt>
      <trkpt lat="47.424876" lon="7.769315">
        <ele>428.917227</ele>
        <time>2021-11-18T21:04:59.509Z</time>
      </trkpt>
      <trkpt lat="47.424861" lon="7.769306">
        <ele>428.970594</ele>
        <time>2021-11-18T21:05:00.364Z</time>
      </trkpt>
      <trkpt lat="47.424704" lon="7.769209">
        <ele>429.531544</ele>
        <time>2021-11-18T21:05:07.515Z</time>
      </trkpt>
      <trkpt lat="47.424599" lon="7.769145">
        <ele>429.905955</ele>
        <time>2021-11-18T21:05:10.177Z</time>
      </trkpt>
      <trkpt lat="47.424523" lon="7.769284">
        <ele>430.304547</ele>
        <time>2021-11-18T21:05:14.877Z</time>
      </trkpt>
      <trkpt lat="47.424138" lon="7.769776">
        <ele>432.548774</ele>
        <time>2021-11-18T21:05:33.194Z</time>
      </trkpt>
      <trkpt lat="47.424021" lon="7.769926">
        <ele>433.277758</ele>
        <time>2021-11-18T21:05:36.943Z</time>
      </trkpt>
      <trkpt lat="47.423938" lon="7.769994">
        <ele>433.724416</ele>
        <time>2021-11-18T21:05:41.821Z</time>
      </trkpt>
      <trkpt lat="47.423921" lon="7.770007">
        <ele>433.814505</ele>
        <time>2021-11-18T21:05:42.894Z</time>
      </trkpt>
      <trkpt lat="47.423658" lon="7.770256">
        <ele>435.284554</ele>
        <time>2021-11-18T21:05:51.898Z</time>
      </trkpt>
      <trkpt lat="47.423641" lon="7.770276">
        <ele>435.386821</ele>
        <time>2021-11-18T21:05:53.439Z</time>
      </trkpt>
      <trkpt lat="47.423589" lon="7.770342">
        <ele>435.709427</ele>
        <time>2021-11-18T21:05:55.897Z</time>
      </trkpt>
      <trkpt lat="47.423377" lon="7.770427">
        <ele>436.743314</ele>
        <time>2021-11-18T21:06:01.671Z</time>
      </trkpt>
      <trkpt lat="47.423330" lon="7.770415">
        <ele>436.967806</ele>
        <time>2021-11-18T21:06:03.994Z</time>
      </trkpt>
      <trkpt lat="47.423115" lon="7.770334">
        <ele>438.012109</ele>
        <time>2021-11-18T21:06:11.610Z</time>
      </trkpt>
      <trkpt lat="47.422737" lon="7.770283">
        <ele>439.512827</ele>
        <time>2021-11-18T21:06:24.037Z</time>
      </trkpt>
      <trkpt lat="47.422620" lon="7.770267">
        <ele>439.831630</ele>
        <time>2021-11-18T21:06:27.978Z</time>
      </trkpt>
      <trkpt lat="47.422547" lon="7.770298">
        <ele>440.037709</ele>
        <time>2021-11-18T21:06:31.702Z</time>
      </trkpt>
      <trkpt lat="47.422480" lon="7.770363">
        <ele>440.255158</ele>
        <time>2021-11-18T21:06:34.239Z</time>
      </trkpt>
      <trkpt lat="47.422227" lon="7.770645">
        <ele>441.114924</ele>
        <time>2021-11-18T21:06:43.803Z</time>
      </trkpt>
      <trkpt lat="47.422134" lon="7.770697">
        <ele>441.384707</ele>
        <time>2021-11-18T21:06:46.491Z</time>
      </trkpt>
      <trkpt lat="47.421917" lon="7.770778">
        <ele>441.991963</ele>
        <time>2021-11-18T21:06:51.190Z</time>
      </trkpt>
      <trkpt lat="47.421479" lon="7.770970">
        <ele>443.231524</ele>
        <time>2021-11-18T21:07:00.665Z</time>
      </trkpt>
      <trkpt lat="47.420948" lon="7.771461">
        <ele>444.165156</ele>
        <time>2021-11-18T21:07:12.659Z</time>
      </trkpt>
      <trkpt lat="47.420752" lon="7.771639">
        <ele>444.273703</ele>
        <time>2021-11-18T21:07:16.674Z</time>
      </trkpt>
      <trkpt lat="47.420502" lon="7.771823">
        <ele>444.405482</ele>
        <time>2021-11-18T21:07:20.667Z</time>
      </trkpt>
      <trkpt lat="47.420038" lon="7.772054">
        <ele>444.636506</ele>
        <time>2021-11-18T21:07:27.752Z</time>
      </trkpt>
      <trkpt lat="47.419668" lon="7.772445">
        <ele>444.851128</ele>
        <time>2021-11-18T21:07:35.230Z</time>
      </trkpt>
      <trkpt lat="47.419457" lon="7.772722">
        <ele>445.411775</ele>
        <time>2021-11-18T21:07:39.945Z</time>
      </trkpt>
      <trkpt lat="47.419231" lon="7.773074">
        <ele>446.069672</ele>
        <time>2021-11-18T21:07:45.855Z</time>
      </trkpt>
      <trkpt lat="47.419197" lon="7.773144">
        <ele>446.186499</ele>
        <time>2021-11-18T21:07:47.590Z</time>
      </trkpt>
      <trkpt lat="47.419187" lon="7.773164">
        <ele>446.220215</ele>
        <time>2021-11-18T21:07:48.042Z</time>
      </trkpt>
      <trkpt lat="47.419119" lon="7.773306">
        <ele>446.456077</ele>
        <time>2021-11-18T21:07:49.972Z</time>
      </trkpt>
      <trkpt lat="47.419091" lon="7.773374">
        <ele>446.564001</ele>
        <time>2021-11-18T21:07:51.119Z</time>
      </trkpt>
      <trkpt lat="47.419001" lon="7.773564">
        <ele>446.878454</ele>
        <time>2021-11-18T21:07:55.273Z</time>
      </trkpt>
      <trkpt lat="47.418918" lon="7.773736">
        <ele>447.164881</ele>
        <time>2021-11-18T21:07:58.028Z</time>
      </trkpt>
      <trkpt lat="47.418795" lon="7.773989">
        <ele>447.587262</ele>
        <time>2021-11-18T21:08:03.433Z</time>
      </trkpt>
      <trkpt lat="47.418362" lon="7.774660">
        <ele>449.429372</ele>
        <time>2021-11-18T21:08:20.973Z</time>
      </trkpt>
      <trkpt lat="47.418266" lon="7.774789">
        <ele>450.081575</ele>
        <time>2021-11-18T21:08:25.553Z</time>
      </trkpt>
      <trkpt lat="47.418115" lon="7.774939">
        <ele>450.996124</ele>
        <time>2021-11-18T21:08:33.025Z</time>
      </trkpt>
      <trkpt lat="47.417859" lon="7.775235">
        <ele>452.629978</ele>
        <time>2021-11-18T21:08:46.003Z</time>
      </trkpt>
      <trkpt lat="47.417414" lon="7.775292">
        <ele>454.875212</ele>
        <time>2021-11-18T21:09:06.419Z</time>
      </trkpt>
      <trkpt lat="47.417170" lon="7.775339">
        <ele>456.112083</ele>
        <time>2021-11-18T21:09:15.507Z</time>
      </trkpt>
      <trkpt lat="47.417095" lon="7.775341">
        <ele>456.489142</ele>
        <time>2021-11-18T21:09:20.075Z</time>
      </trkpt>
      <trkpt lat="47.416531" lon="7.775374">
        <ele>458.899591</ele>
        <time>2021-11-18T21:09:39.268Z</time>
      </trkpt>
      <trkpt lat="47.415950" lon="7.775644">
        <ele>461.246522</ele>
        <time>2021-11-18T21:10:01.139Z</time>
      </trkpt>
      <trkpt lat="47.415830" lon="7.775752">
        <ele>461.787937</ele>
        <time>2021-11-18T21:10:04.820Z</time>
      </trkpt>
      <trkpt lat="47.415206" lon="7.776746">
        <ele>464.546194</ele>
        <time>2021-11-18T21:10:27.373Z</time>
      </trkpt>
      <trkpt lat="47.414806" lon="7.777866">
        <ele>464.979762</ele>
        <time>2021-11-18T21:10:41.013Z</time>
      </trkpt>
      <trkpt lat="47.414733" lon="7.778030">
        <ele>465.046967</ele>
        <time>2021-11-18T21:10:42.460Z</time>
      </trkpt>
      <trkpt lat="47.414539" lon="7.778426">
        <ele>465.214341</ele>
        <time>2021-11-18T21:10:46.869Z</time>
      </trkpt>
      <trkpt lat="47.414194" lon="7.779208">
        <ele>465.866282</ele>
        <time>2021-11-18T21:10:57.235Z</time>
      </trkpt>
      <trkpt lat="47.413847" lon="7.780178">
        <ele>466.881407</ele>
        <time>2021-11-18T21:11:11.490Z</time>
      </trkpt>
      <trkpt lat="47.413801" lon="7.780338">
        <ele>467.042245</ele>
        <time>2021-11-18T21:11:14.001Z</time>
      </trkpt>
      <trkpt lat="47.413793" lon="7.780381">
        <ele>467.083505</ele>
        <time>2021-11-18T21:11:14.606Z</time>
      </trkpt>
      <trkpt lat="47.413769" lon="7.780518">
        <ele>467.214436</ele>
        <time>2021-11-18T21:11:16.600Z</time>
      </trkpt>
      <trkpt lat="47.413743" lon="7.780665">
        <ele>467.355009</ele>
        <time>2021-11-18T21:11:19.952Z</time>
      </trkpt>
      <trkpt lat="47.413631" lon="7.781411">
        <ele>468.342652</ele>
        <time>2021-11-18T21:11:32.567Z</time>
      </trkpt>
      <trkpt lat="47.413278" lon="7.782611">
        <ele>470.839676</ele>
        <time>2021-11-18T21:11:55.467Z</time>
      </trkpt>
      <trkpt lat="47.413097" lon="7.783444">
        <ele>472.509271</ele>
        <time>2021-11-18T21:12:11.440Z</time>
      </trkpt>
      <trkpt lat="47.412810" lon="7.784555">
        <ele>474.926813</ele>
        <time>2021-11-18T21:12:33.401Z</time>
      </trkpt>
      <trkpt lat="47.412650" lon="7.785562">
        <ele>477.054005</ele>
        <time>2021-11-18T21:12:52.222Z</time>
      </trkpt>
      <trkpt lat="47.412584" lon="7.785944">
        <ele>477.864782</ele>
        <time>2021-11-18T21:12:59.200Z</time>
      </trkpt>
      <trkpt lat="47.412318" lon="7.786627">
        <ele>479.643874</ele>
        <time>2021-11-18T21:13:13.382Z</time>
      </trkpt>
      <trkpt lat="47.411305" lon="7.788631">
        <ele>486.106594</ele>
        <time>2021-11-18T21:14:01.986Z</time>
      </trkpt>
      <trkpt lat="47.411048" lon="7.789140">
        <ele>488.554307</ele>
        <time>2021-11-18T21:14:17.621Z</time>
      </trkpt>
      <trkpt lat="47.411032" lon="7.789237">
        <ele>488.939120</ele>
        <time>2021-11-18T21:14:19.370Z</time>
      </trkpt>
      <trkpt lat="47.411026" lon="7.789475">
        <ele>489.857080</ele>
        <time>2021-11-18T21:14:27.535Z</time>
      </trkpt>
      <trkpt lat="47.411138" lon="7.790215">
        <ele>492.779724</ele>
        <time>2021-11-18T21:14:46.892Z</time>
      </trkpt>
      <trkpt lat="47.411256" lon="7.790603">
        <ele>494.419261</ele>
        <time>2021-11-18T21:14:59.541Z</time>
      </trkpt>
      <trkpt lat="47.411382" lon="7.790776">
        <ele>495.499718</ele>
        <time>2021-11-18T21:15:05.327Z</time>
      </trkpt>
      <trkpt lat="47.411437" lon="7.790833">
        <ele>495.946770</ele>
        <time>2021-11-18T21:15:09.912Z</time>
      </trkpt>
      <trkpt lat="47.411537" lon="7.790899">
        <ele>496.675601</ele>
        <time>2021-11-18T21:15:14.356Z</time>
      </trkpt>
      <trkpt lat="47.411889" lon="7.790879">
        <ele>499.019791</ele>
        <time>2021-11-18T21:15:31.330Z</time>
      </trkpt>
      <trkpt lat="47.411990" lon="7.790873">
        <ele>499.692460</ele>
        <time>2021-11-18T21:15:34.411Z</time>
      </trkpt>
      <trkpt lat="47.412811" lon="7.790495">
        <ele>505.415026</ele>
        <time>2021-11-18T21:16:11.505Z</time>
      </trkpt>
      <trkpt lat="47.413058" lon="7.790541">
        <ele>506.970950</ele>
        <time>2021-11-18T21:16:20.089Z</time>
      </trkpt>
      <trkpt lat="47.413105" lon="7.790579">
        <ele>507.208605</ele>
        <time>2021-11-18T21:16:22.829Z</time>
      </trkpt>
      <trkpt lat="47.413181" lon="7.790657">
        <ele>507.619071</ele>
        <time>2021-11-18T21:16:25.922Z</time>
      </trkpt>
      <trkpt lat="47.413286" lon="7.790823">
        <ele>508.301168</ele>
        <time>2021-11-18T21:16:30.375Z</time>
      </trkpt>
      <trkpt lat="47.413437" lon="7.791275">
        <ele>509.814329</ele>
        <time>2021-11-18T21:16:41.796Z</time>
      </trkpt>
      <trkpt lat="47.413547" lon="7.791735">
        <ele>511.278849</ele>
        <time>2021-11-18T21:16:52.791Z</time>
      </trkpt>
      <trkpt lat="47.413568" lon="7.792136">
        <ele>512.486179</ele>
        <time>2021-11-18T21:17:01.586Z</time>
      </trkpt>
      <trkpt lat="47.413564" lon="7.792225">
        <ele>512.753930</ele>
        <time>2021-11-18T21:17:03.609Z</time>
      </trkpt>
      <trkpt lat="47.413540" lon="7.792402">
        <ele>513.295814</ele>
        <time>2021-11-18T21:17:06.444Z</time>
      </trkpt>
      <trkpt lat="47.413515" lon="7.792523">
        <ele>513.675588</ele>
        <time>2021-11-18T21:17:10.053Z</time>
      </trkpt>
      <trkpt lat="47.413485" lon="7.792636">
        <ele>514.039965</ele>
        <time>2021-11-18T21:17:12.597Z</time>
      </trkpt>
      <trkpt lat="47.413420" lon="7.792802">
        <ele>514.615677</ele>
        <time>2021-11-18T21:17:16.049Z</time>
      </trkpt>
      <trkpt lat="47.413365" lon="7.792918">
        <ele>514.972469</ele>
        <time>2021-11-18T21:17:18.549Z</time>
      </trkpt>
      <trkpt lat="47.412701" lon="7.794289">
        <ele>518.851030</ele>
        <time>2021-11-18T21:17:49.370Z</time>
      </trkpt>
      <trkpt lat="47.412260" lon="7.795076">
        <ele>521.274549</ele>
        <time>2021-11-18T21:18:09.583Z</time>
      </trkpt>
      <trkpt lat="47.412007" lon="7.795487">
        <ele>522.827477</ele>
        <time>2021-11-18T21:18:21.366Z</time>
      </trkpt>
      <trkpt lat="47.411537" lon="7.796200">
        <ele>525.609547</ele>
        <time>2021-11-18T21:18:42.767Z</time>
      </trkpt>
      <trkpt lat="47.411410" lon="7.796392">
        <ele>526.359976</ele>
        <time>2021-11-18T21:18:49.094Z</time>
      </trkpt>
      <trkpt lat="47.410916" lon="7.797164">
        <ele>529.206224</ele>
        <time>2021-11-18T21:19:11.857Z</time>
      </trkpt>
      <trkpt lat="47.410385" lon="7.797825">
        <ele>531.732820</ele>
        <time>2021-11-18T21:19:32.734Z</time>
      </trkpt>
      <trkpt lat="47.408728" lon="7.799465">
        <ele>538.071280</ele>
        <time>2021-11-18T21:20:28.120Z</time>
      </trkpt>
      <trkpt lat="47.408463" lon="7.799926">
        <ele>539.231269</ele>
        <time>2021-11-18T21:20:38.731Z</time>
      </trkpt>
      <trkpt lat="47.408317" lon="7.800385">
        <ele>539.890023</ele>
        <time>2021-11-18T21:20:46.698Z</time>
      </trkpt>
      <trkpt lat="47.408280" lon="7.800616">
        <ele>539.816036</ele>
        <time>2021-11-18T21:20:50.238Z</time>
      </trkpt>
      <trkpt lat="47.408172" lon="7.801411">
        <ele>539.563307</ele>
        <time>2021-11-18T21:21:00.172Z</time>
      </trkpt>
      <trkpt lat="47.408146" lon="7.801623">
        <ele>539.496155</ele>
        <time>2021-11-18T21:21:02.517Z</time>
      </trkpt>
      <trkpt lat="47.408103" lon="7.801947">
        <ele>539.393247</ele>
        <time>2021-11-18T21:21:05.612Z</time>
      </trkpt>
      <trkpt lat="47.408028" lon="7.802281">
        <ele>539.283565</ele>
        <time>2021-11-18T21:21:08.746Z</time>
      </trkpt>
      <trkpt lat="47.407657" lon="7.803708">
        <ele>535.033010</ele>
        <time>2021-11-18T21:21:18.832Z</time>
      </trkpt>
      <trkpt lat="47.407446" lon="7.804146">
        <ele>532.746423</ele>
        <time>2021-11-18T21:21:22.071Z</time>
      </trkpt>
      <trkpt lat="47.407258" lon="7.804357">
        <ele>531.262791</ele>
        <time>2021-11-18T21:21:24.157Z</time>
      </trkpt>
      <trkpt lat="47.407183" lon="7.804416">
        <ele>530.728830</ele>
        <time>2021-11-18T21:21:24.902Z</time>
      </trkpt>
      <trkpt lat="47.407021" lon="7.804529">
        <ele>529.603031</ele>
        <time>2021-11-18T21:21:26.462Z</time>
      </trkpt>
      <trkpt lat="47.406477" lon="7.804891">
        <ele>525.974125</ele>
        <time>2021-11-18T21:21:31.795Z</time>
      </trkpt>
      <trkpt lat="47.406421" lon="7.804933">
        <ele>525.603860</ele>
        <time>2021-11-18T21:21:32.328Z</time>
      </trkpt>
      <trkpt lat="47.406299" lon="7.805005">
        <ele>524.829316</ele>
        <time>2021-11-18T21:21:33.512Z</time>
      </trkpt>
      <trkpt lat="47.405757" lon="7.805193">
        <ele>521.546910</ele>
        <time>2021-11-18T21:21:38.492Z</time>
      </trkpt>
      <trkpt lat="47.404869" lon="7.805211">
        <ele>516.975361</ele>
        <time>2021-11-18T21:21:47.016Z</time>
      </trkpt>
      <trkpt lat="47.404508" lon="7.805040">
        <ele>516.414690</ele>
        <time>2021-11-18T21:21:52.167Z</time>
      </trkpt>
      <trkpt lat="47.403887" lon="7.804603">
        <ele>515.397404</ele>
        <time>2021-11-18T21:22:01.783Z</time>
      </trkpt>
      <trkpt lat="47.403650" lon="7.804570">
        <ele>515.045338</ele>
        <time>2021-11-18T21:22:04.950Z</time>
      </trkpt>
      <trkpt lat="47.403496" lon="7.804641">
        <ele>514.806747</ele>
        <time>2021-11-18T21:22:06.745Z</time>
      </trkpt>
      <trkpt lat="47.403423" lon="7.804716">
        <ele>514.675245</ele>
        <time>2021-11-18T21:22:08.579Z</time>
      </trkpt>
      <trkpt lat="47.403357" lon="7.804808">
        <ele>514.541048</ele>
        <time>2021-11-18T21:22:09.432Z</time>
      </trkpt>
      <trkpt lat="47.403252" lon="7.805264">
        <ele>513.252891</ele>
        <time>2021-11-18T21:22:13.051Z</time>
      </trkpt>
      <trkpt lat="47.403286" lon="7.806095">
        <ele>511.016747</ele>
        <time>2021-11-18T21:22:18.662Z</time>
      </trkpt>
      <trkpt lat="47.403292" lon="7.806285">
        <ele>510.505852</ele>
        <time>2021-11-18T21:22:19.981Z</time>
      </trkpt>
      <trkpt lat="47.403306" lon="7.806777">
        <ele>509.183171</ele>
        <time>2021-11-18T21:22:23.146Z</time>
      </trkpt>
      <trkpt lat="47.403306" lon="7.806946">
        <ele>508.729237</ele>
        <time>2021-11-18T21:22:24.158Z</time>
      </trkpt>
      <trkpt lat="47.403284" lon="7.807638">
        <ele>507.015587</ele>
        <time>2021-11-18T21:22:28.481Z</time>
      </trkpt>
      <trkpt lat="47.403257" lon="7.808104">
        <ele>506.107137</ele>
        <time>2021-11-18T21:22:31.410Z</time>
      </trkpt>
      <trkpt lat="47.403229" lon="7.808507">
        <ele>505.320253</ele>
        <time>2021-11-18T21:22:34.014Z</time>
      </trkpt>
      <trkpt lat="47.403221" lon="7.808684">
        <ele>504.975689</ele>
        <time>2021-11-18T21:22:35.214Z</time>
      </trkpt>
      <trkpt lat="47.403212" lon="7.808863">
        <ele>504.627048</ele>
        <time>2021-11-18T21:22:36.450Z</time>
      </trkpt>
      <trkpt lat="47.403208" lon="7.809047">
        <ele>504.269469</ele>
        <time>2021-11-18T21:22:37.681Z</time>
      </trkpt>
      <trkpt lat="47.403217" lon="7.809278">
        <ele>503.820041</ele>
        <time>2021-11-18T21:22:39.453Z</time>
      </trkpt>
      <trkpt lat="47.403210" lon="7.809408">
        <ele>503.566736</ele>
        <time>2021-11-18T21:22:40.470Z</time>
      </trkpt>
      <trkpt lat="47.403211" lon="7.809507">
        <ele>503.374421</ele>
        <time>2021-11-18T21:22:41.371Z</time>
      </trkpt>
      <trkpt lat="47.403201" lon="7.809610">
        <ele>503.172310</ele>
        <time>2021-11-18T21:22:42.263Z</time>
      </trkpt>
      <trkpt lat="47.403162" lon="7.809746">
        <ele>502.885417</ele>
        <time>2021-11-18T21:22:43.623Z</time>
      </trkpt>
      <trkpt lat="47.403065" lon="7.809891">
        <ele>502.489423</ele>
        <time>2021-11-18T21:22:45.414Z</time>
      </trkpt>
      <trkpt lat="47.402761" lon="7.810009">
        <ele>503.028140</ele>
        <time>2021-11-18T21:22:52.498Z</time>
      </trkpt>
      <trkpt lat="47.402137" lon="7.810207">
        <ele>505.251688</ele>
        <time>2021-11-18T21:23:13.094Z</time>
      </trkpt>
      <trkpt lat="47.401421" lon="7.810310">
        <ele>507.757983</ele>
        <time>2021-11-18T21:23:42.031Z</time>
      </trkpt>
      <trkpt lat="47.400552" lon="7.810295">
        <ele>511.868882</ele>
        <time>2021-11-18T21:24:18.641Z</time>
      </trkpt>
      <trkpt lat="47.400026" lon="7.810485">
        <ele>514.651155</ele>
        <time>2021-11-18T21:24:40.468Z</time>
      </trkpt>
      <trkpt lat="47.399771" lon="7.810732">
        <ele>516.217885</ele>
        <time>2021-11-18T21:24:53.223Z</time>
      </trkpt>
      <trkpt lat="47.399530" lon="7.811091">
        <ele>517.939510</ele>
        <time>2021-11-18T21:25:07.208Z</time>
      </trkpt>
      <trkpt lat="47.399034" lon="7.812265">
        <ele>521.981797</ele>
        <time>2021-11-18T21:25:42.283Z</time>
      </trkpt>
      <trkpt lat="47.399003" lon="7.812335">
        <ele>522.226134</ele>
        <time>2021-11-18T21:25:44.741Z</time>
      </trkpt>
      <trkpt lat="47.398873" lon="7.812642">
        <ele>523.283872</ele>
        <time>2021-11-18T21:25:53.391Z</time>
      </trkpt>
      <trkpt lat="47.398378" lon="7.813502">
        <ele>526.773435</ele>
        <time>2021-11-18T21:26:20.758Z</time>
      </trkpt>
      <trkpt lat="47.397971" lon="7.814039">
        <ele>529.549714</ele>
        <time>2021-11-18T21:26:41.740Z</time>
      </trkpt>
      <trkpt lat="47.397420" lon="7.814610">
        <ele>532.973944</ele>
        <time>2021-11-18T21:27:10.818Z</time>
      </trkpt>
      <trkpt lat="47.396819" lon="7.815041">
        <ele>536.094601</ele>
        <time>2021-11-18T21:27:39.546Z</time>
      </trkpt>
      <trkpt lat="47.396655" lon="7.815127">
        <ele>536.836273</ele>
        <time>2021-11-18T21:27:47.245Z</time>
      </trkpt>
      <trkpt lat="47.396481" lon="7.815220">
        <ele>537.624877</ele>
        <time>2021-11-18T21:27:54.808Z</time>
      </trkpt>
      <trkpt lat="47.395894" lon="7.815362">
        <ele>540.159902</ele>
        <time>2021-11-18T21:28:18.405Z</time>
      </trkpt>
      <trkpt lat="47.395284" lon="7.815226">
        <ele>542.254263</ele>
        <time>2021-11-18T21:28:38.000Z</time>
      </trkpt>
      <trkpt lat="47.394617" lon="7.815011">
        <ele>541.817108</ele>
        <time>2021-11-18T21:28:51.646Z</time>
      </trkpt>
      <trkpt lat="47.394138" lon="7.814860">
        <ele>541.503479</ele>
        <time>2021-11-18T21:28:59.333Z</time>
      </trkpt>
      <trkpt lat="47.392812" lon="7.814454">
        <ele>540.822876</ele>
        <time>2021-11-18T21:29:20.678Z</time>
      </trkpt>
      <trkpt lat="47.392674" lon="7.814421">
        <ele>540.764509</ele>
        <time>2021-11-18T21:29:23.109Z</time>
      </trkpt>
      <trkpt lat="47.392571" lon="7.814403">
        <ele>540.721206</ele>
        <time>2021-11-18T21:29:25.830Z</time>
      </trkpt>
      <trkpt lat="47.392247" lon="7.814378">
        <ele>540.585748</ele>
        <time>2021-11-18T21:29:33.353Z</time>
      </trkpt>
      <trkpt lat="47.392009" lon="7.814397">
        <ele>540.486236</ele>
        <time>2021-11-18T21:29:39.022Z</time>
      </trkpt>
      <trkpt lat="47.391965" lon="7.814402">
        <ele>540.467811</ele>
        <time>2021-11-18T21:29:39.881Z</time>
      </trkpt>
      <trkpt lat="47.391873" lon="7.814418">
        <ele>540.429135</ele>
        <time>2021-11-18T21:29:42.157Z</time>
      </trkpt>
      <trkpt lat="47.391815" lon="7.814430">
        <ele>540.601188</ele>
        <time>2021-11-18T21:29:43.901Z</time>
      </trkpt>
      <trkpt lat="47.391510" lon="7.814535">
        <ele>542.004762</ele>
        <time>2021-11-18T21:29:52.191Z</time>
      </trkpt>
      <trkpt lat="47.391330" lon="7.814611">
        <ele>542.843790</ele>
        <time>2021-11-18T21:29:58.033Z</time>
      </trkpt>
      <trkpt lat="47.391072" lon="7.814743">
        <ele>544.067483</ele>
        <time>2021-11-18T21:30:07.728Z</time>
      </trkpt>
      <trkpt lat="47.390680" lon="7.814949">
        <ele>545.932209</ele>
        <time>2021-11-18T21:30:24.472Z</time>
      </trkpt>
      <trkpt lat="47.390484" lon="7.815052">
        <ele>546.864572</ele>
        <time>2021-11-18T21:30:33.145Z</time>
      </trkpt>
      <trkpt lat="47.389865" lon="7.815413">
        <ele>550.741431</ele>
        <time>2021-11-18T21:31:07.032Z</time>
      </trkpt>
      <trkpt lat="47.389319" lon="7.815732">
        <ele>555.097340</ele>
        <time>2021-11-18T21:31:39.579Z</time>
      </trkpt>
      <trkpt lat="47.388771" lon="7.816079">
        <ele>559.520555</ele>
        <time>2021-11-18T21:32:09.476Z</time>
      </trkpt>
      <trkpt lat="47.388346" lon="7.816395">
        <ele>562.218597</ele>
        <time>2021-11-18T21:32:32.207Z</time>
      </trkpt>
      <trkpt lat="47.388090" lon="7.816620">
        <ele>562.927264</ele>
        <time>2021-11-18T21:32:43.831Z</time>
      </trkpt>
      <trkpt lat="47.387912" lon="7.816788">
        <ele>563.429781</ele>
        <time>2021-11-18T21:32:50.935Z</time>
      </trkpt>
      <trkpt lat="47.387708" lon="7.817012">
        <ele>564.034492</ele>
        <time>2021-11-18T21:32:58.629Z</time>
      </trkpt>
      <trkpt lat="47.387576" lon="7.817190">
        <ele>564.459695</ele>
        <time>2021-11-18T21:33:03.106Z</time>
      </trkpt>
      <trkpt lat="47.387476" lon="7.817327">
        <ele>564.784166</ele>
        <time>2021-11-18T21:33:06.744Z</time>
      </trkpt>
      <trkpt lat="47.387291" lon="7.817580">
        <ele>565.383945</ele>
        <time>2021-11-18T21:33:11.864Z</time>
      </trkpt>
      <trkpt lat="47.387125" lon="7.817809">
        <ele>565.924302</ele>
        <time>2021-11-18T21:33:15.765Z</time>
      </trkpt>
      <trkpt lat="47.386756" lon="7.818366">
        <ele>566.376216</ele>
        <time>2021-11-18T21:33:24.580Z</time>
      </trkpt>
      <trkpt lat="47.386568" lon="7.818636">
        <ele>566.533770</ele>
        <time>2021-11-18T21:33:29.124Z</time>
      </trkpt>
      <trkpt lat="47.386226" lon="7.819112">
        <ele>566.816119</ele>
        <time>2021-11-18T21:33:38.680Z</time>
      </trkpt>
      <trkpt lat="47.385828" lon="7.819688">
        <ele>567.150918</ele>
        <time>2021-11-18T21:33:54.322Z</time>
      </trkpt>
      <trkpt lat="47.385766" lon="7.819804">
        <ele>567.421793</ele>
        <time>2021-11-18T21:33:58.003Z</time>
      </trkpt>
      <trkpt lat="47.385661" lon="7.819998">
        <ele>568.356255</ele>
        <time>2021-11-18T21:34:04.055Z</time>
      </trkpt>
      <trkpt lat="47.385597" lon="7.820122">
        <ele>568.942894</ele>
        <time>2021-11-18T21:34:07.234Z</time>
      </trkpt>
      <trkpt lat="47.385520" lon="7.820277">
        <ele>569.666207</ele>
        <time>2021-11-18T21:34:12.895Z</time>
      </trkpt>
      <trkpt lat="47.385462" lon="7.820375">
        <ele>570.155936</ele>
        <time>2021-11-18T21:34:16.126Z</time>
      </trkpt>
      <trkpt lat="47.385508" lon="7.820603">
        <ele>571.051045</ele>
        <time>2021-11-18T21:34:21.617Z</time>
      </trkpt>
      <trkpt lat="47.385584" lon="7.821101">
        <ele>572.971741</ele>
        <time>2021-11-18T21:34:36.006Z</time>
      </trkpt>
      <trkpt lat="47.385580" lon="7.821186">
        <ele>573.292318</ele>
        <time>2021-11-18T21:34:38.629Z</time>
      </trkpt>
      <trkpt lat="47.385561" lon="7.821326">
        <ele>573.829535</ele>
        <time>2021-11-18T21:34:43.778Z</time>
      </trkpt>
      <trkpt lat="47.385466" lon="7.821543">
        <ele>574.801790</ele>
        <time>2021-11-18T21:34:51.170Z</time>
      </trkpt>
      <trkpt lat="47.384772" lon="7.822475">
        <ele>582.590214</ele>
        <time>2021-11-18T21:35:41.095Z</time>
      </trkpt>
      <trkpt lat="47.384657" lon="7.822606">
        <ele>584.130925</ele>
        <time>2021-11-18T21:35:48.739Z</time>
      </trkpt>
      <trkpt lat="47.384604" lon="7.822853">
        <ele>585.992054</ele>
        <time>2021-11-18T21:35:59.808Z</time>
      </trkpt>
      <trkpt lat="47.384522" lon="7.823115">
        <ele>588.065297</ele>
        <time>2021-11-18T21:36:11.323Z</time>
      </trkpt>
      <trkpt lat="47.384507" lon="7.823267">
        <ele>589.168629</ele>
        <time>2021-11-18T21:36:16.334Z</time>
      </trkpt>
      <trkpt lat="47.384397" lon="7.823538">
        <ele>591.438185</ele>
        <time>2021-11-18T21:36:30.495Z</time>
      </trkpt>
      <trkpt lat="47.384253" lon="7.823714">
        <ele>593.421085</ele>
        <time>2021-11-18T21:36:44.572Z</time>
      </trkpt>
      <trkpt lat="47.384156" lon="7.823825">
        <ele>594.722861</ele>
        <time>2021-11-18T21:36:53.741Z</time>
      </trkpt>
      <trkpt lat="47.384103" lon="7.823943">
        <ele>595.739983</ele>
        <time>2021-11-18T21:37:02.152Z</time>
      </trkpt>
      <trkpt lat="47.383990" lon="7.824360">
        <ele>601.421156</ele>
        <time>2021-11-18T21:37:25.913Z</time>
      </trkpt>
      <trkpt lat="47.384018" lon="7.824631">
        <ele>605.177665</ele>
        <time>2021-11-18T21:37:41.742Z</time>
      </trkpt>
      <trkpt lat="47.384049" lon="7.824678">
        <ele>606.076780</ele>
        <time>2021-11-18T21:37:45.527Z</time>
      </trkpt>
      <trkpt lat="47.384092" lon="7.824720">
        <ele>607.120123</ele>
        <time>2021-11-18T21:37:49.733Z</time>
      </trkpt>
      <trkpt lat="47.384429" lon="7.824850">
        <ele>614.169256</ele>
        <time>2021-11-18T21:38:18.709Z</time>
      </trkpt>
      <trkpt lat="47.384500" lon="7.824878">
        <ele>615.656523</ele>
        <time>2021-11-18T21:38:27.070Z</time>
      </trkpt>
      <trkpt lat="47.384656" lon="7.824985">
        <ele>619.137556</ele>
        <time>2021-11-18T21:38:46.169Z</time>
      </trkpt>
      <trkpt lat="47.384711" lon="7.825038">
        <ele>620.466637</ele>
        <time>2021-11-18T21:38:50.898Z</time>
      </trkpt>
      <trkpt lat="47.384737" lon="7.825241">
        <ele>623.297646</ele>
        <time>2021-11-18T21:39:06.549Z</time>
      </trkpt>
      <trkpt lat="47.384568" lon="7.826108">
        <ele>636.639952</ele>
        <time>2021-11-18T21:40:15.115Z</time>
      </trkpt>
      <trkpt lat="47.384610" lon="7.826221">
        <ele>638.983548</ele>
        <time>2021-11-18T21:40:24.958Z</time>
      </trkpt>
      <trkpt lat="47.384922" lon="7.826213">
        <ele>647.362530</ele>
        <time>2021-11-18T21:40:59.784Z</time>
      </trkpt>
      <trkpt lat="47.384974" lon="7.826249">
        <ele>648.904600</ele>
        <time>2021-11-18T21:41:06.410Z</time>
      </trkpt>
      <trkpt lat="47.384994" lon="7.826334">
        <ele>650.540592</ele>
        <time>2021-11-18T21:41:13.335Z</time>
      </trkpt>
      <trkpt lat="47.384977" lon="7.826546">
        <ele>654.421780</ele>
        <time>2021-11-18T21:41:29.495Z</time>
      </trkpt>
      <trkpt lat="47.384816" lon="7.826875">
        <ele>661.801898</ele>
        <time>2021-11-18T21:42:00.153Z</time>
      </trkpt>
      <trkpt lat="47.384770" lon="7.826933">
        <ele>663.425957</ele>
        <time>2021-11-18T21:42:07.122Z</time>
      </trkpt>
      <trkpt lat="47.384689" lon="7.826983">
        <ele>665.783262</ele>
        <time>2021-11-18T21:42:17.134Z</time>
      </trkpt>
      <trkpt lat="47.383872" lon="7.827574">
        <ele>688.406182</ele>
        <time>2021-11-18T21:43:59.463Z</time>
      </trkpt>
      <trkpt lat="47.383673" lon="7.827804">
        <ele>693.867569</ele>
        <time>2021-11-18T21:44:27.768Z</time>
      </trkpt>
      <trkpt lat="47.383600" lon="7.827973">
        <ele>696.801093</ele>
        <time>2021-11-18T21:44:39.248Z</time>
      </trkpt>
      <trkpt lat="47.383588" lon="7.828116">
        <ele>698.909740</ele>
        <time>2021-11-18T21:44:50.508Z</time>
      </trkpt>
      <trkpt lat="47.383593" lon="7.828248">
        <ele>700.844425</ele>
        <time>2021-11-18T21:45:00.556Z</time>
      </trkpt>
      <trkpt lat="47.383670" lon="7.828631">
        <ele>706.691028</ele>
        <time>2021-11-18T21:45:24.451Z</time>
      </trkpt>
      <trkpt lat="47.383689" lon="7.828668">
        <ele>707.370586</ele>
        <time>2021-11-18T21:45:28.017Z</time>
      </trkpt>
      <trkpt lat="47.383728" lon="7.828747">
        <ele>708.801314</ele>
        <time>2021-11-18T21:45:34.131Z</time>
      </trkpt>
      <trkpt lat="47.384094" lon="7.829285">
        <ele>719.878716</ele>
        <time>2021-11-18T21:46:15.541Z</time>
      </trkpt>
      <trkpt lat="47.384164" lon="7.829613">
        <ele>721.642311</ele>
        <time>2021-11-18T21:46:36.065Z</time>
      </trkpt>
      <trkpt lat="47.384148" lon="7.829686">
        <ele>722.035788</ele>
        <time>2021-11-18T21:46:40.216Z</time>
      </trkpt>
      <trkpt lat="47.384126" lon="7.829742">
        <ele>722.367801</ele>
        <time>2021-11-18T21:46:42.390Z</time>
      </trkpt>
      <trkpt lat="47.384097" lon="7.829776">
        <ele>722.648233</ele>
        <time>2021-11-18T21:46:44.341Z</time>
      </trkpt>
      <trkpt lat="47.384065" lon="7.829793">
        <ele>722.905799</ele>
        <time>2021-11-18T21:46:48.200Z</time>
      </trkpt>
      <trkpt lat="47.383965" lon="7.829746">
        <ele>723.700610</ele>
        <time>2021-11-18T21:46:57.817Z</time>
      </trkpt>
      <trkpt lat="47.383668" lon="7.829327">
        <ele>726.811369</ele>
        <time>2021-11-18T21:47:19.667Z</time>
      </trkpt>
      <trkpt lat="47.383104" lon="7.828994">
        <ele>731.411719</ele>
        <time>2021-11-18T21:47:42.366Z</time>
      </trkpt>
      <trkpt lat="47.382428" lon="7.828318">
        <ele>732.541031</ele>
        <time>2021-11-18T21:47:57.605Z</time>
      </trkpt>
      <trkpt lat="47.382145" lon="7.828153">
        <ele>732.031233</ele>
        <time>2021-11-18T21:48:02.084Z</time>
      </trkpt>
      <trkpt lat="47.380998" lon="7.827946">
        <ele>730.689815</ele>
        <time>2021-11-18T21:48:19.221Z</time>
      </trkpt>
      <trkpt lat="47.380894" lon="7.828041">
        <ele>730.835353</ele>
        <time>2021-11-18T21:48:21.197Z</time>
      </trkpt>
      <trkpt lat="47.380858" lon="7.828157">
        <ele>730.938185</ele>
        <time>2021-11-18T21:48:22.803Z</time>
      </trkpt>
      <trkpt lat="47.380916" lon="7.828451">
        <ele>731.184962</ele>
        <time>2021-11-18T21:48:26.527Z</time>
      </trkpt>
      <trkpt lat="47.381005" lon="7.828624">
        <ele>731.360051</ele>
        <time>2021-11-18T21:48:29.443Z</time>
      </trkpt>
      <trkpt lat="47.381157" lon="7.828900">
        <ele>731.646750</ele>
        <time>2021-11-18T21:48:34.401Z</time>
      </trkpt>
      <trkpt lat="47.381228" lon="7.829033">
        <ele>731.783234</ele>
        <time>2021-11-18T21:48:37.719Z</time>
      </trkpt>
      <trkpt lat="47.381593" lon="7.829813">
        <ele>732.547309</ele>
        <time>2021-11-18T21:49:00.001Z</time>
      </trkpt>
      <trkpt lat="47.381702" lon="7.830267">
        <ele>734.554963</ele>
        <time>2021-11-18T21:49:14.462Z</time>
      </trkpt>
      <trkpt lat="47.381842" lon="7.830852">
        <ele>737.355175</ele>
        <time>2021-11-18T21:49:35.547Z</time>
      </trkpt>
      <trkpt lat="47.381932" lon="7.831339">
        <ele>739.633440</ele>
        <time>2021-11-18T21:49:52.985Z</time>
      </trkpt>
      <trkpt lat="47.381974" lon="7.831483">
        <ele>740.341052</ele>
        <time>2021-11-18T21:49:59.103Z</time>
      </trkpt>
      <trkpt lat="47.382131" lon="7.831779">
        <ele>742.037986</ele>
        <time>2021-11-18T21:50:10.533Z</time>
      </trkpt>
      <trkpt lat="47.382342" lon="7.832100">
        <ele>744.057037</ele>
        <time>2021-11-18T21:50:25.240Z</time>
      </trkpt>
      <trkpt lat="47.382754" lon="7.832561">
        <ele>746.223562</ele>
        <time>2021-11-18T21:50:49.849Z</time>
      </trkpt>
      <trkpt lat="47.383114" lon="7.832982">
        <ele>747.948689</ele>
        <time>2021-11-18T21:51:08.328Z</time>
      </trkpt>
      <trkpt lat="47.383391" lon="7.833480">
        <ele>749.588111</ele>
        <time>2021-11-18T21:51:22.396Z</time>
      </trkpt>
      <trkpt lat="47.383646" lon="7.834182">
        <ele>751.155898</ele>
        <time>2021-11-18T21:51:35.941Z</time>
      </trkpt>
      <trkpt lat="47.383811" lon="7.834646">
        <ele>750.346991</ele>
        <time>2021-11-18T21:51:42.161Z</time>
      </trkpt>
      <trkpt lat="47.384008" lon="7.835193">
        <ele>749.390743</ele>
        <time>2021-11-18T21:51:48.796Z</time>
      </trkpt>
      <trkpt lat="47.384043" lon="7.835294">
        <ele>749.215628</ele>
        <time>2021-11-18T21:51:49.940Z</time>
      </trkpt>
      <trkpt lat="47.384114" lon="7.835496">
        <ele>748.864354</ele>
        <time>2021-11-18T21:51:52.090Z</time>
      </trkpt>
      <trkpt lat="47.384185" lon="7.835666">
        <ele>748.556074</ele>
        <time>2021-11-18T21:51:54.224Z</time>
      </trkpt>
      <trkpt lat="47.384301" lon="7.835945">
        <ele>748.050758</ele>
        <time>2021-11-18T21:51:57.301Z</time>
      </trkpt>
      <trkpt lat="47.384405" lon="7.836179">
        <ele>747.618746</ele>
        <time>2021-11-18T21:52:00.112Z</time>
      </trkpt>
      <trkpt lat="47.384475" lon="7.836358">
        <ele>747.299708</ele>
        <time>2021-11-18T21:52:01.983Z</time>
      </trkpt>
      <trkpt lat="47.384612" lon="7.836664">
        <ele>746.127878</ele>
        <time>2021-11-18T21:52:05.557Z</time>
      </trkpt>
      <trkpt lat="47.384684" lon="7.836819">
        <ele>745.483215</ele>
        <time>2021-11-18T21:52:07.257Z</time>
      </trkpt>
      <trkpt lat="47.384963" lon="7.837407">
        <ele>743.020735</ele>
        <time>2021-11-18T21:52:13.792Z</time>
      </trkpt>
      <trkpt lat="47.385543" lon="7.838712">
        <ele>737.619375</ele>
        <time>2021-11-18T21:52:27.828Z</time>
      </trkpt>
      <trkpt lat="47.385624" lon="7.838902">
        <ele>736.767971</ele>
        <time>2021-11-18T21:52:29.917Z</time>
      </trkpt>
      <trkpt lat="47.385703" lon="7.839074">
        <ele>735.979837</ele>
        <time>2021-11-18T21:52:31.785Z</time>
      </trkpt>
      <trkpt lat="47.386148" lon="7.840106">
        <ele>731.340285</ele>
        <time>2021-11-18T21:52:43.073Z</time>
      </trkpt>
      <trkpt lat="47.386849" lon="7.842066">
        <ele>721.446111</ele>
        <time>2021-11-18T21:53:02.402Z</time>
      </trkpt>
      <trkpt lat="47.386866" lon="7.842114">
        <ele>721.180857</ele>
        <time>2021-11-18T21:53:02.836Z</time>
      </trkpt>
      <trkpt lat="47.386909" lon="7.842240">
        <ele>720.489933</ele>
        <time>2021-11-18T21:53:04.040Z</time>
      </trkpt>
      <trkpt lat="47.387147" lon="7.842833">
        <ele>717.114380</ele>
        <time>2021-11-18T21:53:10.188Z</time>
      </trkpt>
      <trkpt lat="47.387212" lon="7.843018">
        <ele>716.093789</ele>
        <time>2021-11-18T21:53:12.006Z</time>
      </trkpt>
      <trkpt lat="47.387261" lon="7.843161">
        <ele>715.309003</ele>
        <time>2021-11-18T21:53:13.364Z</time>
      </trkpt>
      <trkpt lat="47.387376" lon="7.843710">
        <ele>710.552905</ele>
        <time>2021-11-18T21:53:18.209Z</time>
      </trkpt>
      <trkpt lat="47.387855" lon="7.844726">
        <ele>699.857705</ele>
        <time>2021-11-18T21:53:28.221Z</time>
      </trkpt>
      <trkpt lat="47.387969" lon="7.845120">
        <ele>696.156310</ele>
        <time>2021-11-18T21:53:31.676Z</time>
      </trkpt>
      <trkpt lat="47.387979" lon="7.845179">
        <ele>695.630906</ele>
        <time>2021-11-18T21:53:32.150Z</time>
      </trkpt>
      <trkpt lat="47.388001" lon="7.845319">
        <ele>694.389356</ele>
        <time>2021-11-18T21:53:33.273Z</time>
      </trkpt>
      <trkpt lat="47.388069" lon="7.845848">
        <ele>688.195518</ele>
        <time>2021-11-18T21:53:37.464Z</time>
      </trkpt>
      <trkpt lat="47.388248" lon="7.846329">
        <ele>680.340243</ele>
        <time>2021-11-18T21:53:41.722Z</time>
      </trkpt>
      <trkpt lat="47.388508" lon="7.847016">
        <ele>669.076322</ele>
        <time>2021-11-18T21:53:47.822Z</time>
      </trkpt>
      <trkpt lat="47.388571" lon="7.847199">
        <ele>666.138171</ele>
        <time>2021-11-18T21:53:49.429Z</time>
      </trkpt>
      <trkpt lat="47.388640" lon="7.847399">
        <ele>662.925665</ele>
        <time>2021-11-18T21:53:51.164Z</time>
      </trkpt>
      <trkpt lat="47.388705" lon="7.847588">
        <ele>659.891816</ele>
        <time>2021-11-18T21:53:52.812Z</time>
      </trkpt>
      <trkpt lat="47.388725" lon="7.847649">
        <ele>658.921833</ele>
        <time>2021-11-18T21:53:53.339Z</time>
      </trkpt>
      <trkpt lat="47.388763" lon="7.847794">
        <ele>656.696628</ele>
        <time>2021-11-18T21:53:54.535Z</time>
      </trkpt>
      <trkpt lat="47.388863" lon="7.848343">
        <ele>648.762492</ele>
        <time>2021-11-18T21:53:58.912Z</time>
      </trkpt>
      <trkpt lat="47.389032" lon="7.848599">
        <ele>643.833316</ele>
        <time>2021-11-18T21:54:01.668Z</time>
      </trkpt>
      <trkpt lat="47.389168" lon="7.848648">
        <ele>640.982848</ele>
        <time>2021-11-18T21:54:03.283Z</time>
      </trkpt>
      <trkpt lat="47.389325" lon="7.848670">
        <ele>637.771612</ele>
        <time>2021-11-18T21:54:05.081Z</time>
      </trkpt>
      <trkpt lat="47.389663" lon="7.848712">
        <ele>630.864843</ele>
        <time>2021-11-18T21:54:08.957Z</time>
      </trkpt>
      <trkpt lat="47.389830" lon="7.848861">
        <ele>626.892127</ele>
        <time>2021-11-18T21:54:11.212Z</time>
      </trkpt>
      <trkpt lat="47.390124" lon="7.849426">
        <ele>617.159575</ele>
        <time>2021-11-18T21:54:16.773Z</time>
      </trkpt>
      <trkpt lat="47.390529" lon="7.849903">
        <ele>609.191484</ele>
        <time>2021-11-18T21:54:22.751Z</time>
      </trkpt>
      <trkpt lat="47.390941" lon="7.850546">
        <ele>599.971551</ele>
        <time>2021-11-18T21:54:29.768Z</time>
      </trkpt>
      <trkpt lat="47.391227" lon="7.851250">
        <ele>591.421321</ele>
        <time>2021-11-18T21:54:36.269Z</time>
      </trkpt>
      <trkpt lat="47.391307" lon="7.851550">
        <ele>588.451830</ele>
        <time>2021-11-18T21:54:38.850Z</time>
      </trkpt>
      <trkpt lat="47.391391" lon="7.852032">
        <ele>584.446436</ele>
        <time>2021-11-18T21:54:42.862Z</time>
      </trkpt>
      <trkpt lat="47.391460" lon="7.852289">
        <ele>582.221504</ele>
        <time>2021-11-18T21:54:45.058Z</time>
      </trkpt>
      <trkpt lat="47.391595" lon="7.852537">
        <ele>579.660539</ele>
        <time>2021-11-18T21:54:47.650Z</time>
      </trkpt>
      <trkpt lat="47.391640" lon="7.852608">
        <ele>578.877839</ele>
        <time>2021-11-18T21:54:48.415Z</time>
      </trkpt>
      <trkpt lat="47.391783" lon="7.852784">
        <ele>576.665214</ele>
        <time>2021-11-18T21:54:50.642Z</time>
      </trkpt>
      <trkpt lat="47.392434" lon="7.853433">
        <ele>567.733093</ele>
        <time>2021-11-18T21:55:00.172Z</time>
      </trkpt>
      <trkpt lat="47.392531" lon="7.853545">
        <ele>566.826194</ele>
        <time>2021-11-18T21:55:01.663Z</time>
      </trkpt>
      <trkpt lat="47.392606" lon="7.853710">
        <ele>565.835126</ele>
        <time>2021-11-18T21:55:03.291Z</time>
      </trkpt>
      <trkpt lat="47.392723" lon="7.853869">
        <ele>564.664047</ele>
        <time>2021-11-18T21:55:05.392Z</time>
      </trkpt>
      <trkpt lat="47.392826" lon="7.854008">
        <ele>563.636381</ele>
        <time>2021-11-18T21:55:07.065Z</time>
      </trkpt>
      <trkpt lat="47.393127" lon="7.854024">
        <ele>561.417734</ele>
        <time>2021-11-18T21:55:10.972Z</time>
      </trkpt>
      <trkpt lat="47.393189" lon="7.854045">
        <ele>560.949181</ele>
        <time>2021-11-18T21:55:11.751Z</time>
      </trkpt>
      <trkpt lat="47.393275" lon="7.853890">
        <ele>559.949820</ele>
        <time>2021-11-18T21:55:13.613Z</time>
      </trkpt>
      <trkpt lat="47.393398" lon="7.853765">
        <ele>558.850076</ele>
        <time>2021-11-18T21:55:15.549Z</time>
      </trkpt>
      <trkpt lat="47.393675" lon="7.853681">
        <ele>556.767101</ele>
        <time>2021-11-18T21:55:19.257Z</time>
      </trkpt>
      <trkpt lat="47.393781" lon="7.853664">
        <ele>555.981700</ele>
        <time>2021-11-18T21:55:20.584Z</time>
      </trkpt>
      <trkpt lat="47.393826" lon="7.853658">
        <ele>555.648876</ele>
        <time>2021-11-18T21:55:21.145Z</time>
      </trkpt>
      <trkpt lat="47.394105" lon="7.853679">
        <ele>554.439485</ele>
        <time>2021-11-18T21:55:25.061Z</time>
      </trkpt>
      <trkpt lat="47.394696" lon="7.853664">
        <ele>552.466754</ele>
        <time>2021-11-18T21:55:33.601Z</time>
      </trkpt>
      <trkpt lat="47.395089" lon="7.853542">
        <ele>551.126483</ele>
        <time>2021-11-18T21:55:39.637Z</time>
      </trkpt>
      <trkpt lat="47.395123" lon="7.853546">
        <ele>551.012650</ele>
        <time>2021-11-18T21:55:40.068Z</time>
      </trkpt>
      <trkpt lat="47.395202" lon="7.853591">
        <ele>550.730068</ele>
        <time>2021-11-18T21:55:41.267Z</time>
      </trkpt>
      <trkpt lat="47.395275" lon="7.853638">
        <ele>550.464299</ele>
        <time>2021-11-18T21:55:42.655Z</time>
      </trkpt>
      <trkpt lat="47.395464" lon="7.853851">
        <ele>549.670916</ele>
        <time>2021-11-18T21:55:46.211Z</time>
      </trkpt>
      <trkpt lat="47.395509" lon="7.853930">
        <ele>549.437655</ele>
        <time>2021-11-18T21:55:47.368Z</time>
      </trkpt>
      <trkpt lat="47.395568" lon="7.854054">
        <ele>549.110882</ele>
        <time>2021-11-18T21:55:49.332Z</time>
      </trkpt>
      <trkpt lat="47.395599" lon="7.854137">
        <ele>548.972538</ele>
        <time>2021-11-18T21:55:50.680Z</time>
      </trkpt>
      <trkpt lat="47.395681" lon="7.854098">
        <ele>548.786818</ele>
        <time>2021-11-18T21:55:51.872Z</time>
      </trkpt>
      <trkpt lat="47.396618" lon="7.853483">
        <ele>546.576330</ele>
        <time>2021-11-18T21:56:08.105Z</time>
      </trkpt>
      <trkpt lat="47.397017" lon="7.853300">
        <ele>545.675623</ele>
        <time>2021-11-18T21:56:14.602Z</time>
      </trkpt>
      <trkpt lat="47.397100" lon="7.853327">
        <ele>545.492396</ele>
        <time>2021-11-18T21:56:15.840Z</time>
      </trkpt>
      <trkpt lat="47.397171" lon="7.853390">
        <ele>545.313838</ele>
        <time>2021-11-18T21:56:17.308Z</time>
      </trkpt>
      <trkpt lat="47.397240" lon="7.853282">
        <ele>545.009828</ele>
        <time>2021-11-18T21:56:18.288Z</time>
      </trkpt>
      <trkpt lat="47.397399" lon="7.853113">
        <ele>544.363646</ele>
        <time>2021-11-18T21:56:20.379Z</time>
      </trkpt>
      <trkpt lat="47.397466" lon="7.853058">
        <ele>544.110788</ele>
        <time>2021-11-18T21:56:21.240Z</time>
      </trkpt>
      <trkpt lat="47.397512" lon="7.852929">
        <ele>543.785197</ele>
        <time>2021-11-18T21:56:22.184Z</time>
      </trkpt>
      <trkpt lat="47.397732" lon="7.852726">
        <ele>542.929500</ele>
        <time>2021-11-18T21:56:24.921Z</time>
      </trkpt>
      <trkpt lat="47.398683" lon="7.852271">
        <ele>539.631812</ele>
        <time>2021-11-18T21:56:34.868Z</time>
      </trkpt>
      <trkpt lat="47.398855" lon="7.852033">
        <ele>538.682766</ele>
        <time>2021-11-18T21:56:37.125Z</time>
      </trkpt>
      <trkpt lat="47.399381" lon="7.851687">
        <ele>536.095320</ele>
        <time>2021-11-18T21:56:42.776Z</time>
      </trkpt>
      <trkpt lat="47.400164" lon="7.851431">
        <ele>532.491556</ele>
        <time>2021-11-18T21:56:50.447Z</time>
      </trkpt>
      <trkpt lat="47.400271" lon="7.851396">
        <ele>531.999076</ele>
        <time>2021-11-18T21:56:51.447Z</time>
      </trkpt>
      <trkpt lat="47.400404" lon="7.851285">
        <ele>531.312631</ele>
        <time>2021-11-18T21:56:52.893Z</time>
      </trkpt>
      <trkpt lat="47.400801" lon="7.850539">
        <ele>527.532198</ele>
        <time>2021-11-18T21:56:58.865Z</time>
      </trkpt>
      <trkpt lat="47.402640" lon="7.849136">
        <ele>515.607379</ele>
        <time>2021-11-18T21:57:17.750Z</time>
      </trkpt>
      <trkpt lat="47.403067" lon="7.848750">
        <ele>512.825767</ele>
        <time>2021-11-18T21:57:22.389Z</time>
      </trkpt>
      <trkpt lat="47.403453" lon="7.848183">
        <ele>510.284785</ele>
        <time>2021-11-18T21:57:27.555Z</time>
      </trkpt>
      <trkpt lat="47.404016" lon="7.847743">
        <ele>508.874233</ele>
        <time>2021-11-18T21:57:34.038Z</time>
      </trkpt>
      <trkpt lat="47.404047" lon="7.847714">
        <ele>508.792974</ele>
        <time>2021-11-18T21:57:34.384Z</time>
      </trkpt>
      <trkpt lat="47.404245" lon="7.847452">
        <ele>508.204316</ele>
        <time>2021-11-18T21:57:37.397Z</time>
      </trkpt>
      <trkpt lat="47.404354" lon="7.847312">
        <ele>507.884455</ele>
        <time>2021-11-18T21:57:39.002Z</time>
      </trkpt>
      <trkpt lat="47.404540" lon="7.847030">
        <ele>507.294234</ele>
        <time>2021-11-18T21:57:42.434Z</time>
      </trkpt>
      <trkpt lat="47.404750" lon="7.846485">
        <ele>506.613993</ele>
        <time>2021-11-18T21:57:48.156Z</time>
      </trkpt>
      <trkpt lat="47.404926" lon="7.846030">
        <ele>506.590976</ele>
        <time>2021-11-18T21:57:53.929Z</time>
      </trkpt>
      <trkpt lat="47.405496" lon="7.845083">
        <ele>506.535316</ele>
        <time>2021-11-18T21:58:08.938Z</time>
      </trkpt>
      <trkpt lat="47.406046" lon="7.844638">
        <ele>506.230877</ele>
        <time>2021-11-18T21:58:16.369Z</time>
      </trkpt>
      <trkpt lat="47.406522" lon="7.844392">
        <ele>505.375574</ele>
        <time>2021-11-18T21:58:22.930Z</time>
      </trkpt>
      <trkpt lat="47.406657" lon="7.844343">
        <ele>505.139794</ele>
        <time>2021-11-18T21:58:24.976Z</time>
      </trkpt>
      <trkpt lat="47.406729" lon="7.844331">
        <ele>505.016901</ele>
        <time>2021-11-18T21:58:25.668Z</time>
      </trkpt>
      <trkpt lat="47.407179" lon="7.844394">
        <ele>504.250239</ele>
        <time>2021-11-18T21:58:31.924Z</time>
      </trkpt>
      <trkpt lat="47.407338" lon="7.844468">
        <ele>503.967499</ele>
        <time>2021-11-18T21:58:33.548Z</time>
      </trkpt>
      <trkpt lat="47.408022" lon="7.844815">
        <ele>501.547017</ele>
        <time>2021-11-18T21:58:43.835Z</time>
      </trkpt>
      <trkpt lat="47.408130" lon="7.844887">
        <ele>501.009821</ele>
        <time>2021-11-18T21:58:45.302Z</time>
      </trkpt>
      <trkpt lat="47.408170" lon="7.844961">
        <ele>500.719221</ele>
        <time>2021-11-18T21:58:46.937Z</time>
      </trkpt>
      <trkpt lat="47.408437" lon="7.844931">
        <ele>499.505168</ele>
        <time>2021-11-18T21:58:49.383Z</time>
      </trkpt>
      <trkpt lat="47.409142" lon="7.844968">
        <ele>496.306736</ele>
        <time>2021-11-18T21:58:56.244Z</time>
      </trkpt>
      <trkpt lat="47.409210" lon="7.844968">
        <ele>495.998429</ele>
        <time>2021-11-18T21:58:56.870Z</time>
      </trkpt>
      <trkpt lat="47.409459" lon="7.844940">
        <ele>494.867262</ele>
        <time>2021-11-18T21:58:59.229Z</time>
      </trkpt>
      <trkpt lat="47.409665" lon="7.844882">
        <ele>493.918761</ele>
        <time>2021-11-18T21:59:01.196Z</time>
      </trkpt>
      <trkpt lat="47.409752" lon="7.844850">
        <ele>493.513252</ele>
        <time>2021-11-18T21:59:01.982Z</time>
      </trkpt>
      <trkpt lat="47.409830" lon="7.844820">
        <ele>493.148703</ele>
        <time>2021-11-18T21:59:02.723Z</time>
      </trkpt>
      <trkpt lat="47.409986" lon="7.844760">
        <ele>492.419605</ele>
        <time>2021-11-18T21:59:04.188Z</time>
      </trkpt>
      <trkpt lat="47.410148" lon="7.844709">
        <ele>491.670434</ele>
        <time>2021-11-18T21:59:05.748Z</time>
      </trkpt>
      <trkpt lat="47.410293" lon="7.844651">
        <ele>490.990995</ele>
        <time>2021-11-18T21:59:07.188Z</time>
      </trkpt>
      <trkpt lat="47.410433" lon="7.844607">
        <ele>490.343611</ele>
        <time>2021-11-18T21:59:08.537Z</time>
      </trkpt>
      <trkpt lat="47.411166" lon="7.844371">
        <ele>487.032479</ele>
        <time>2021-11-18T21:59:15.917Z</time>
      </trkpt>
      <trkpt lat="47.411235" lon="7.844348">
        <ele>486.835269</ele>
        <time>2021-11-18T21:59:16.685Z</time>
      </trkpt>
      <trkpt lat="47.411264" lon="7.844343">
        <ele>486.753867</ele>
        <time>2021-11-18T21:59:17.082Z</time>
      </trkpt>
      <trkpt lat="47.411785" lon="7.844178">
        <ele>485.268301</ele>
        <time>2021-11-18T21:59:22.708Z</time>
      </trkpt>
      <trkpt lat="47.412769" lon="7.843850">
        <ele>482.455918</ele>
        <time>2021-11-18T21:59:33.267Z</time>
      </trkpt>
      <trkpt lat="47.412891" lon="7.843894">
        <ele>482.117738</ele>
        <time>2021-11-18T21:59:35.088Z</time>
      </trkpt>
      <trkpt lat="47.413673" lon="7.843752">
        <ele>480.520907</ele>
        <time>2021-11-18T21:59:46.904Z</time>
      </trkpt>
      <trkpt lat="47.414534" lon="7.843769">
        <ele>478.775728</ele>
        <time>2021-11-18T22:00:00.595Z</time>
      </trkpt>
      <trkpt lat="47.414544" lon="7.843772">
        <ele>478.755047</ele>
        <time>2021-11-18T22:00:00.745Z</time>
      </trkpt>
      <trkpt lat="47.414737" lon="7.843840">
        <ele>478.508265</ele>
        <time>2021-11-18T22:00:04.278Z</time>
      </trkpt>
      <trkpt lat="47.415123" lon="7.843938">
        <ele>478.529795</ele>
        <time>2021-11-18T22:00:11.770Z</time>
      </trkpt>
      <trkpt lat="47.415184" lon="7.843954">
        <ele>478.533201</ele>
        <time>2021-11-18T22:00:13.305Z</time>
      </trkpt>
      <trkpt lat="47.416053" lon="7.844318">
        <ele>478.582855</ele>
        <time>2021-11-18T22:00:33.294Z</time>
      </trkpt>
      <trkpt lat="47.416215" lon="7.844386">
        <ele>478.592113</ele>
        <time>2021-11-18T22:00:37.824Z</time>
      </trkpt>
      <trkpt lat="47.417039" lon="7.844872">
        <ele>477.556768</ele>
        <time>2021-11-18T22:00:55.296Z</time>
      </trkpt>
      <trkpt lat="47.417634" lon="7.845250">
        <ele>476.572475</ele>
        <time>2021-11-18T22:01:05.697Z</time>
      </trkpt>
      <trkpt lat="47.417834" lon="7.845378">
        <ele>476.241237</ele>
        <time>2021-11-18T22:01:08.850Z</time>
      </trkpt>
      <trkpt lat="47.418505" lon="7.845770">
        <ele>474.182391</ele>
        <time>2021-11-18T22:01:19.329Z</time>
      </trkpt>
      <trkpt lat="47.418787" lon="7.845930">
        <ele>473.113810</ele>
        <time>2021-11-18T22:01:23.574Z</time>
      </trkpt>
      <trkpt lat="47.419677" lon="7.846349">
        <ele>469.809500</ele>
        <time>2021-11-18T22:01:36.823Z</time>
      </trkpt>
      <trkpt lat="47.420292" lon="7.846569">
        <ele>467.786587</ele>
        <time>2021-11-18T22:01:45.939Z</time>
      </trkpt>
      <trkpt lat="47.421216" lon="7.846840">
        <ele>464.825179</ele>
        <time>2021-11-18T22:01:59.892Z</time>
      </trkpt>
      <trkpt lat="47.421469" lon="7.846914">
        <ele>464.014402</ele>
        <time>2021-11-18T22:02:03.701Z</time>
      </trkpt>
      <trkpt lat="47.421782" lon="7.847034">
        <ele>463.150224</ele>
        <time>2021-11-18T22:02:08.421Z</time>
      </trkpt>
      <trkpt lat="47.422224" lon="7.847204">
        <ele>461.970468</ele>
        <time>2021-11-18T22:02:15.131Z</time>
      </trkpt>
      <trkpt lat="47.422830" lon="7.847504">
        <ele>460.319637</ele>
        <time>2021-11-18T22:02:24.707Z</time>
      </trkpt>
      <trkpt lat="47.423160" lon="7.847639">
        <ele>459.435165</ele>
        <time>2021-11-18T22:02:30.065Z</time>
      </trkpt>
      <trkpt lat="47.423175" lon="7.847645">
        <ele>459.395024</ele>
        <time>2021-11-18T22:02:30.311Z</time>
      </trkpt>
      <trkpt lat="47.423326" lon="7.847739">
        <ele>459.066672</ele>
        <time>2021-11-18T22:02:33.003Z</time>
      </trkpt>
      <trkpt lat="47.423401" lon="7.847760">
        <ele>458.949302</ele>
        <time>2021-11-18T22:02:34.266Z</time>
      </trkpt>
      <trkpt lat="47.423488" lon="7.847784">
        <ele>458.813222</ele>
        <time>2021-11-18T22:02:35.747Z</time>
      </trkpt>
      <trkpt lat="47.423788" lon="7.847858">
        <ele>458.345567</ele>
        <time>2021-11-18T22:02:40.696Z</time>
      </trkpt>
      <trkpt lat="47.423887" lon="7.847874">
        <ele>458.192439</ele>
        <time>2021-11-18T22:02:42.448Z</time>
      </trkpt>
      <trkpt lat="47.424743" lon="7.847935">
        <ele>456.874737</ele>
        <time>2021-11-18T22:02:56.676Z</time>
      </trkpt>
      <trkpt lat="47.425016" lon="7.848030">
        <ele>456.443499</ele>
        <time>2021-11-18T22:03:01.413Z</time>
      </trkpt>
      <trkpt lat="47.425093" lon="7.848037">
        <ele>456.309796</ele>
        <time>2021-11-18T22:03:02.709Z</time>
      </trkpt>
      <trkpt lat="47.425165" lon="7.848031">
        <ele>456.184464</ele>
        <time>2021-11-18T22:03:03.791Z</time>
      </trkpt>
      <trkpt lat="47.427648" lon="7.848283">
        <ele>451.840766</ele>
        <time>2021-11-18T22:03:43.749Z</time>
      </trkpt>
      <trkpt lat="47.428268" lon="7.848175">
        <ele>450.742229</ele>
        <time>2021-11-18T22:03:53.849Z</time>
      </trkpt>
      <trkpt lat="47.428781" lon="7.847991">
        <ele>449.748351</ele>
        <time>2021-11-18T22:04:02.287Z</time>
      </trkpt>
      <trkpt lat="47.429321" lon="7.847805">
        <ele>448.584180</ele>
        <time>2021-11-18T22:04:11.185Z</time>
      </trkpt>
      <trkpt lat="47.429436" lon="7.847758">
        <ele>448.333664</ele>
        <time>2021-11-18T22:04:13.012Z</time>
      </trkpt>
      <trkpt lat="47.430098" lon="7.847528">
        <ele>446.905837</ele>
        <time>2021-11-18T22:04:23.600Z</time>
      </trkpt>
      <trkpt lat="47.430641" lon="7.847433">
        <ele>445.671052</ele>
        <time>2021-11-18T22:04:31.841Z</time>
      </trkpt>
      <trkpt lat="47.431292" lon="7.847484">
        <ele>444.109371</ele>
        <time>2021-11-18T22:04:41.539Z</time>
      </trkpt>
      <trkpt lat="47.431726" lon="7.847615">
        <ele>443.048257</ele>
        <time>2021-11-18T22:04:48.414Z</time>
      </trkpt>
      <trkpt lat="47.432368" lon="7.847858">
        <ele>441.650466</ele>
        <time>2021-11-18T22:04:58.873Z</time>
      </trkpt>
      <trkpt lat="47.432515" lon="7.847914">
        <ele>441.401107</ele>
        <time>2021-11-18T22:05:01.422Z</time>
      </trkpt>
      <trkpt lat="47.433365" lon="7.848309">
        <ele>439.937486</ele>
        <time>2021-11-18T22:05:15.724Z</time>
      </trkpt>
      <trkpt lat="47.433528" lon="7.848396">
        <ele>439.652816</ele>
        <time>2021-11-18T22:05:18.740Z</time>
      </trkpt>
      <trkpt lat="47.433795" lon="7.848524">
        <ele>439.191742</ele>
        <time>2021-11-18T22:05:23.348Z</time>
      </trkpt>
      <trkpt lat="47.434500" lon="7.848920">
        <ele>437.763860</ele>
        <time>2021-11-18T22:05:35.861Z</time>
      </trkpt>
      <trkpt lat="47.435382" lon="7.849555">
        <ele>435.889082</ele>
        <time>2021-11-18T22:05:50.985Z</time>
      </trkpt>
      <trkpt lat="47.436050" lon="7.850036">
        <ele>434.711216</ele>
        <time>2021-11-18T22:06:02.711Z</time>
      </trkpt>
      <trkpt lat="47.436479" lon="7.850260">
        <ele>434.016632</ele>
        <time>2021-11-18T22:06:10.251Z</time>
      </trkpt>
      <trkpt lat="47.436538" lon="7.850283">
        <ele>433.923481</ele>
        <time>2021-11-18T22:06:11.119Z</time>
      </trkpt>
      <trkpt lat="47.436663" lon="7.850327">
        <ele>433.727315</ele>
        <time>2021-11-18T22:06:13.532Z</time>
      </trkpt>
      <trkpt lat="47.437310" lon="7.850269">
        <ele>432.813228</ele>
        <time>2021-11-18T22:06:24.659Z</time>
      </trkpt>
      <trkpt lat="47.437750" lon="7.850017">
        <ele>432.380521</ele>
        <time>2021-11-18T22:06:33.240Z</time>
      </trkpt>
      <trkpt lat="47.438127" lon="7.849642">
        <ele>431.963840</ele>
        <time>2021-11-18T22:06:41.613Z</time>
      </trkpt>
      <trkpt lat="47.442391" lon="7.843670">
        <ele>424.782069</ele>
        <time>2021-11-18T22:08:20.908Z</time>
      </trkpt>
      <trkpt lat="47.443079" lon="7.842585">
        <ele>422.816232</ele>
        <time>2021-11-18T22:08:36.987Z</time>
      </trkpt>
      <trkpt lat="47.444584" lon="7.839628">
        <ele>416.817716</ele>
        <time>2021-11-18T22:09:15.113Z</time>
      </trkpt>
      <trkpt lat="47.445072" lon="7.838787">
        <ele>414.750534</ele>
        <time>2021-11-18T22:09:26.225Z</time>
      </trkpt>
      <trkpt lat="47.445528" lon="7.838233">
        <ele>413.016720</ele>
        <time>2021-11-18T22:09:34.933Z</time>
      </trkpt>
      <trkpt lat="47.446064" lon="7.837840">
        <ele>411.259116</ele>
        <time>2021-11-18T22:09:43.747Z</time>
      </trkpt>
      <trkpt lat="47.446145" lon="7.837696">
        <ele>410.886993</ele>
        <time>2021-11-18T22:09:45.621Z</time>
      </trkpt>
      <trkpt lat="47.447146" lon="7.836805">
        <ele>407.630058</ele>
        <time>2021-11-18T22:10:02.974Z</time>
      </trkpt>
      <trkpt lat="47.447711" lon="7.836234">
        <ele>405.731328</ele>
        <time>2021-11-18T22:10:13.239Z</time>
      </trkpt>
      <trkpt lat="47.448622" lon="7.835311">
        <ele>403.193092</ele>
        <time>2021-11-18T22:10:30.018Z</time>
      </trkpt>
      <trkpt lat="47.448978" lon="7.835062">
        <ele>402.294905</ele>
        <time>2021-11-18T22:10:36.136Z</time>
      </trkpt>
      <trkpt lat="47.448956" lon="7.834983">
        <ele>402.163133</ele>
        <time>2021-11-18T22:10:37.047Z</time>
      </trkpt>
      <trkpt lat="47.449275" lon="7.834788">
        <ele>401.445346</ele>
        <time>2021-11-18T22:10:40.917Z</time>
      </trkpt>
      <trkpt lat="47.449505" lon="7.834629">
        <ele>401.147105</ele>
        <time>2021-11-18T22:10:43.841Z</time>
      </trkpt>
      <trkpt lat="47.449669" lon="7.834494">
        <ele>400.926622</ele>
        <time>2021-11-18T22:10:45.955Z</time>
      </trkpt>
      <trkpt lat="47.449811" lon="7.834354">
        <ele>400.726144</ele>
        <time>2021-11-18T22:10:48.015Z</time>
      </trkpt>
      <trkpt lat="47.450016" lon="7.834124">
        <ele>400.423871</ele>
        <time>2021-11-18T22:10:51.009Z</time>
      </trkpt>
      <trkpt lat="47.451108" lon="7.832712">
        <ele>399.229905</ele>
        <time>2021-11-18T22:11:09.323Z</time>
      </trkpt>
      <trkpt lat="47.451121" lon="7.832696">
        <ele>399.224798</ele>
        <time>2021-11-18T22:11:09.504Z</time>
      </trkpt>
      <trkpt lat="47.451327" lon="7.832461">
        <ele>399.146254</ele>
        <time>2021-11-18T22:11:13.508Z</time>
      </trkpt>
      <trkpt lat="47.451426" lon="7.832356">
        <ele>399.109474</ele>
        <time>2021-11-18T22:11:15.124Z</time>
      </trkpt>
      <trkpt lat="47.451701" lon="7.832106">
        <ele>399.012020</ele>
        <time>2021-11-18T22:11:19.993Z</time>
      </trkpt>
      <trkpt lat="47.451989" lon="7.831857">
        <ele>398.911305</ele>
        <time>2021-11-18T22:11:25.024Z</time>
      </trkpt>
      <trkpt lat="47.452175" lon="7.831696">
        <ele>398.816521</ele>
        <time>2021-11-18T22:11:28.418Z</time>
      </trkpt>
      <trkpt lat="47.452373" lon="7.831505">
        <ele>398.620878</ele>
        <time>2021-11-18T22:11:31.619Z</time>
      </trkpt>
      <trkpt lat="47.452618" lon="7.831252">
        <ele>398.373577</ele>
        <time>2021-11-18T22:11:35.802Z</time>
      </trkpt>
      <trkpt lat="47.453208" lon="7.830516">
        <ele>397.734781</ele>
        <time>2021-11-18T22:11:45.356Z</time>
      </trkpt>
      <trkpt lat="47.453250" lon="7.830464">
        <ele>397.689449</ele>
        <time>2021-11-18T22:11:46.027Z</time>
      </trkpt>
      <trkpt lat="47.453398" lon="7.830308">
        <ele>397.539038</ele>
        <time>2021-11-18T22:11:48.303Z</time>
      </trkpt>
      <trkpt lat="47.453492" lon="7.830220">
        <ele>397.446967</ele>
        <time>2021-11-18T22:11:49.518Z</time>
      </trkpt>
      <trkpt lat="47.453757" lon="7.829984">
        <ele>396.916518</ele>
        <time>2021-11-18T22:11:53.134Z</time>
      </trkpt>
      <trkpt lat="47.453989" lon="7.829813">
        <ele>396.381673</ele>
        <time>2021-11-18T22:11:55.898Z</time>
      </trkpt>
      <trkpt lat="47.454287" lon="7.829611">
        <ele>395.705297</ele>
        <time>2021-11-18T22:11:59.346Z</time>
      </trkpt>
      <trkpt lat="47.454472" lon="7.829506">
        <ele>395.296441</ele>
        <time>2021-11-18T22:12:01.587Z</time>
      </trkpt>
      <trkpt lat="47.454625" lon="7.829495">
        <ele>394.980382</ele>
        <time>2021-11-18T22:12:03.154Z</time>
      </trkpt>
      <trkpt lat="47.454803" lon="7.829577">
        <ele>394.595708</ele>
        <time>2021-11-18T22:12:05.248Z</time>
      </trkpt>
      <trkpt lat="47.455119" lon="7.829864">
        <ele>393.830570</ele>
        <time>2021-11-18T22:12:09.212Z</time>
      </trkpt>
      <trkpt lat="47.455185" lon="7.829882">
        <ele>393.692096</ele>
        <time>2021-11-18T22:12:09.860Z</time>
      </trkpt>
      <trkpt lat="47.455265" lon="7.829874">
        <ele>393.583604</ele>
        <time>2021-11-18T22:12:10.690Z</time>
      </trkpt>
      <trkpt lat="47.455471" lon="7.829717">
        <ele>393.304277</ele>
        <time>2021-11-18T22:12:13.454Z</time>
      </trkpt>
      <trkpt lat="47.455556" lon="7.829615">
        <ele>393.172341</ele>
        <time>2021-11-18T22:12:14.555Z</time>
      </trkpt>
      <trkpt lat="47.455584" lon="7.829685">
        <ele>393.106057</ele>
        <time>2021-11-18T22:12:15.593Z</time>
      </trkpt>
      <trkpt lat="47.455626" lon="7.829799">
        <ele>393.000251</ele>
        <time>2021-11-18T22:12:17.126Z</time>
      </trkpt>
      <trkpt lat="47.455644" lon="7.829891">
        <ele>392.922196</ele>
        <time>2021-11-18T22:12:18.441Z</time>
      </trkpt>
      <trkpt lat="47.455667" lon="7.830016">
        <ele>392.816617</ele>
        <time>2021-11-18T22:12:19.786Z</time>
      </trkpt>
      <trkpt lat="47.455686" lon="7.830084">
        <ele>392.756652</ele>
        <time>2021-11-18T22:12:20.555Z</time>
      </trkpt>
      <trkpt lat="47.456217" lon="7.829960">
        <ele>392.108696</ele>
        <time>2021-11-18T22:12:29.974Z</time>
      </trkpt>
      <trkpt lat="47.456508" lon="7.829890">
        <ele>391.753338</ele>
        <time>2021-11-18T22:12:35.105Z</time>
      </trkpt>
      <trkpt lat="47.456847" lon="7.829841">
        <ele>391.409014</ele>
        <time>2021-11-18T22:12:42.031Z</time>
      </trkpt>
      <trkpt lat="47.457427" lon="7.829810">
        <ele>391.012521</ele>
        <time>2021-11-18T22:12:53.364Z</time>
      </trkpt>
      <trkpt lat="47.457731" lon="7.829812">
        <ele>390.804838</ele>
        <time>2021-11-18T22:12:58.833Z</time>
      </trkpt>
      <trkpt lat="47.458230" lon="7.829919">
        <ele>390.460375</ele>
        <time>2021-11-18T22:13:07.874Z</time>
      </trkpt>
      <trkpt lat="47.458385" lon="7.829959">
        <ele>390.352885</ele>
        <time>2021-11-18T22:13:09.818Z</time>
      </trkpt>
      <trkpt lat="47.458483" lon="7.830002">
        <ele>390.283051</ele>
        <time>2021-11-18T22:13:10.947Z</time>
      </trkpt>
      <trkpt lat="47.458605" lon="7.829769">
        <ele>390.001426</ele>
        <time>2021-11-18T22:13:13.240Z</time>
      </trkpt>
      <trkpt lat="47.458779" lon="7.829408">
        <ele>389.548279</ele>
        <time>2021-11-18T22:13:16.671Z</time>
      </trkpt>
      <trkpt lat="47.458992" lon="7.829105">
        <ele>389.101513</ele>
        <time>2021-11-18T22:13:20.073Z</time>
      </trkpt>
      <trkpt lat="47.459456" lon="7.828693">
        <ele>388.283367</ele>
        <time>2021-11-18T22:13:26.326Z</time>
      </trkpt>
      <trkpt lat="47.459537" lon="7.828672">
        <ele>388.159049</ele>
        <time>2021-11-18T22:13:27.171Z</time>
      </trkpt>
      <trkpt lat="47.459940" lon="7.828652">
        <ele>387.549474</ele>
        <time>2021-11-18T22:13:31.625Z</time>
      </trkpt>
      <trkpt lat="47.460628" lon="7.828763">
        <ele>387.092640</ele>
        <time>2021-11-18T22:13:39.806Z</time>
      </trkpt>
      <trkpt lat="47.460850" lon="7.828883">
        <ele>386.936942</ele>
        <time>2021-11-18T22:13:43.018Z</time>
      </trkpt>
      <trkpt lat="47.461332" lon="7.829658">
        <ele>386.467960</ele>
        <time>2021-11-18T22:13:52.910Z</time>
      </trkpt>
      <trkpt lat="47.461473" lon="7.829886">
        <ele>386.381907</ele>
        <time>2021-11-18T22:13:56.201Z</time>
      </trkpt>
      <trkpt lat="47.461548" lon="7.829918">
        <ele>386.411708</ele>
        <time>2021-11-18T22:13:57.485Z</time>
      </trkpt>
      <trkpt lat="47.461585" lon="7.830158">
        <ele>386.475245</ele>
        <time>2021-11-18T22:14:00.245Z</time>
      </trkpt>
      <trkpt lat="47.461787" lon="7.831158">
        <ele>386.744632</ele>
        <time>2021-11-18T22:14:11.413Z</time>
      </trkpt>
      <trkpt lat="47.461918" lon="7.831668">
        <ele>386.885450</ele>
        <time>2021-11-18T22:14:17.401Z</time>
      </trkpt>
      <trkpt lat="47.462048" lon="7.832204">
        <ele>387.032430</ele>
        <time>2021-11-18T22:14:24.260Z</time>
      </trkpt>
      <trkpt lat="47.462080" lon="7.832335">
        <ele>387.090337</ele>
        <time>2021-11-18T22:14:25.889Z</time>
      </trkpt>
      <trkpt lat="47.462179" lon="7.832744">
        <ele>387.334016</ele>
        <time>2021-11-18T22:14:31.089Z</time>
      </trkpt>
      <trkpt lat="47.462217" lon="7.832953">
        <ele>387.455414</ele>
        <time>2021-11-18T22:14:33.933Z</time>
      </trkpt>
      <trkpt lat="47.462285" lon="7.833721">
        <ele>387.889881</ele>
        <time>2021-11-18T22:14:43.440Z</time>
      </trkpt>
      <trkpt lat="47.462296" lon="7.833933">
        <ele>388.009146</ele>
        <time>2021-11-18T22:14:46.388Z</time>
      </trkpt>
      <trkpt lat="47.462317" lon="7.834216">
        <ele>388.168840</ele>
        <time>2021-11-18T22:14:49.898Z</time>
      </trkpt>
      <trkpt lat="47.462357" lon="7.834782">
        <ele>388.488051</ele>
        <time>2021-11-18T22:14:56.660Z</time>
      </trkpt>
      <trkpt lat="47.462375" lon="7.834910">
        <ele>388.566484</ele>
        <time>2021-11-18T22:14:58.444Z</time>
      </trkpt>
      <trkpt lat="47.462388" lon="7.834991">
        <ele>388.625434</ele>
        <time>2021-11-18T22:14:59.474Z</time>
      </trkpt>
      <trkpt lat="47.462586" lon="7.835900">
        <ele>389.301672</ele>
        <time>2021-11-18T22:15:10.622Z</time>
      </trkpt>
      <trkpt lat="47.462666" lon="7.836201">
        <ele>389.530686</ele>
        <time>2021-11-18T22:15:14.733Z</time>
      </trkpt>
      <trkpt lat="47.462700" lon="7.836337">
        <ele>389.633359</ele>
        <time>2021-11-18T22:15:16.606Z</time>
      </trkpt>
      <trkpt lat="47.462730" lon="7.836472">
        <ele>389.733983</ele>
        <time>2021-11-18T22:15:18.328Z</time>
      </trkpt>
      <trkpt lat="47.462748" lon="7.836556">
        <ele>389.796379</ele>
        <time>2021-11-18T22:15:19.216Z</time>
      </trkpt>
      <trkpt lat="47.462851" lon="7.837404">
        <ele>390.406451</ele>
        <time>2021-11-18T22:15:31.828Z</time>
      </trkpt>
      <trkpt lat="47.462856" lon="7.837506">
        <ele>390.474792</ele>
        <time>2021-11-18T22:15:33.720Z</time>
      </trkpt>
      <trkpt lat="47.462865" lon="7.837711">
        <ele>390.609092</ele>
        <time>2021-11-18T22:15:36.128Z</time>
      </trkpt>
      <trkpt lat="47.462869" lon="7.837866">
        <ele>390.710496</ele>
        <time>2021-11-18T22:15:38.085Z</time>
      </trkpt>
      <trkpt lat="47.462871" lon="7.837954">
        <ele>390.768058</ele>
        <time>2021-11-18T22:15:39.614Z</time>
      </trkpt>
      <trkpt lat="47.462873" lon="7.838016">
        <ele>390.808636</ele>
        <time>2021-11-18T22:15:40.656Z</time>
      </trkpt>
      <trkpt lat="47.462883" lon="7.838488">
        <ele>391.117355</ele>
        <time>2021-11-18T22:15:46.790Z</time>
      </trkpt>
      <trkpt lat="47.462936" lon="7.838934">
        <ele>391.413394</ele>
        <time>2021-11-18T22:15:52.131Z</time>
      </trkpt>
      <trkpt lat="47.462967" lon="7.839047">
        <ele>391.493118</ele>
        <time>2021-11-18T22:15:53.829Z</time>
      </trkpt>
      <trkpt lat="47.462982" lon="7.839106">
        <ele>391.534326</ele>
        <time>2021-11-18T22:15:54.768Z</time>
      </trkpt>
      <trkpt lat="47.463043" lon="7.839292">
        <ele>391.669473</ele>
        <time>2021-11-18T22:15:56.584Z</time>
      </trkpt>
      <trkpt lat="47.463133" lon="7.839561">
        <ele>391.865686</ele>
        <time>2021-11-18T22:16:00.490Z</time>
      </trkpt>
      <trkpt lat="47.463287" lon="7.840028">
        <ele>392.155275</ele>
        <time>2021-11-18T22:16:06.525Z</time>
      </trkpt>
      <trkpt lat="47.463588" lon="7.840904">
        <ele>391.999793</ele>
        <time>2021-11-18T22:16:17.820Z</time>
      </trkpt>
      <trkpt lat="47.463616" lon="7.840992">
        <ele>391.984404</ele>
        <time>2021-11-18T22:16:18.898Z</time>
      </trkpt>
      <trkpt lat="47.463685" lon="7.841203">
        <ele>391.947317</ele>
        <time>2021-11-18T22:16:20.841Z</time>
      </trkpt>
      <trkpt lat="47.463874" lon="7.841863">
        <ele>391.833906</ele>
        <time>2021-11-18T22:16:27.129Z</time>
      </trkpt>
      <trkpt lat="47.463922" lon="7.842123">
        <ele>391.791260</ele>
        <time>2021-11-18T22:16:29.113Z</time>
      </trkpt>
      <trkpt lat="47.463971" lon="7.842355">
        <ele>391.752802</ele>
        <time>2021-11-18T22:16:31.676Z</time>
      </trkpt>
      <trkpt lat="47.464053" lon="7.842690">
        <ele>391.758390</ele>
        <time>2021-11-18T22:16:34.477Z</time>
      </trkpt>
      <trkpt lat="47.464075" lon="7.842774">
        <ele>391.762672</ele>
        <time>2021-11-18T22:16:35.675Z</time>
      </trkpt>
      <trkpt lat="47.464165" lon="7.843130">
        <ele>391.780740</ele>
        <time>2021-11-18T22:16:38.800Z</time>
      </trkpt>
      <trkpt lat="47.464176" lon="7.843178">
        <ele>391.783149</ele>
        <time>2021-11-18T22:16:39.285Z</time>
      </trkpt>
      <trkpt lat="47.464234" lon="7.843434">
        <ele>391.795984</ele>
        <time>2021-11-18T22:16:42.349Z</time>
      </trkpt>
      <trkpt lat="47.464354" lon="7.843960">
        <ele>391.822374</ele>
        <time>2021-11-18T22:16:48.366Z</time>
      </trkpt>
      <trkpt lat="47.464386" lon="7.844088">
        <ele>391.828861</ele>
        <time>2021-11-18T22:16:49.708Z</time>
      </trkpt>
      <trkpt lat="47.464433" lon="7.844273">
        <ele>391.838256</ele>
        <time>2021-11-18T22:16:52.192Z</time>
      </trkpt>
      <trkpt lat="47.464585" lon="7.844988">
        <ele>391.917313</ele>
        <time>2021-11-18T22:17:00.705Z</time>
      </trkpt>
      <trkpt lat="47.464737" lon="7.846119">
        <ele>392.685411</ele>
        <time>2021-11-18T22:17:14.814Z</time>
      </trkpt>
      <trkpt lat="47.464771" lon="7.847028">
        <ele>393.291819</ele>
        <time>2021-11-18T22:17:26.924Z</time>
      </trkpt>
      <trkpt lat="47.464784" lon="7.847333">
        <ele>393.495382</ele>
        <time>2021-11-18T22:17:30.904Z</time>
      </trkpt>
      <trkpt lat="47.464820" lon="7.847644">
        <ele>393.728429</ele>
        <time>2021-11-18T22:17:35.175Z</time>
      </trkpt>
      <trkpt lat="47.464850" lon="7.847870">
        <ele>393.937704</ele>
        <time>2021-11-18T22:17:38.092Z</time>
      </trkpt>
      <trkpt lat="47.464909" lon="7.848219">
        <ele>394.264584</ele>
        <time>2021-11-18T22:17:43.158Z</time>
      </trkpt>
      <trkpt lat="47.464952" lon="7.848443">
        <ele>394.476167</ele>
        <time>2021-11-18T22:17:46.346Z</time>
      </trkpt>
      <trkpt lat="47.465152" lon="7.849351">
        <ele>395.343899</ele>
        <time>2021-11-18T22:17:59.605Z</time>
      </trkpt>
      <trkpt lat="47.465348" lon="7.849875">
        <ele>395.888044</ele>
        <time>2021-11-18T22:18:07.830Z</time>
      </trkpt>
      <trkpt lat="47.465558" lon="7.850405">
        <ele>396.390073</ele>
        <time>2021-11-18T22:18:16.131Z</time>
      </trkpt>
      <trkpt lat="47.465620" lon="7.850585">
        <ele>396.546924</ele>
        <time>2021-11-18T22:18:18.733Z</time>
      </trkpt>
      <trkpt lat="47.465714" lon="7.850917">
        <ele>396.826391</ele>
        <time>2021-11-18T22:18:23.374Z</time>
      </trkpt>
      <trkpt lat="47.465829" lon="7.851383">
        <ele>397.211558</ele>
        <time>2021-11-18T22:18:29.735Z</time>
      </trkpt>
      <trkpt lat="47.465804" lon="7.851399">
        <ele>397.242842</ele>
        <time>2021-11-18T22:18:30.291Z</time>
      </trkpt>
      <trkpt lat="47.465765" lon="7.851501">
        <ele>397.333827</ele>
        <time>2021-11-18T22:18:31.771Z</time>
      </trkpt>
      <trkpt lat="47.465770" lon="7.851542">
        <ele>397.366174</ele>
        <time>2021-11-18T22:18:32.322Z</time>
      </trkpt>
      <trkpt lat="47.465781" lon="7.851575">
        <ele>397.394741</ele>
        <time>2021-11-18T22:18:32.803Z</time>
      </trkpt>
      <trkpt lat="47.465821" lon="7.851619">
        <ele>397.451991</ele>
        <time>2021-11-18T22:18:33.710Z</time>
      </trkpt>
      <trkpt lat="47.465846" lon="7.851625">
        <ele>397.481079</ele>
        <time>2021-11-18T22:18:34.190Z</time>
      </trkpt>
      <trkpt lat="47.465871" lon="7.851620">
        <ele>397.510053</ele>
        <time>2021-11-18T22:18:34.642Z</time>
      </trkpt>
      <trkpt lat="47.465906" lon="7.851776">
        <ele>397.637671</ele>
        <time>2021-11-18T22:18:36.867Z</time>
      </trkpt>
      <trkpt lat="47.466256" lon="7.853287">
        <ele>399.073856</ele>
        <time>2021-11-18T22:18:58.022Z</time>
      </trkpt>
      <trkpt lat="47.466331" lon="7.853936">
        <ele>399.718368</ele>
        <time>2021-11-18T22:19:07.548Z</time>
      </trkpt>
      <trkpt lat="47.466338" lon="7.854554">
        <ele>400.323404</ele>
        <time>2021-11-18T22:19:16.115Z</time>
      </trkpt>
      <trkpt lat="47.466332" lon="7.854775">
        <ele>400.539912</ele>
        <time>2021-11-18T22:19:19.292Z</time>
      </trkpt>
      <trkpt lat="47.466324" lon="7.855062">
        <ele>400.829702</ele>
        <time>2021-11-18T22:19:23.556Z</time>
      </trkpt>
      <trkpt lat="47.466298" lon="7.855895">
        <ele>401.723492</ele>
        <time>2021-11-18T22:19:35.735Z</time>
      </trkpt>
      <trkpt lat="47.466295" lon="7.856234">
        <ele>402.086876</ele>
        <time>2021-11-18T22:19:40.969Z</time>
      </trkpt>
      <trkpt lat="47.466298" lon="7.856354">
        <ele>402.215584</ele>
        <time>2021-11-18T22:19:42.646Z</time>
      </trkpt>
      <trkpt lat="47.466271" lon="7.856363">
        <ele>402.259466</ele>
        <time>2021-11-18T22:19:43.248Z</time>
      </trkpt>
      <trkpt lat="47.466237" lon="7.856421">
        <ele>402.341750</ele>
        <time>2021-11-18T22:19:44.284Z</time>
      </trkpt>
      <trkpt lat="47.466235" lon="7.856461">
        <ele>402.384741</ele>
        <time>2021-11-18T22:19:44.801Z</time>
      </trkpt>
      <trkpt lat="47.466243" lon="7.856497">
        <ele>402.425358</ele>
        <time>2021-11-18T22:19:45.444Z</time>
      </trkpt>
      <trkpt lat="47.466284" lon="7.856540">
        <ele>402.505044</ele>
        <time>2021-11-18T22:19:46.597Z</time>
      </trkpt>
      <trkpt lat="47.466310" lon="7.856541">
        <ele>402.546281</ele>
        <time>2021-11-18T22:19:47.139Z</time>
      </trkpt>
      <trkpt lat="47.466322" lon="7.856655">
        <ele>402.669943</ele>
        <time>2021-11-18T22:19:48.914Z</time>
      </trkpt>
      <trkpt lat="47.466344" lon="7.856945">
        <ele>402.982726</ele>
        <time>2021-11-18T22:19:52.689Z</time>
      </trkpt>
      <trkpt lat="47.466347" lon="7.856973">
        <ele>403.013112</ele>
        <time>2021-11-18T22:19:53.357Z</time>
      </trkpt>
      <trkpt lat="47.466518" lon="7.858022">
        <ele>403.970079</ele>
        <time>2021-11-18T22:20:07.960Z</time>
      </trkpt>
      <trkpt lat="47.466576" lon="7.858236">
        <ele>404.133241</ele>
        <time>2021-11-18T22:20:10.882Z</time>
      </trkpt>
      <trkpt lat="47.466673" lon="7.858620">
        <ele>404.423342</ele>
        <time>2021-11-18T22:20:17.517Z</time>
      </trkpt>
      <trkpt lat="47.466824" lon="7.859137">
        <ele>404.821900</ele>
        <time>2021-11-18T22:20:26.875Z</time>
      </trkpt>
      <trkpt lat="47.466922" lon="7.859398">
        <ele>405.033182</ele>
        <time>2021-11-18T22:20:31.424Z</time>
      </trkpt>
      <trkpt lat="47.467047" lon="7.859682">
        <ele>405.273006</ele>
        <time>2021-11-18T22:20:37.019Z</time>
      </trkpt>
      <trkpt lat="47.467266" lon="7.860107">
        <ele>405.649880</ele>
        <time>2021-11-18T22:20:45.874Z</time>
      </trkpt>
      <trkpt lat="47.467944" lon="7.861300">
        <ele>406.745123</ele>
        <time>2021-11-18T22:21:10.592Z</time>
      </trkpt>
      <trkpt lat="47.468224" lon="7.861805">
        <ele>407.204091</ele>
        <time>2021-11-18T22:21:21.908Z</time>
      </trkpt>
      <trkpt lat="47.468543" lon="7.862357">
        <ele>407.967310</ele>
        <time>2021-11-18T22:21:34.597Z</time>
      </trkpt>
      <trkpt lat="47.468825" lon="7.862900">
        <ele>408.769011</ele>
        <time>2021-11-18T22:21:47.241Z</time>
      </trkpt>
      <trkpt lat="47.468859" lon="7.862978">
        <ele>408.877673</ele>
        <time>2021-11-18T22:21:49.041Z</time>
      </trkpt>
      <trkpt lat="47.468943" lon="7.863195">
        <ele>409.170444</ele>
        <time>2021-11-18T22:21:53.543Z</time>
      </trkpt>
      <trkpt lat="47.468986" lon="7.863323">
        <ele>409.337791</ele>
        <time>2021-11-18T22:21:56.211Z</time>
      </trkpt>
      <trkpt lat="47.469011" lon="7.863405">
        <ele>409.443109</ele>
        <time>2021-11-18T22:21:58.348Z</time>
      </trkpt>
      <trkpt lat="47.469305" lon="7.864692">
        <ele>410.943064</ele>
        <time>2021-11-18T22:22:23.501Z</time>
      </trkpt>
      <trkpt lat="47.469629" lon="7.865918">
        <ele>412.245095</ele>
        <time>2021-11-18T22:22:47.516Z</time>
      </trkpt>
      <trkpt lat="47.469710" lon="7.866208">
        <ele>412.555459</ele>
        <time>2021-11-18T22:22:52.496Z</time>
      </trkpt>
      <trkpt lat="47.469764" lon="7.866452">
        <ele>412.809406</ele>
        <time>2021-11-18T22:22:56.797Z</time>
      </trkpt>
      <trkpt lat="47.469808" lon="7.866690">
        <ele>413.053459</ele>
        <time>2021-11-18T22:23:00.652Z</time>
      </trkpt>
      <trkpt lat="47.469915" lon="7.867494">
        <ele>413.445541</ele>
        <time>2021-11-18T22:23:13.816Z</time>
      </trkpt>
      <trkpt lat="47.470127" lon="7.868484">
        <ele>413.923233</ele>
        <time>2021-11-18T22:23:29.212Z</time>
      </trkpt>
      <trkpt lat="47.470234" lon="7.868884">
        <ele>414.121110</ele>
        <time>2021-11-18T22:23:35.638Z</time>
      </trkpt>
      <trkpt lat="47.470309" lon="7.869201">
        <ele>414.275599</ele>
        <time>2021-11-18T22:23:41.008Z</time>
      </trkpt>
      <trkpt lat="47.470378" lon="7.869626">
        <ele>414.644849</ele>
        <time>2021-11-18T22:23:47.775Z</time>
      </trkpt>
      <trkpt lat="47.470397" lon="7.870147">
        <ele>415.121012</ele>
        <time>2021-11-18T22:23:56.509Z</time>
      </trkpt>
      <trkpt lat="47.470379" lon="7.870338">
        <ele>415.297007</ele>
        <time>2021-11-18T22:24:00.056Z</time>
      </trkpt>
      <trkpt lat="47.470350" lon="7.870570">
        <ele>415.512323</ele>
        <time>2021-11-18T22:24:02.974Z</time>
      </trkpt>
      <trkpt lat="47.470333" lon="7.870669">
        <ele>415.605542</ele>
        <time>2021-11-18T22:24:04.444Z</time>
      </trkpt>
      <trkpt lat="47.470316" lon="7.870753">
        <ele>415.685564</ele>
        <time>2021-11-18T22:24:05.954Z</time>
      </trkpt>
      <trkpt lat="47.470245" lon="7.871088">
        <ele>416.005965</ele>
        <time>2021-11-18T22:24:10.468Z</time>
      </trkpt>
      <trkpt lat="47.470217" lon="7.871214">
        <ele>416.127009</ele>
        <time>2021-11-18T22:24:12.498Z</time>
      </trkpt>
      <trkpt lat="47.470156" lon="7.871491">
        <ele>416.392880</ele>
        <time>2021-11-18T22:24:16.961Z</time>
      </trkpt>
      <trkpt lat="47.469969" lon="7.872276">
        <ele>417.306969</ele>
        <time>2021-11-18T22:24:29.317Z</time>
      </trkpt>
      <trkpt lat="47.469710" lon="7.873249">
        <ele>418.613692</ele>
        <time>2021-11-18T22:24:44.565Z</time>
      </trkpt>
      <trkpt lat="47.469682" lon="7.873326">
        <ele>418.722949</ele>
        <time>2021-11-18T22:24:46.342Z</time>
      </trkpt>
      <trkpt lat="47.469626" lon="7.873477">
        <ele>418.938169</ele>
        <time>2021-11-18T22:24:48.780Z</time>
      </trkpt>
      <trkpt lat="47.469489" lon="7.873809">
        <ele>419.424226</ele>
        <time>2021-11-18T22:24:54.809Z</time>
      </trkpt>
      <trkpt lat="47.469422" lon="7.873965">
        <ele>419.655181</ele>
        <time>2021-11-18T22:24:57.411Z</time>
      </trkpt>
      <trkpt lat="47.469224" lon="7.874328">
        <ele>420.345554</ele>
        <time>2021-11-18T22:25:04.688Z</time>
      </trkpt>
      <trkpt lat="47.469173" lon="7.874432">
        <ele>420.602486</ele>
        <time>2021-11-18T22:25:06.372Z</time>
      </trkpt>
      <trkpt lat="47.469136" lon="7.874516">
        <ele>420.802978</ele>
        <time>2021-11-18T22:25:07.866Z</time>
      </trkpt>
      <trkpt lat="47.469097" lon="7.874606">
        <ele>421.016758</ele>
        <time>2021-11-18T22:25:09.711Z</time>
      </trkpt>
      <trkpt lat="47.469068" lon="7.874689">
        <ele>421.203596</ele>
        <time>2021-11-18T22:25:11.557Z</time>
      </trkpt>
      <trkpt lat="47.469050" lon="7.874738">
        <ele>421.315117</ele>
        <time>2021-11-18T22:25:12.302Z</time>
      </trkpt>
      <trkpt lat="47.468989" lon="7.874967">
        <ele>421.807328</ele>
        <time>2021-11-18T22:25:15.902Z</time>
      </trkpt>
      <trkpt lat="47.468925" lon="7.875205">
        <ele>422.319541</ele>
        <time>2021-11-18T22:25:20.385Z</time>
      </trkpt>
      <trkpt lat="47.468806" lon="7.875696">
        <ele>423.362615</ele>
        <time>2021-11-18T22:25:28.224Z</time>
      </trkpt>
      <trkpt lat="47.468698" lon="7.876140">
        <ele>424.306236</ele>
        <time>2021-11-18T22:25:36.679Z</time>
      </trkpt>
      <trkpt lat="47.468639" lon="7.876439">
        <ele>424.929115</ele>
        <time>2021-11-18T22:25:42.792Z</time>
      </trkpt>
      <trkpt lat="47.468557" lon="7.876917">
        <ele>426.722056</ele>
        <time>2021-11-18T22:25:53.701Z</time>
      </trkpt>
      <trkpt lat="47.468377" lon="7.877826">
        <ele>431.469702</ele>
        <time>2021-11-18T22:26:23.406Z</time>
      </trkpt>
      <trkpt lat="47.468327" lon="7.877957">
        <ele>432.223749</ele>
        <time>2021-11-18T22:26:28.796Z</time>
      </trkpt>
      <trkpt lat="47.468308" lon="7.877998">
        <ele>432.472906</ele>
        <time>2021-11-18T22:26:31.971Z</time>
      </trkpt>
      <trkpt lat="47.468268" lon="7.878083">
        <ele>432.992022</ele>
        <time>2021-11-18T22:26:34.747Z</time>
      </trkpt>
      <trkpt lat="47.468104" lon="7.878354">
        <ele>434.815146</ele>
        <time>2021-11-18T22:26:45.350Z</time>
      </trkpt>
      <trkpt lat="47.468067" lon="7.878427">
        <ele>435.272473</ele>
        <time>2021-11-18T22:26:50.399Z</time>
      </trkpt>
      <trkpt lat="47.467908" lon="7.878819">
        <ele>437.563871</ele>
        <time>2021-11-18T22:27:03.575Z</time>
      </trkpt>
      <trkpt lat="47.467814" lon="7.879126">
        <ele>439.058212</ele>
        <time>2021-11-18T22:27:13.956Z</time>
      </trkpt>
      <trkpt lat="47.467758" lon="7.879308">
        <ele>439.696646</ele>
        <time>2021-11-18T22:27:21.072Z</time>
      </trkpt>
      <trkpt lat="47.467695" lon="7.879712">
        <ele>441.020379</ele>
        <time>2021-11-18T22:27:33.868Z</time>
      </trkpt>
      <trkpt lat="47.467712" lon="7.880819">
        <ele>444.555632</ele>
        <time>2021-11-18T22:28:03.015Z</time>
      </trkpt>
      <trkpt lat="47.467755" lon="7.881902">
        <ele>446.793699</ele>
        <time>2021-11-18T22:28:17.358Z</time>
      </trkpt>
      <trkpt lat="47.467789" lon="7.882188">
        <ele>446.315023</ele>
        <time>2021-11-18T22:28:19.609Z</time>
      </trkpt>
      <trkpt lat="47.467832" lon="7.882502">
        <ele>445.786912</ele>
        <time>2021-11-18T22:28:21.860Z</time>
      </trkpt>
      <trkpt lat="47.468085" lon="7.883534">
        <ele>443.977360</ele>
        <time>2021-11-18T22:28:29.240Z</time>
      </trkpt>
      <trkpt lat="47.468175" lon="7.884477">
        <ele>442.475877</ele>
        <time>2021-11-18T22:28:35.573Z</time>
      </trkpt>
      <trkpt lat="47.468170" lon="7.884753">
        <ele>442.095260</ele>
        <time>2021-11-18T22:28:37.400Z</time>
      </trkpt>
      <trkpt lat="47.468165" lon="7.884973">
        <ele>441.791807</ele>
        <time>2021-11-18T22:28:39.063Z</time>
      </trkpt>
      <trkpt lat="47.468160" lon="7.885131">
        <ele>441.573757</ele>
        <time>2021-11-18T22:28:40.160Z</time>
      </trkpt>
      <trkpt lat="47.468160" lon="7.885412">
        <ele>441.186383</ele>
        <time>2021-11-18T22:28:42.185Z</time>
      </trkpt>
      <trkpt lat="47.468174" lon="7.885724">
        <ele>440.755328</ele>
        <time>2021-11-18T22:28:44.454Z</time>
      </trkpt>
      <trkpt lat="47.468250" lon="7.886308">
        <ele>439.935472</ele>
        <time>2021-11-18T22:28:48.936Z</time>
      </trkpt>
      <trkpt lat="47.468546" lon="7.888014">
        <ele>439.412711</ele>
        <time>2021-11-18T22:29:06.016Z</time>
      </trkpt>
      <trkpt lat="47.468718" lon="7.888938">
        <ele>439.617339</ele>
        <time>2021-11-18T22:29:17.363Z</time>
      </trkpt>
      <trkpt lat="47.468951" lon="7.890216">
        <ele>440.316532</ele>
        <time>2021-11-18T22:29:34.344Z</time>
      </trkpt>
      <trkpt lat="47.469288" lon="7.891996">
        <ele>441.651207</ele>
        <time>2021-11-18T22:29:58.556Z</time>
      </trkpt>
      <trkpt lat="47.469496" lon="7.893085">
        <ele>442.215193</ele>
        <time>2021-11-18T22:30:12.622Z</time>
      </trkpt>
      <trkpt lat="47.469658" lon="7.894567">
        <ele>442.963386</ele>
        <time>2021-11-18T22:30:30.085Z</time>
      </trkpt>
      <trkpt lat="47.469691" lon="7.894970">
        <ele>443.316575</ele>
        <time>2021-11-18T22:30:34.648Z</time>
      </trkpt>
      <trkpt lat="47.469714" lon="7.895204">
        <ele>443.527367</ele>
        <time>2021-11-18T22:30:37.297Z</time>
      </trkpt>
      <trkpt lat="47.469728" lon="7.895384">
        <ele>443.688886</ele>
        <time>2021-11-18T22:30:39.300Z</time>
      </trkpt>
      <trkpt lat="47.469734" lon="7.895575">
        <ele>443.859335</ele>
        <time>2021-11-18T22:30:41.701Z</time>
      </trkpt>
      <trkpt lat="47.469747" lon="7.895922">
        <ele>444.169141</ele>
        <time>2021-11-18T22:30:45.764Z</time>
      </trkpt>
      <trkpt lat="47.469738" lon="7.896220">
        <ele>444.435057</ele>
        <time>2021-11-18T22:30:50.245Z</time>
      </trkpt>
      <trkpt lat="47.469692" lon="7.896826">
        <ele>444.978668</ele>
        <time>2021-11-18T22:30:59.390Z</time>
      </trkpt>
      <trkpt lat="47.469678" lon="7.896938">
        <ele>445.080203</ele>
        <time>2021-11-18T22:31:00.954Z</time>
      </trkpt>
      <trkpt lat="47.469652" lon="7.897139">
        <ele>445.262634</ele>
        <time>2021-11-18T22:31:04.368Z</time>
      </trkpt>
      <trkpt lat="47.469598" lon="7.897405">
        <ele>445.829202</ele>
        <time>2021-11-18T22:31:08.847Z</time>
      </trkpt>
      <trkpt lat="47.469534" lon="7.897638">
        <ele>446.489829</ele>
        <time>2021-11-18T22:31:13.116Z</time>
      </trkpt>
      <trkpt lat="47.469806" lon="7.897795">
        <ele>447.624375</ele>
        <time>2021-11-18T22:31:20.362Z</time>
      </trkpt>
      <trkpt lat="47.469999" lon="7.897879">
        <ele>448.406121</ele>
        <time>2021-11-18T22:31:26.035Z</time>
      </trkpt>
      <trkpt lat="47.471002" lon="7.898222">
        <ele>452.431895</ele>
        <time>2021-11-18T22:32:01.165Z</time>
      </trkpt>
      <trkpt lat="47.471597" lon="7.898344">
        <ele>455.607286</ele>
        <time>2021-11-18T22:32:23.274Z</time>
      </trkpt>
      <trkpt lat="47.471825" lon="7.898370">
        <ele>456.816128</ele>
        <time>2021-11-18T22:32:31.231Z</time>
      </trkpt>
      <trkpt lat="47.471910" lon="7.898392">
        <ele>457.272285</ele>
        <time>2021-11-18T22:32:34.614Z</time>
      </trkpt>
      <trkpt lat="47.473317" lon="7.898945">
        <ele>464.675485</ele>
        <time>2021-11-18T22:33:27.256Z</time>
      </trkpt>
      <trkpt lat="47.473931" lon="7.899567">
        <ele>468.240887</ele>
        <time>2021-11-18T22:33:50.529Z</time>
      </trkpt>
      <trkpt lat="47.474087" lon="7.899774">
        <ele>469.244911</ele>
        <time>2021-11-18T22:33:58.049Z</time>
      </trkpt>
      <trkpt lat="47.474186" lon="7.899915">
        <ele>469.903322</ele>
        <time>2021-11-18T22:34:02.706Z</time>
      </trkpt>
      <trkpt lat="47.474336" lon="7.900125">
        <ele>470.947729</ele>
        <time>2021-11-18T22:34:09.985Z</time>
      </trkpt>
      <trkpt lat="47.474617" lon="7.900560">
        <ele>473.144576</ele>
        <time>2021-11-18T22:34:24.093Z</time>
      </trkpt>
      <trkpt lat="47.474888" lon="7.900841">
        <ele>474.932110</ele>
        <time>2021-11-18T22:34:35.420Z</time>
      </trkpt>
      <trkpt lat="47.475163" lon="7.901034">
        <ele>476.576186</ele>
        <time>2021-11-18T22:34:46.397Z</time>
      </trkpt>
      <trkpt lat="47.475300" lon="7.901112">
        <ele>477.369099</ele>
        <time>2021-11-18T22:34:52.409Z</time>
      </trkpt>
      <trkpt lat="47.476364" lon="7.901870">
        <ele>484.325465</ele>
        <time>2021-11-18T22:35:37.913Z</time>
      </trkpt>
      <trkpt lat="47.476536" lon="7.901977">
        <ele>485.496319</ele>
        <time>2021-11-18T22:35:45.800Z</time>
      </trkpt>
      <trkpt lat="47.476982" lon="7.902234">
        <ele>488.499808</ele>
        <time>2021-11-18T22:36:04.477Z</time>
      </trkpt>
      <trkpt lat="47.477127" lon="7.902341">
        <ele>489.516598</ele>
        <time>2021-11-18T22:36:11.344Z</time>
      </trkpt>
      <trkpt lat="47.477358" lon="7.902512">
        <ele>491.137468</ele>
        <time>2021-11-18T22:36:22.214Z</time>
      </trkpt>
      <trkpt lat="47.478118" lon="7.903075">
        <ele>496.187822</ele>
        <time>2021-11-18T22:36:57.544Z</time>
      </trkpt>
      <trkpt lat="47.478182" lon="7.903109">
        <ele>496.590407</ele>
        <time>2021-11-18T22:37:00.711Z</time>
      </trkpt>
      <trkpt lat="47.478367" lon="7.903166">
        <ele>497.709164</ele>
        <time>2021-11-18T22:37:07.772Z</time>
      </trkpt>
      <trkpt lat="47.480980" lon="7.903461">
        <ele>511.786956</ele>
        <time>2021-11-18T22:38:39.219Z</time>
      </trkpt>
      <trkpt lat="47.481478" lon="7.903693">
        <ele>515.278490</ele>
        <time>2021-11-18T22:38:58.790Z</time>
      </trkpt>
      <trkpt lat="47.481588" lon="7.903776">
        <ele>516.104239</ele>
        <time>2021-11-18T22:39:03.636Z</time>
      </trkpt>
      <trkpt lat="47.481709" lon="7.903892">
        <ele>517.068419</ele>
        <time>2021-11-18T22:39:09.986Z</time>
      </trkpt>
      <trkpt lat="47.482157" lon="7.904346">
        <ele>520.699697</ele>
        <time>2021-11-18T22:39:34.131Z</time>
      </trkpt>
      <trkpt lat="47.482433" lon="7.904538">
        <ele>522.739247</ele>
        <time>2021-11-18T22:39:48.093Z</time>
      </trkpt>
      <trkpt lat="47.483101" lon="7.904680">
        <ele>525.926966</ele>
        <time>2021-11-18T22:40:19.193Z</time>
      </trkpt>
      <trkpt lat="47.483329" lon="7.904705">
        <ele>526.944207</ele>
        <time>2021-11-18T22:40:27.612Z</time>
      </trkpt>
      <trkpt lat="47.483385" lon="7.904708">
        <ele>527.193535</ele>
        <time>2021-11-18T22:40:29.992Z</time>
      </trkpt>
      <trkpt lat="47.484005" lon="7.904793">
        <ele>529.963967</ele>
        <time>2021-11-18T22:40:46.219Z</time>
      </trkpt>
      <trkpt lat="47.484064" lon="7.904808">
        <ele>530.230327</ele>
        <time>2021-11-18T22:40:47.315Z</time>
      </trkpt>
      <trkpt lat="47.484124" lon="7.904824">
        <ele>530.501590</ele>
        <time>2021-11-18T22:40:48.708Z</time>
      </trkpt>
      <trkpt lat="47.484248" lon="7.904856">
        <ele>531.061641</ele>
        <time>2021-11-18T22:40:51.267Z</time>
      </trkpt>
      <trkpt lat="47.484481" lon="7.904947">
        <ele>530.791052</ele>
        <time>2021-11-18T22:40:55.636Z</time>
      </trkpt>
      <trkpt lat="47.484713" lon="7.905133">
        <ele>530.085887</ele>
        <time>2021-11-18T22:41:00.258Z</time>
      </trkpt>
      <trkpt lat="47.484936" lon="7.905289">
        <ele>529.426688</ele>
        <time>2021-11-18T22:41:02.970Z</time>
      </trkpt>
      <trkpt lat="47.485049" lon="7.905336">
        <ele>529.112997</ele>
        <time>2021-11-18T22:41:04.275Z</time>
      </trkpt>
      <trkpt lat="47.485073" lon="7.905345">
        <ele>529.046830</ele>
        <time>2021-11-18T22:41:04.486Z</time>
      </trkpt>
      <trkpt lat="47.485331" lon="7.905337">
        <ele>528.357183</ele>
        <time>2021-11-18T22:41:07.173Z</time>
      </trkpt>
      <trkpt lat="47.485593" lon="7.905145">
        <ele>527.575840</ele>
        <time>2021-11-18T22:41:10.080Z</time>
      </trkpt>
      <trkpt lat="47.486049" lon="7.904262">
        <ele>524.389626</ele>
        <time>2021-11-18T22:41:16.936Z</time>
      </trkpt>
      <trkpt lat="47.486247" lon="7.904043">
        <ele>522.881605</ele>
        <time>2021-11-18T22:41:19.127Z</time>
      </trkpt>
      <trkpt lat="47.486480" lon="7.904016">
        <ele>521.455837</ele>
        <time>2021-11-18T22:41:21.294Z</time>
      </trkpt>
      <trkpt lat="47.486688" lon="7.904238">
        <ele>519.891325</ele>
        <time>2021-11-18T22:41:23.706Z</time>
      </trkpt>
      <trkpt lat="47.486721" lon="7.904326">
        <ele>519.476431</ele>
        <time>2021-11-18T22:41:24.309Z</time>
      </trkpt>
      <trkpt lat="47.486755" lon="7.904487">
        <ele>518.781057</ele>
        <time>2021-11-18T22:41:25.328Z</time>
      </trkpt>
      <trkpt lat="47.486724" lon="7.905485">
        <ele>514.921879</ele>
        <time>2021-11-18T22:41:31.491Z</time>
      </trkpt>
      <trkpt lat="47.486769" lon="7.905976">
        <ele>513.500382</ele>
        <time>2021-11-18T22:41:34.578Z</time>
      </trkpt>
      <trkpt lat="47.486969" lon="7.906583">
        <ele>511.563028</ele>
        <time>2021-11-18T22:41:38.870Z</time>
      </trkpt>
      <trkpt lat="47.487197" lon="7.906946">
        <ele>510.141273</ele>
        <time>2021-11-18T22:41:42.421Z</time>
      </trkpt>
      <trkpt lat="47.487378" lon="7.907191">
        <ele>509.099897</ele>
        <time>2021-11-18T22:41:44.999Z</time>
      </trkpt>
      <trkpt lat="47.487587" lon="7.907459">
        <ele>507.925854</ele>
        <time>2021-11-18T22:41:47.869Z</time>
      </trkpt>
      <trkpt lat="47.487763" lon="7.907711">
        <ele>507.126522</ele>
        <time>2021-11-18T22:41:50.388Z</time>
      </trkpt>
      <trkpt lat="47.488080" lon="7.908344">
        <ele>505.413085</ele>
        <time>2021-11-18T22:41:55.747Z</time>
      </trkpt>
      <trkpt lat="47.488185" lon="7.908663">
        <ele>504.641421</ele>
        <time>2021-11-18T22:41:58.278Z</time>
      </trkpt>
      <trkpt lat="47.488241" lon="7.908835">
        <ele>504.226213</ele>
        <time>2021-11-18T22:41:59.535Z</time>
      </trkpt>
      <trkpt lat="47.488366" lon="7.909318">
        <ele>503.101419</ele>
        <time>2021-11-18T22:42:03.139Z</time>
      </trkpt>
      <trkpt lat="47.488699" lon="7.910498">
        <ele>499.850075</ele>
        <time>2021-11-18T22:42:11.661Z</time>
      </trkpt>
      <trkpt lat="47.488908" lon="7.911009">
        <ele>498.206003</ele>
        <time>2021-11-18T22:42:15.497Z</time>
      </trkpt>
      <trkpt lat="47.489040" lon="7.911300">
        <ele>497.241313</ele>
        <time>2021-11-18T22:42:17.709Z</time>
      </trkpt>
      <trkpt lat="47.489216" lon="7.911685">
        <ele>495.961911</ele>
        <time>2021-11-18T22:42:20.798Z</time>
      </trkpt>
      <trkpt lat="47.489607" lon="7.912646">
        <ele>493.505156</ele>
        <time>2021-11-18T22:42:28.311Z</time>
      </trkpt>
      <trkpt lat="47.489843" lon="7.913398">
        <ele>491.984538</ele>
        <time>2021-11-18T22:42:34.183Z</time>
      </trkpt>
      <trkpt lat="47.489922" lon="7.913738">
        <ele>491.325161</ele>
        <time>2021-11-18T22:42:36.893Z</time>
      </trkpt>
      <trkpt lat="47.489951" lon="7.913893">
        <ele>491.030204</ele>
        <time>2021-11-18T22:42:38.086Z</time>
      </trkpt>
      <trkpt lat="47.489987" lon="7.914083">
        <ele>490.668315</ele>
        <time>2021-11-18T22:42:39.558Z</time>
      </trkpt>
      <trkpt lat="47.490283" lon="7.915612">
        <ele>487.902909</ele>
        <time>2021-11-18T22:42:51.101Z</time>
      </trkpt>
      <trkpt lat="47.490429" lon="7.916164">
        <ele>486.893051</ele>
        <time>2021-11-18T22:42:55.348Z</time>
      </trkpt>
      <trkpt lat="47.490607" lon="7.916690">
        <ele>485.890871</ele>
        <time>2021-11-18T22:42:59.558Z</time>
      </trkpt>
      <trkpt lat="47.490822" lon="7.917158">
        <ele>484.695204</ele>
        <time>2021-11-18T22:43:03.474Z</time>
      </trkpt>
      <trkpt lat="47.491324" lon="7.917985">
        <ele>481.761117</ele>
        <time>2021-11-18T22:43:10.925Z</time>
      </trkpt>
      <trkpt lat="47.492227" lon="7.918989">
        <ele>477.144340</ele>
        <time>2021-11-18T22:43:21.776Z</time>
      </trkpt>
      <trkpt lat="47.492584" lon="7.919482">
        <ele>474.835056</ele>
        <time>2021-11-18T22:43:26.382Z</time>
      </trkpt>
      <trkpt lat="47.492813" lon="7.919900">
        <ele>473.115385</ele>
        <time>2021-11-18T22:43:29.808Z</time>
      </trkpt>
      <trkpt lat="47.493132" lon="7.920716">
        <ele>470.102776</ele>
        <time>2021-11-18T22:43:35.863Z</time>
      </trkpt>
      <trkpt lat="47.493236" lon="7.921091">
        <ele>469.004934</ele>
        <time>2021-11-18T22:43:38.488Z</time>
      </trkpt>
      <trkpt lat="47.493307" lon="7.921373">
        <ele>468.231524</ele>
        <time>2021-11-18T22:43:40.464Z</time>
      </trkpt>
      <trkpt lat="47.493397" lon="7.921760">
        <ele>467.179685</ele>
        <time>2021-11-18T22:43:43.169Z</time>
      </trkpt>
      <trkpt lat="47.493708" lon="7.923049">
        <ele>463.662151</ele>
        <time>2021-11-18T22:43:52.359Z</time>
      </trkpt>
      <trkpt lat="47.494034" lon="7.924101">
        <ele>460.913483</ele>
        <time>2021-11-18T22:44:00.298Z</time>
      </trkpt>
      <trkpt lat="47.494438" lon="7.925289">
        <ele>457.832776</ele>
        <time>2021-11-18T22:44:09.376Z</time>
      </trkpt>
      <trkpt lat="47.494515" lon="7.925509">
        <ele>457.258870</ele>
        <time>2021-11-18T22:44:10.987Z</time>
      </trkpt>
      <trkpt lat="47.494945" lon="7.926765">
        <ele>453.664752</ele>
        <time>2021-11-18T22:44:20.368Z</time>
      </trkpt>
      <trkpt lat="47.495031" lon="7.927006">
        <ele>452.958752</ele>
        <time>2021-11-18T22:44:22.088Z</time>
      </trkpt>
      <trkpt lat="47.495268" lon="7.927740">
        <ele>450.851464</ele>
        <time>2021-11-18T22:44:27.459Z</time>
      </trkpt>
      <trkpt lat="47.495455" lon="7.928595">
        <ele>449.033430</ele>
        <time>2021-11-18T22:44:33.592Z</time>
      </trkpt>
      <trkpt lat="47.495530" lon="7.929063">
        <ele>448.244669</ele>
        <time>2021-11-18T22:44:36.900Z</time>
      </trkpt>
      <trkpt lat="47.495562" lon="7.929221">
        <ele>447.974176</ele>
        <time>2021-11-18T22:44:38.145Z</time>
      </trkpt>
      <trkpt lat="47.495622" lon="7.929400">
        <ele>447.646498</ele>
        <time>2021-11-18T22:44:39.653Z</time>
      </trkpt>
      <trkpt lat="47.495801" lon="7.929891">
        <ele>446.731582</ele>
        <time>2021-11-18T22:44:43.792Z</time>
      </trkpt>
      <trkpt lat="47.495985" lon="7.930428">
        <ele>445.744199</ele>
        <time>2021-11-18T22:44:48.184Z</time>
      </trkpt>
      <trkpt lat="47.496051" lon="7.930607">
        <ele>445.466695</ele>
        <time>2021-11-18T22:44:49.775Z</time>
      </trkpt>
      <trkpt lat="47.496117" lon="7.930763">
        <ele>445.289494</ele>
        <time>2021-11-18T22:44:51.162Z</time>
      </trkpt>
      <trkpt lat="47.496162" lon="7.930842">
        <ele>445.190016</ele>
        <time>2021-11-18T22:44:52.033Z</time>
      </trkpt>
      <trkpt lat="47.496205" lon="7.930904">
        <ele>445.104477</ele>
        <time>2021-11-18T22:44:52.658Z</time>
      </trkpt>
      <trkpt lat="47.496424" lon="7.931075">
        <ele>444.751660</ele>
        <time>2021-11-18T22:44:56.016Z</time>
      </trkpt>
      <trkpt lat="47.496998" lon="7.931330">
        <ele>443.897714</ele>
        <time>2021-11-18T22:45:03.591Z</time>
      </trkpt>
      <trkpt lat="47.497104" lon="7.931414">
        <ele>443.726387</ele>
        <time>2021-11-18T22:45:05.006Z</time>
      </trkpt>
      <trkpt lat="47.497221" lon="7.931528">
        <ele>443.526792</ele>
        <time>2021-11-18T22:45:06.658Z</time>
      </trkpt>
      <trkpt lat="47.497430" lon="7.931757">
        <ele>443.156264</ele>
        <time>2021-11-18T22:45:09.502Z</time>
      </trkpt>
      <trkpt lat="47.497676" lon="7.932013">
        <ele>442.660224</ele>
        <time>2021-11-18T22:45:12.662Z</time>
      </trkpt>
      <trkpt lat="47.497907" lon="7.932254">
        <ele>442.151647</ele>
        <time>2021-11-18T22:45:15.757Z</time>
      </trkpt>
      <trkpt lat="47.498068" lon="7.932426">
        <ele>441.794338</ele>
        <time>2021-11-18T22:45:17.894Z</time>
      </trkpt>
      <trkpt lat="47.498138" lon="7.932522">
        <ele>441.622611</ele>
        <time>2021-11-18T22:45:18.897Z</time>
      </trkpt>
      <trkpt lat="47.498196" lon="7.932613">
        <ele>441.470513</ele>
        <time>2021-11-18T22:45:19.806Z</time>
      </trkpt>
      <trkpt lat="47.498391" lon="7.932972">
        <ele>440.910478</ele>
        <time>2021-11-18T22:45:23.314Z</time>
      </trkpt>
      <trkpt lat="47.498431" lon="7.932995">
        <ele>440.833257</ele>
        <time>2021-11-18T22:45:23.803Z</time>
      </trkpt>
      <trkpt lat="47.498481" lon="7.933011">
        <ele>440.741202</ele>
        <time>2021-11-18T22:45:24.356Z</time>
      </trkpt>
      <trkpt lat="47.498925" lon="7.932781">
        <ele>439.894694</ele>
        <time>2021-11-18T22:45:29.953Z</time>
      </trkpt>
      <trkpt lat="47.498997" lon="7.932758">
        <ele>439.762145</ele>
        <time>2021-11-18T22:45:30.749Z</time>
      </trkpt>
      <trkpt lat="47.499088" lon="7.932741">
        <ele>439.668853</ele>
        <time>2021-11-18T22:45:31.944Z</time>
      </trkpt>
      <trkpt lat="47.499354" lon="7.932769">
        <ele>439.417203</ele>
        <time>2021-11-18T22:45:35.079Z</time>
      </trkpt>
      <trkpt lat="47.499421" lon="7.932805">
        <ele>439.349940</ele>
        <time>2021-11-18T22:45:35.945Z</time>
      </trkpt>
      <trkpt lat="47.499538" lon="7.932868">
        <ele>439.232452</ele>
        <time>2021-11-18T22:45:37.351Z</time>
      </trkpt>
      <trkpt lat="47.499822" lon="7.933272">
        <ele>438.860747</ele>
        <time>2021-11-18T22:45:41.900Z</time>
      </trkpt>
      <trkpt lat="47.499993" lon="7.933864">
        <ele>438.450277</ele>
        <time>2021-11-18T22:45:47.377Z</time>
      </trkpt>
      <trkpt lat="47.500034" lon="7.933965">
        <ele>438.375157</ele>
        <time>2021-11-18T22:45:48.265Z</time>
      </trkpt>
      <trkpt lat="47.500007" lon="7.933994">
        <ele>438.343676</ele>
        <time>2021-11-18T22:45:48.752Z</time>
      </trkpt>
      <trkpt lat="47.499971" lon="7.934127">
        <ele>438.252332</ele>
        <time>2021-11-18T22:45:50.473Z</time>
      </trkpt>
      <trkpt lat="47.499976" lon="7.934175">
        <ele>438.221369</ele>
        <time>2021-11-18T22:45:51.156Z</time>
      </trkpt>
      <trkpt lat="47.499991" lon="7.934221">
        <ele>438.188805</ele>
        <time>2021-11-18T22:45:51.551Z</time>
      </trkpt>
      <trkpt lat="47.500077" lon="7.934300">
        <ele>438.093291</ele>
        <time>2021-11-18T22:45:52.737Z</time>
      </trkpt>
      <trkpt lat="47.500111" lon="7.934299">
        <ele>438.061200</ele>
        <time>2021-11-18T22:45:53.279Z</time>
      </trkpt>
      <trkpt lat="47.500150" lon="7.934279">
        <ele>438.036942</ele>
        <time>2021-11-18T22:45:53.825Z</time>
      </trkpt>
      <trkpt lat="47.500213" lon="7.934131">
        <ele>437.983095</ele>
        <time>2021-11-18T22:45:56.168Z</time>
      </trkpt>
      <trkpt lat="47.500208" lon="7.934071">
        <ele>437.964485</ele>
        <time>2021-11-18T22:45:56.937Z</time>
      </trkpt>
      <trkpt lat="47.500275" lon="7.934029">
        <ele>437.931333</ele>
        <time>2021-11-18T22:45:57.797Z</time>
      </trkpt>
      <trkpt lat="47.500352" lon="7.933976">
        <ele>437.892641</ele>
        <time>2021-11-18T22:45:59.007Z</time>
      </trkpt>
      <trkpt lat="47.500386" lon="7.933937">
        <ele>437.873042</ele>
        <time>2021-11-18T22:45:59.653Z</time>
      </trkpt>
      <trkpt lat="47.500435" lon="7.933872">
        <ele>437.843062</ele>
        <time>2021-11-18T22:46:00.768Z</time>
      </trkpt>
      <trkpt lat="47.500843" lon="7.933102">
        <ele>437.541834</ele>
        <time>2021-11-18T22:46:09.979Z</time>
      </trkpt>
      <trkpt lat="47.500990" lon="7.932950">
        <ele>437.460132</ele>
        <time>2021-11-18T22:46:12.590Z</time>
      </trkpt>
      <trkpt lat="47.501075" lon="7.932885">
        <ele>437.416540</ele>
        <time>2021-11-18T22:46:13.598Z</time>
      </trkpt>
      <trkpt lat="47.501463" lon="7.932668">
        <ele>437.224481</ele>
        <time>2021-11-18T22:46:18.602Z</time>
      </trkpt>
      <trkpt lat="47.501794" lon="7.932466">
        <ele>436.921059</ele>
        <time>2021-11-18T22:46:23.274Z</time>
      </trkpt>
      <trkpt lat="47.501901" lon="7.932351">
        <ele>436.808997</ele>
        <time>2021-11-18T22:46:25.418Z</time>
      </trkpt>
      <trkpt lat="47.502023" lon="7.932158">
        <ele>436.657670</ele>
        <time>2021-11-18T22:46:27.437Z</time>
      </trkpt>
      <trkpt lat="47.502400" lon="7.931256">
        <ele>436.050407</ele>
        <time>2021-11-18T22:46:36.409Z</time>
      </trkpt>
      <trkpt lat="47.502613" lon="7.930856">
        <ele>435.758807</ele>
        <time>2021-11-18T22:46:40.494Z</time>
      </trkpt>
      <trkpt lat="47.502761" lon="7.930610">
        <ele>435.548301</ele>
        <time>2021-11-18T22:46:43.398Z</time>
      </trkpt>
      <trkpt lat="47.503014" lon="7.930220">
        <ele>435.189083</ele>
        <time>2021-11-18T22:46:48.120Z</time>
      </trkpt>
      <trkpt lat="47.503485" lon="7.929688">
        <ele>434.606447</ele>
        <time>2021-11-18T22:46:55.903Z</time>
      </trkpt>
      <trkpt lat="47.503528" lon="7.929650">
        <ele>434.557197</ele>
        <time>2021-11-18T22:46:56.387Z</time>
      </trkpt>
      <trkpt lat="47.503598" lon="7.929585">
        <ele>434.475934</ele>
        <time>2021-11-18T22:46:57.841Z</time>
      </trkpt>
      <trkpt lat="47.503815" lon="7.929426">
        <ele>434.237819</ele>
        <time>2021-11-18T22:47:00.528Z</time>
      </trkpt>
      <trkpt lat="47.504005" lon="7.929312">
        <ele>434.036202</ele>
        <time>2021-11-18T22:47:03.756Z</time>
      </trkpt>
      <trkpt lat="47.504650" lon="7.928941">
        <ele>432.160030</ele>
        <time>2021-11-18T22:47:11.475Z</time>
      </trkpt>
      <trkpt lat="47.504724" lon="7.928871">
        <ele>431.896330</ele>
        <time>2021-11-18T22:47:12.440Z</time>
      </trkpt>
      <trkpt lat="47.504799" lon="7.928777">
        <ele>431.601244</ele>
        <time>2021-11-18T22:47:13.314Z</time>
      </trkpt>
      <trkpt lat="47.505253" lon="7.928170">
        <ele>429.764259</ele>
        <time>2021-11-18T22:47:19.664Z</time>
      </trkpt>
      <trkpt lat="47.505814" lon="7.927657">
        <ele>427.699575</ele>
        <time>2021-11-18T22:47:25.966Z</time>
      </trkpt>
      <trkpt lat="47.505868" lon="7.927611">
        <ele>427.491461</ele>
        <time>2021-11-18T22:47:26.585Z</time>
      </trkpt>
      <trkpt lat="47.505881" lon="7.927601">
        <ele>427.442523</ele>
        <time>2021-11-18T22:47:26.721Z</time>
      </trkpt>
      <trkpt lat="47.506112" lon="7.927414">
        <ele>426.563054</ele>
        <time>2021-11-18T22:47:29.181Z</time>
      </trkpt>
      <trkpt lat="47.507856" lon="7.925990">
        <ele>420.749931</ele>
        <time>2021-11-18T22:47:49.953Z</time>
      </trkpt>
      <trkpt lat="47.508002" lon="7.925879">
        <ele>420.377510</ele>
        <time>2021-11-18T22:47:51.760Z</time>
      </trkpt>
      <trkpt lat="47.508106" lon="7.925799">
        <ele>420.111569</ele>
        <time>2021-11-18T22:47:53.157Z</time>
      </trkpt>
      <trkpt lat="47.508355" lon="7.925609">
        <ele>419.475929</ele>
        <time>2021-11-18T22:47:56.320Z</time>
      </trkpt>
      <trkpt lat="47.508667" lon="7.925295">
        <ele>418.619874</ele>
        <time>2021-11-18T22:48:00.576Z</time>
      </trkpt>
      <trkpt lat="47.509016" lon="7.924882">
        <ele>417.615250</ele>
        <time>2021-11-18T22:48:05.287Z</time>
      </trkpt>
      <trkpt lat="47.509032" lon="7.924863">
        <ele>417.569217</ele>
        <time>2021-11-18T22:48:05.493Z</time>
      </trkpt>
      <trkpt lat="47.509223" lon="7.924628">
        <ele>417.011844</ele>
        <time>2021-11-18T22:48:08.132Z</time>
      </trkpt>
      <trkpt lat="47.509572" lon="7.924311">
        <ele>416.092916</ele>
        <time>2021-11-18T22:48:12.501Z</time>
      </trkpt>
      <trkpt lat="47.509605" lon="7.924290">
        <ele>416.012302</ele>
        <time>2021-11-18T22:48:12.843Z</time>
      </trkpt>
      <trkpt lat="47.509676" lon="7.924247">
        <ele>415.840140</ele>
        <time>2021-11-18T22:48:13.648Z</time>
      </trkpt>
      <trkpt lat="47.509806" lon="7.924174">
        <ele>415.528099</ele>
        <time>2021-11-18T22:48:15.263Z</time>
      </trkpt>
      <trkpt lat="47.509886" lon="7.924134">
        <ele>415.338592</ele>
        <time>2021-11-18T22:48:16.181Z</time>
      </trkpt>
      <trkpt lat="47.509869" lon="7.923971">
        <ele>415.088566</ele>
        <time>2021-11-18T22:48:17.307Z</time>
      </trkpt>
      <trkpt lat="47.509817" lon="7.923703">
        <ele>414.665865</ele>
        <time>2021-11-18T22:48:19.498Z</time>
      </trkpt>
      <trkpt lat="47.509802" lon="7.923674">
        <ele>414.610494</ele>
        <time>2021-11-18T22:48:19.735Z</time>
      </trkpt>
      <trkpt lat="47.509668" lon="7.923400">
        <ele>414.223885</ele>
        <time>2021-11-18T22:48:22.215Z</time>
      </trkpt>
      <trkpt lat="47.509595" lon="7.923295">
        <ele>414.087495</ele>
        <time>2021-11-18T22:48:23.442Z</time>
      </trkpt>
      <trkpt lat="47.509550" lon="7.923245">
        <ele>414.012099</ele>
        <time>2021-11-18T22:48:24.047Z</time>
      </trkpt>
      <trkpt lat="47.509583" lon="7.922962">
        <ele>413.752152</ele>
        <time>2021-11-18T22:48:26.165Z</time>
      </trkpt>
      <trkpt lat="47.509615" lon="7.922742">
        <ele>413.548455</ele>
        <time>2021-11-18T22:48:27.961Z</time>
      </trkpt>
      <trkpt lat="47.509688" lon="7.922616">
        <ele>413.398200</ele>
        <time>2021-11-18T22:48:29.135Z</time>
      </trkpt>
      <trkpt lat="47.510639" lon="7.921796">
        <ele>411.946892</ele>
        <time>2021-11-18T22:48:42.747Z</time>
      </trkpt>
      <trkpt lat="47.510872" lon="7.921477">
        <ele>411.650794</ele>
        <time>2021-11-18T22:48:46.845Z</time>
      </trkpt>
      <trkpt lat="47.511052" lon="7.921232">
        <ele>411.422664</ele>
        <time>2021-11-18T22:48:49.973Z</time>
      </trkpt>
      <trkpt lat="47.511067" lon="7.921207">
        <ele>411.401591</ele>
        <time>2021-11-18T22:48:50.243Z</time>
      </trkpt>
      <trkpt lat="47.511186" lon="7.920984">
        <ele>411.222490</ele>
        <time>2021-11-18T22:48:52.739Z</time>
      </trkpt>
      <trkpt lat="47.511613" lon="7.920183">
        <ele>410.579429</ele>
        <time>2021-11-18T22:49:01.301Z</time>
      </trkpt>
      <trkpt lat="47.511632" lon="7.920105">
        <ele>410.527175</ele>
        <time>2021-11-18T22:49:02.048Z</time>
      </trkpt>
      <trkpt lat="47.511883" lon="7.920133">
        <ele>410.264958</ele>
        <time>2021-11-18T22:49:06.176Z</time>
      </trkpt>
      <trkpt lat="47.511964" lon="7.919989">
        <ele>410.039754</ele>
        <time>2021-11-18T22:49:07.633Z</time>
      </trkpt>
      <trkpt lat="47.512085" lon="7.919732">
        <ele>409.663276</ele>
        <time>2021-11-18T22:49:10.023Z</time>
      </trkpt>
      <trkpt lat="47.512255" lon="7.919538">
        <ele>409.281385</ele>
        <time>2021-11-18T22:49:12.449Z</time>
      </trkpt>
      <trkpt lat="47.512664" lon="7.919306">
        <ele>408.502103</ele>
        <time>2021-11-18T22:49:17.338Z</time>
      </trkpt>
      <trkpt lat="47.512938" lon="7.919052">
        <ele>407.926921</ele>
        <time>2021-11-18T22:49:20.903Z</time>
      </trkpt>
      <trkpt lat="47.513058" lon="7.918896">
        <ele>407.642792</ele>
        <time>2021-11-18T22:49:22.627Z</time>
      </trkpt>
      <trkpt lat="47.513160" lon="7.918764">
        <ele>407.401757</ele>
        <time>2021-11-18T22:49:24.104Z</time>
      </trkpt>
      <trkpt lat="47.513378" lon="7.918393">
        <ele>406.841897</ele>
        <time>2021-11-18T22:49:27.768Z</time>
      </trkpt>
      <trkpt lat="47.514255" lon="7.917714">
        <ele>405.256769</ele>
        <time>2021-11-18T22:49:38.842Z</time>
      </trkpt>
      <trkpt lat="47.514561" lon="7.917409">
        <ele>404.665946</ele>
        <time>2021-11-18T22:49:43.154Z</time>
      </trkpt>
      <trkpt lat="47.514635" lon="7.917349">
        <ele>404.530814</ele>
        <time>2021-11-18T22:49:44.096Z</time>
      </trkpt>
      <trkpt lat="47.515014" lon="7.917030">
        <ele>403.999111</ele>
        <time>2021-11-18T22:49:49.460Z</time>
      </trkpt>
      <trkpt lat="47.516391" lon="7.915243">
        <ele>402.268232</ele>
        <time>2021-11-18T22:50:12.162Z</time>
      </trkpt>
      <trkpt lat="47.516544" lon="7.914936">
        <ele>402.030188</ele>
        <time>2021-11-18T22:50:15.333Z</time>
      </trkpt>
      <trkpt lat="47.516569" lon="7.914864">
        <ele>401.979678</ele>
        <time>2021-11-18T22:50:16.112Z</time>
      </trkpt>
      <trkpt lat="47.516590" lon="7.914840">
        <ele>401.955171</ele>
        <time>2021-11-18T22:50:16.428Z</time>
      </trkpt>
      <trkpt lat="47.516626" lon="7.914830">
        <ele>401.921335</ele>
        <time>2021-11-18T22:50:16.907Z</time>
      </trkpt>
      <trkpt lat="47.516662" lon="7.914835">
        <ele>401.887932</ele>
        <time>2021-11-18T22:50:17.342Z</time>
      </trkpt>
      <trkpt lat="47.516748" lon="7.914873">
        <ele>401.805024</ele>
        <time>2021-11-18T22:50:18.417Z</time>
      </trkpt>
      <trkpt lat="47.516806" lon="7.914896">
        <ele>401.749555</ele>
        <time>2021-11-18T22:50:19.123Z</time>
      </trkpt>
      <trkpt lat="47.517140" lon="7.915259">
        <ele>401.366811</ele>
        <time>2021-11-18T22:50:24.286Z</time>
      </trkpt>
      <trkpt lat="47.517281" lon="7.915238">
        <ele>401.235899</ele>
        <time>2021-11-18T22:50:26.094Z</time>
      </trkpt>
      <trkpt lat="47.517688" lon="7.914418">
        <ele>400.564843</ele>
        <time>2021-11-18T22:50:34.466Z</time>
      </trkpt>
      <trkpt lat="47.519421" lon="7.912098">
        <ele>398.091189</ele>
        <time>2021-11-18T22:51:02.784Z</time>
      </trkpt>
      <trkpt lat="47.519720" lon="7.911522">
        <ele>397.561093</ele>
        <time>2021-11-18T22:51:08.664Z</time>
      </trkpt>
      <trkpt lat="47.519891" lon="7.911129">
        <ele>397.219972</ele>
        <time>2021-11-18T22:51:12.461Z</time>
      </trkpt>
      <trkpt lat="47.519997" lon="7.910833">
        <ele>397.016659</ele>
        <time>2021-11-18T22:51:15.105Z</time>
      </trkpt>
      <trkpt lat="47.520493" lon="7.908683">
        <ele>396.323398</ele>
        <time>2021-11-18T22:51:35.361Z</time>
      </trkpt>
      <trkpt lat="47.520738" lon="7.907839">
        <ele>396.147680</ele>
        <time>2021-11-18T22:51:45.866Z</time>
      </trkpt>
      <trkpt lat="47.520733" lon="7.907655">
        <ele>396.122346</ele>
        <time>2021-11-18T22:51:47.476Z</time>
      </trkpt>
      <trkpt lat="47.520551" lon="7.907422">
        <ele>396.073335</ele>
        <time>2021-11-18T22:51:51.526Z</time>
      </trkpt>
      <trkpt lat="47.520506" lon="7.907236">
        <ele>396.046154</ele>
        <time>2021-11-18T22:51:53.206Z</time>
      </trkpt>
      <trkpt lat="47.520515" lon="7.907103">
        <ele>396.027765</ele>
        <time>2021-11-18T22:51:54.969Z</time>
      </trkpt>
      <trkpt lat="47.520528" lon="7.906930">
        <ele>396.003818</ele>
        <time>2021-11-18T22:51:56.659Z</time>
      </trkpt>
      <trkpt lat="47.520566" lon="7.906668">
        <ele>395.966952</ele>
        <time>2021-11-18T22:51:58.937Z</time>
      </trkpt>
      <trkpt lat="47.520678" lon="7.906050">
        <ele>395.878924</ele>
        <time>2021-11-18T22:52:04.832Z</time>
      </trkpt>
      <trkpt lat="47.520989" lon="7.905130">
        <ele>394.424899</ele>
        <time>2021-11-18T22:52:13.174Z</time>
      </trkpt>
      <trkpt lat="47.521297" lon="7.904312">
        <ele>392.992881</ele>
        <time>2021-11-18T22:52:19.914Z</time>
      </trkpt>
      <trkpt lat="47.521792" lon="7.903347">
        <ele>390.613441</ele>
        <time>2021-11-18T22:52:28.036Z</time>
      </trkpt>
      <trkpt lat="47.522013" lon="7.902637">
        <ele>388.456758</ele>
        <time>2021-11-18T22:52:33.214Z</time>
      </trkpt>
      <trkpt lat="47.522038" lon="7.902562">
        <ele>388.226028</ele>
        <time>2021-11-18T22:52:33.734Z</time>
      </trkpt>
      <trkpt lat="47.522065" lon="7.902526">
        <ele>388.077610</ele>
        <time>2021-11-18T22:52:34.065Z</time>
      </trkpt>
      <trkpt lat="47.522132" lon="7.902476">
        <ele>387.771123</ele>
        <time>2021-11-18T22:52:34.808Z</time>
      </trkpt>
      <trkpt lat="47.522260" lon="7.902356">
        <ele>387.152261</ele>
        <time>2021-11-18T22:52:36.299Z</time>
      </trkpt>
      <trkpt lat="47.522554" lon="7.901999">
        <ele>385.599114</ele>
        <time>2021-11-18T22:52:39.950Z</time>
      </trkpt>
      <trkpt lat="47.522688" lon="7.901843">
        <ele>384.902815</ele>
        <time>2021-11-18T22:52:41.540Z</time>
      </trkpt>
      <trkpt lat="47.523036" lon="7.901580">
        <ele>383.717884</ele>
        <time>2021-11-18T22:52:45.326Z</time>
      </trkpt>
      <trkpt lat="47.523340" lon="7.901197">
        <ele>382.675128</ele>
        <time>2021-11-18T22:52:49.286Z</time>
      </trkpt>
      <trkpt lat="47.523433" lon="7.901043">
        <ele>382.310645</ele>
        <time>2021-11-18T22:52:50.675Z</time>
      </trkpt>
      <trkpt lat="47.523567" lon="7.900820">
        <ele>381.784018</ele>
        <time>2021-11-18T22:52:52.775Z</time>
      </trkpt>
      <trkpt lat="47.523620" lon="7.900698">
        <ele>381.528092</ele>
        <time>2021-11-18T22:52:53.877Z</time>
      </trkpt>
      <trkpt lat="47.523648" lon="7.900606">
        <ele>381.350062</ele>
        <time>2021-11-18T22:52:54.562Z</time>
      </trkpt>
      <trkpt lat="47.523739" lon="7.900557">
        <ele>381.097092</ele>
        <time>2021-11-18T22:52:55.618Z</time>
      </trkpt>
      <trkpt lat="47.523878" lon="7.900445">
        <ele>380.683674</ele>
        <time>2021-11-18T22:52:57.584Z</time>
      </trkpt>
      <trkpt lat="47.523957" lon="7.900371">
        <ele>380.439459</ele>
        <time>2021-11-18T22:52:58.615Z</time>
      </trkpt>
      <trkpt lat="47.523989" lon="7.900340">
        <ele>380.339559</ele>
        <time>2021-11-18T22:52:59.081Z</time>
      </trkpt>
      <trkpt lat="47.523945" lon="7.900256">
        <ele>380.152009</ele>
        <time>2021-11-18T22:53:00.159Z</time>
      </trkpt>
      <trkpt lat="47.523890" lon="7.900131">
        <ele>379.888801</ele>
        <time>2021-11-18T22:53:01.573Z</time>
      </trkpt>
      <trkpt lat="47.523861" lon="7.900049">
        <ele>379.747155</ele>
        <time>2021-11-18T22:53:02.470Z</time>
      </trkpt>
      <trkpt lat="47.523896" lon="7.900001">
        <ele>379.741267</ele>
        <time>2021-11-18T22:53:03.026Z</time>
      </trkpt>
      <trkpt lat="47.524309" lon="7.899115">
        <ele>379.651534</ele>
        <time>2021-11-18T22:53:12.849Z</time>
      </trkpt>
      <trkpt lat="47.524360" lon="7.898951">
        <ele>379.636485</ele>
        <time>2021-11-18T22:53:14.552Z</time>
      </trkpt>
      <trkpt lat="47.524617" lon="7.898216">
        <ele>379.567498</ele>
        <time>2021-11-18T22:53:23.799Z</time>
      </trkpt>
      <trkpt lat="47.524834" lon="7.897636">
        <ele>379.434561</ele>
        <time>2021-11-18T22:53:30.992Z</time>
      </trkpt>
      <trkpt lat="47.525169" lon="7.896998">
        <ele>378.993270</ele>
        <time>2021-11-18T22:53:39.067Z</time>
      </trkpt>
      <trkpt lat="47.525254" lon="7.896837">
        <ele>378.881680</ele>
        <time>2021-11-18T22:53:42.029Z</time>
      </trkpt>
      <trkpt lat="47.525518" lon="7.896336">
        <ele>378.534686</ele>
        <time>2021-11-18T22:53:47.615Z</time>
      </trkpt>
      <trkpt lat="47.525590" lon="7.896117">
        <ele>378.401688</ele>
        <time>2021-11-18T22:53:49.246Z</time>
      </trkpt>
      <trkpt lat="47.525622" lon="7.895944">
        <ele>378.303746</ele>
        <time>2021-11-18T22:53:51.388Z</time>
      </trkpt>
      <trkpt lat="47.525631" lon="7.895583">
        <ele>378.106498</ele>
        <time>2021-11-18T22:53:53.774Z</time>
      </trkpt>
      <trkpt lat="47.525631" lon="7.895442">
        <ele>377.928311</ele>
        <time>2021-11-18T22:53:55.505Z</time>
      </trkpt>
      <trkpt lat="47.525603" lon="7.895265">
        <ele>377.591661</ele>
        <time>2021-11-18T22:53:56.876Z</time>
      </trkpt>
      <trkpt lat="47.525725" lon="7.895110">
        <ele>377.150833</ele>
        <time>2021-11-18T22:53:58.390Z</time>
      </trkpt>
      <trkpt lat="47.526127" lon="7.894482">
        <ele>375.548384</ele>
        <time>2021-11-18T22:54:04.671Z</time>
      </trkpt>
      <trkpt lat="47.526257" lon="7.894278">
        <ele>375.028949</ele>
        <time>2021-11-18T22:54:06.595Z</time>
      </trkpt>
      <trkpt lat="47.526335" lon="7.893960">
        <ele>374.402424</ele>
        <time>2021-11-18T22:54:08.942Z</time>
      </trkpt>
      <trkpt lat="47.526401" lon="7.893964">
        <ele>374.221274</ele>
        <time>2021-11-18T22:54:09.572Z</time>
      </trkpt>
      <trkpt lat="47.526451" lon="7.893983">
        <ele>374.079711</ele>
        <time>2021-11-18T22:54:10.281Z</time>
      </trkpt>
      <trkpt lat="47.526504" lon="7.894030">
        <ele>373.910298</ele>
        <time>2021-11-18T22:54:10.960Z</time>
      </trkpt>
      <trkpt lat="47.526709" lon="7.893617">
        <ele>373.010537</ele>
        <time>2021-11-18T22:54:14.384Z</time>
      </trkpt>
      <trkpt lat="47.527011" lon="7.893061">
        <ele>372.055934</ele>
        <time>2021-11-18T22:54:19.391Z</time>
      </trkpt>
      <trkpt lat="47.527498" lon="7.892650">
        <ele>370.945411</ele>
        <time>2021-11-18T22:54:25.412Z</time>
      </trkpt>
      <trkpt lat="47.528003" lon="7.892732">
        <ele>369.938899</ele>
        <time>2021-11-18T22:54:31.662Z</time>
      </trkpt>
      <trkpt lat="47.528331" lon="7.892682">
        <ele>369.420622</ele>
        <time>2021-11-18T22:54:35.930Z</time>
      </trkpt>
      <trkpt lat="47.529235" lon="7.892158">
        <ele>368.392384</ele>
        <time>2021-11-18T22:54:47.628Z</time>
      </trkpt>
      <trkpt lat="47.529695" lon="7.891638">
        <ele>367.779442</ele>
        <time>2021-11-18T22:54:54.682Z</time>
      </trkpt>
      <trkpt lat="47.529714" lon="7.891609">
        <ele>367.750543</ele>
        <time>2021-11-18T22:54:54.945Z</time>
      </trkpt>
      <trkpt lat="47.529972" lon="7.891210">
        <ele>367.525695</ele>
        <time>2021-11-18T22:54:59.371Z</time>
      </trkpt>
      <trkpt lat="47.530322" lon="7.890690">
        <ele>367.284272</ele>
        <time>2021-11-18T22:55:05.515Z</time>
      </trkpt>
      <trkpt lat="47.530606" lon="7.890373">
        <ele>367.111090</ele>
        <time>2021-11-18T22:55:10.222Z</time>
      </trkpt>
      <trkpt lat="47.531076" lon="7.890029">
        <ele>366.855787</ele>
        <time>2021-11-18T22:55:17.926Z</time>
      </trkpt>
      <trkpt lat="47.531265" lon="7.889937">
        <ele>366.887408</ele>
        <time>2021-11-18T22:55:20.993Z</time>
      </trkpt>
      <trkpt lat="47.531560" lon="7.889776">
        <ele>367.284150</ele>
        <time>2021-11-18T22:55:26.646Z</time>
      </trkpt>
      <trkpt lat="47.531843" lon="7.889349">
        <ele>367.793959</ele>
        <time>2021-11-18T22:55:34.229Z</time>
      </trkpt>
      <trkpt lat="47.532011" lon="7.888896">
        <ele>368.234322</ele>
        <time>2021-11-18T22:55:41.425Z</time>
      </trkpt>
      <trkpt lat="47.532288" lon="7.887728">
        <ele>369.368017</ele>
        <time>2021-11-18T22:56:00.304Z</time>
      </trkpt>
      <trkpt lat="47.532505" lon="7.887120">
        <ele>370.159823</ele>
        <time>2021-11-18T22:56:10.591Z</time>
      </trkpt>
      <trkpt lat="47.532650" lon="7.885569">
        <ele>371.962592</ele>
        <time>2021-11-18T22:56:33.353Z</time>
      </trkpt>
      <trkpt lat="47.532658" lon="7.884989">
        <ele>372.331086</ele>
        <time>2021-11-18T22:56:41.540Z</time>
      </trkpt>
      <trkpt lat="47.532670" lon="7.884773">
        <ele>372.430855</ele>
        <time>2021-11-18T22:56:44.843Z</time>
      </trkpt>
      <trkpt lat="47.532699" lon="7.884224">
        <ele>372.684352</ele>
        <time>2021-11-18T22:56:51.958Z</time>
      </trkpt>
      <trkpt lat="47.532713" lon="7.884122">
        <ele>372.732266</ele>
        <time>2021-11-18T22:56:53.122Z</time>
      </trkpt>
      <trkpt lat="47.532859" lon="7.883508">
        <ele>373.031929</ele>
        <time>2021-11-18T22:57:00.733Z</time>
      </trkpt>
      <trkpt lat="47.533014" lon="7.882949">
        <ele>373.310111</ele>
        <time>2021-11-18T22:57:06.953Z</time>
      </trkpt>
      <trkpt lat="47.533374" lon="7.881639">
        <ele>372.000568</ele>
        <time>2021-11-18T22:57:18.665Z</time>
      </trkpt>
      <trkpt lat="47.533606" lon="7.880961">
        <ele>371.213245</ele>
        <time>2021-11-18T22:57:24.460Z</time>
      </trkpt>
      <trkpt lat="47.533892" lon="7.880353">
        <ele>370.165712</ele>
        <time>2021-11-18T22:57:29.777Z</time>
      </trkpt>
      <trkpt lat="47.534616" lon="7.879490">
        <ele>366.127906</ele>
        <time>2021-11-18T22:57:38.947Z</time>
      </trkpt>
      <trkpt lat="47.534908" lon="7.878975">
        <ele>364.155148</ele>
        <time>2021-11-18T22:57:43.149Z</time>
      </trkpt>
      <trkpt lat="47.534946" lon="7.878790">
        <ele>363.587913</ele>
        <time>2021-11-18T22:57:44.424Z</time>
      </trkpt>
      <trkpt lat="47.534825" lon="7.878414">
        <ele>362.277670</ele>
        <time>2021-11-18T22:57:46.951Z</time>
      </trkpt>
      <trkpt lat="47.534778" lon="7.878270">
        <ele>361.709176</ele>
        <time>2021-11-18T22:57:48.102Z</time>
      </trkpt>
      <trkpt lat="47.534855" lon="7.878090">
        <ele>360.951786</ele>
        <time>2021-11-18T22:57:49.353Z</time>
      </trkpt>
      <trkpt lat="47.535088" lon="7.877742">
        <ele>359.209784</ele>
        <time>2021-11-18T22:57:52.448Z</time>
      </trkpt>
      <trkpt lat="47.535322" lon="7.877590">
        <ele>357.864622</ele>
        <time>2021-11-18T22:57:54.945Z</time>
      </trkpt>
      <trkpt lat="47.535551" lon="7.877487">
        <ele>356.604681</ele>
        <time>2021-11-18T22:57:57.100Z</time>
      </trkpt>
      <trkpt lat="47.535635" lon="7.877484">
        <ele>356.162330</ele>
        <time>2021-11-18T22:57:58.037Z</time>
      </trkpt>
      <trkpt lat="47.535770" lon="7.877432">
        <ele>355.427977</ele>
        <time>2021-11-18T22:57:59.289Z</time>
      </trkpt>
      <trkpt lat="47.535851" lon="7.877319">
        <ele>354.842188</ele>
        <time>2021-11-18T22:58:00.319Z</time>
      </trkpt>
      <trkpt lat="47.536444" lon="7.876177">
        <ele>351.420748</ele>
        <time>2021-11-18T22:58:09.698Z</time>
      </trkpt>
      <trkpt lat="47.536632" lon="7.875912">
        <ele>350.700597</ele>
        <time>2021-11-18T22:58:12.347Z</time>
      </trkpt>
      <trkpt lat="47.536757" lon="7.875759">
        <ele>350.250629</ele>
        <time>2021-11-18T22:58:14.294Z</time>
      </trkpt>
      <trkpt lat="47.536921" lon="7.875537">
        <ele>349.634131</ele>
        <time>2021-11-18T22:58:16.861Z</time>
      </trkpt>
      <trkpt lat="47.537182" lon="7.875293">
        <ele>348.777692</ele>
        <time>2021-11-18T22:58:20.570Z</time>
      </trkpt>
      <trkpt lat="47.537261" lon="7.875237">
        <ele>348.534665</ele>
        <time>2021-11-18T22:58:21.532Z</time>
      </trkpt>
      <trkpt lat="47.537716" lon="7.874966">
        <ele>347.896586</ele>
        <time>2021-11-18T22:58:27.421Z</time>
      </trkpt>
      <trkpt lat="47.538278" lon="7.874319">
        <ele>347.163060</ele>
        <time>2021-11-18T22:58:35.895Z</time>
      </trkpt>
      <trkpt lat="47.539222" lon="7.873416">
        <ele>345.765778</ele>
        <time>2021-11-18T22:58:50.342Z</time>
      </trkpt>
      <trkpt lat="47.539678" lon="7.872430">
        <ele>344.506491</ele>
        <time>2021-11-18T22:58:59.423Z</time>
      </trkpt>
      <trkpt lat="47.539841" lon="7.872151">
        <ele>344.117730</ele>
        <time>2021-11-18T22:59:02.192Z</time>
      </trkpt>
      <trkpt lat="47.539930" lon="7.872041">
        <ele>343.936822</ele>
        <time>2021-11-18T22:59:03.388Z</time>
      </trkpt>
      <trkpt lat="47.540034" lon="7.871970">
        <ele>343.758095</ele>
        <time>2021-11-18T22:59:04.656Z</time>
      </trkpt>
      <trkpt lat="47.540216" lon="7.871851">
        <ele>343.662750</ele>
        <time>2021-11-18T22:59:06.834Z</time>
      </trkpt>
      <trkpt lat="47.540265" lon="7.871808">
        <ele>343.662750</ele>
        <time>2021-11-18T22:59:07.439Z</time>
      </trkpt>
      <trkpt lat="47.540463" lon="7.871584">
        <ele>343.662750</ele>
        <time>2021-11-18T22:59:10.225Z</time>
      </trkpt>
      <trkpt lat="47.540693" lon="7.871390">
        <ele>343.662750</ele>
        <time>2021-11-18T22:59:13.099Z</time>
      </trkpt>
      <trkpt lat="47.540894" lon="7.871220">
        <ele>343.662750</ele>
        <time>2021-11-18T22:59:15.606Z</time>
      </trkpt>
      <trkpt lat="47.540933" lon="7.871187">
        <ele>343.662750</ele>
        <time>2021-11-18T22:59:16.080Z</time>
      </trkpt>
      <trkpt lat="47.541091" lon="7.871056">
        <ele>343.662750</ele>
        <time>2021-11-18T22:59:18.147Z</time>
      </trkpt>
      <trkpt lat="47.541305" lon="7.870878">
        <ele>343.662750</ele>
        <time>2021-11-18T22:59:20.786Z</time>
      </trkpt>
    </trkseg>
  </trk>
</gpx>